GFSSE_925_spd_003.txt.gz
Wind_Speed
18 20 20 20 20 24 22 21 21 22 23 25 23 21 20 18 18 17 16 17 16 17 16 16 15 15 14 13 12 12 10 9 9 7 8 9 8 6 6 7 8 9 11
20 17 20 18 20 24 20 21 20 21 22 22 20 20 19 18 18 16 16 15 16 15 15 14 14 13 13 12 12 11 9 7 6 3 5 8 10 6 6 5 8 11 11
19 19 17 17 18 21 21 21 20 20 20 19 17 17 17 17 16 16 14 14 13 13 12 12 12 12 12 12 11 9 7 6 5 4 2 7 9 9 7 7 9 12 11
23 19 15 17 19 19 20 20 19 18 17 16 15 14 14 13 13 13 12 12 12 11 10 9 10 10 11 10 10 8 6 4 4 3 4 9 11 10 10 7 10 11 9
19 18 13 14 17 18 18 20 20 16 15 13 12 12 11 10 11 11 10 10 10 9 8 8 8 8 8 8 8 6 4 4 3 2 8 8 5 10 9 10 11 11 10
17 15 15 15 17 17 18 19 18 14 13 11 10 9 8 8 9 9 9 9 8 7 6 7 7 7 6 6 6 5 3 1 2 2 5 6 9 8 8 8 8 10 9
16 16 15 17 16 17 17 17 16 13 11 10 9 7 7 7 7 7 7 7 7 7 6 6 6 6 5 4 5 5 4 2 5 3 1 2 9 6 7 8 8 9 10
18 17 15 16 15 16 16 15 15 12 10 9 8 8 7 5 4 5 5 5 5 4 4 5 5 5 6 4 4 5 7 5 3 4 3 2 4 6 8 8 9 8 8
17 17 16 15 15 15 15 15 12 10 9 8 9 8 6 4 2 3 2 3 2 3 4 4 4 5 6 5 5 6 6 5 1 3 4 3 2 6 8 9 8 8 9
19 13 17 17 15 14 13 13 11 8 9 8 7 7 6 4 1 1 1 1 2 1 2 2 3 4 5 6 7 8 3 1 6 2 6 7 4 6 6 8 9 10 11
17 16 13 14 14 14 14 12 11 9 8 7 6 6 3 5 4 1 4 5 6 3 1 2 4 5 2 3 8 10 9 9 5 5 6 6 2 5 8 8 8 10 12
19 19 17 18 15 14 14 12 10 9 9 8 7 7 4 2 3 4 4 3 1 1 2 2 6 3 6 4 5 9 8 8 6 4 4 3 1 2 6 8 8 9 11
20 18 17 16 14 14 16 12 12 11 12 10 8 7 6 3 6 7 6 7 5 1 7 1 3 4 8 7 9 9 9 8 6 5 3 2 4 4 5 8 9 11 10
21 18 16 18 16 13 13 12 11 11 11 10 11 10 7 5 6 4 2 3 4 5 3 1 4 5 5 7 8 9 9 9 7 6 3 5 5 5 7 8 12 12 11
21 20 19 17 16 13 12 12 11 10 10 10 8 9 10 9 3 4 3 5 5 6 4 5 5 6 7 9 9 9 10 10 9 8 6 7 7 5 5 9 10 13 12
21 21 20 18 17 14 13 10 9 11 10 11 10 9 9 9 3 4 6 6 7 4 7 5 5 7 8 7 9 8 10 9 8 7 7 6 6 2 7 7 9 10 13
22 21 20 19 18 17 16 14 13 14 13 12 12 9 10 10 8 7 8 7 8 4 6 9 7 7 10 11 8 8 9 8 8 6 5 5 4 4 3 9 10 10 10
24 23 22 20 20 19 17 16 16 15 14 13 12 13 12 11 9 8 10 10 6 7 8 8 8 12 11 11 9 7 8 7 7 3 1 4 4 4 6 7 7 9 10
25 24 24 21 20 20 19 17 16 15 14 12 12 8 8 11 12 10 13 9 3 8 7 8 7 10 9 10 9 6 4 5 5 7 5 4 5 2 3 6 3 7 9
26 25 24 24 22 18 17 18 16 15 13 14 14 12 11 10 12 12 11 7 7 9 9 4 6 9 9 8 8 7 2 3 3 5 4 5 5 4 6 4 4 8 8
26 27 26 25 24 22 20 17 18 16 17 17 15 13 10 10 11 10 10 10 6 11 3 9 9 9 6 2 7 6 7 5 6 3 5 5 5 4 4 4 5 5 3
29 28 26 26 25 25 20 20 20 18 19 16 13 13 10 13 12 9 10 8 7 7 3 4 5 7 5 2 8 7 3 7 7 3 4 5 5 5 5 5 4 5 5
30 30 29 28 26 25 24 20 15 11 11 8 12 10 11 12 11 9 7 7 1 3 7 1 2 3 7 0 1 5 3 4 7 8 6 6 3 5 4 3 3 3 3
31 31 28 28 27 26 25 22 20 17 17 17 14 15 14 12 9 8 7 5 3 5 2 2 3 4 3 4 0 3 2 5 6 5 10 8 4 3 5 5 3 1 3
31 31 31 28 27 26 26 25 20 20 17 13 12 9 9 6 8 8 6 5 3 4 4 2 2 3 2 4 2 3 4 3 2 3 5 4 5 2 0 5 4 7 5
32 32 30 31 29 28 25 25 22 21 21 14 14 12 10 11 9 9 9 8 5 3 4 4 3 4 4 2 5 1 5 3 0 3 4 6 6 6 4 5 6 5 7

GFSSE_925_spd_006.txt.gz
Wind_Speed
16 17 19 21 22 23 23 24 24 24 24 23 22 21 21 19 20 20 20 18 17 17 16 16 15 14 14 13 12 12 12 11 10 10 9 8 10 10 10 8 9 10 12
21 18 21 22 22 22 22 23 24 25 23 22 21 20 20 19 19 19 18 16 16 15 14 15 14 14 13 12 11 10 9 9 8 6 7 9 10 10 10 12 10 11 11
20 18 17 23 24 21 22 22 23 23 22 21 21 20 19 18 18 17 15 14 13 13 12 13 13 12 12 10 9 8 8 6 4 4 4 6 10 11 11 11 11 12 11
22 18 18 21 23 20 21 22 21 20 19 17 17 17 16 16 16 15 13 12 11 11 11 12 11 11 10 9 7 6 7 5 3 5 4 11 10 12 12 11 12 12 12
25 20 19 21 21 21 20 20 19 18 16 15 14 14 13 13 13 13 11 9 8 9 10 10 10 9 8 7 7 5 3 4 3 4 7 14 13 11 13 14 13 14 12
19 19 20 21 20 20 20 20 17 16 14 13 13 12 11 11 11 10 9 7 7 9 9 9 8 8 7 6 6 4 2 2 4 5 11 13 12 14 14 14 13 13 10
19 18 19 20 20 20 20 20 15 14 13 12 11 10 10 9 8 8 7 6 7 7 8 7 6 6 5 4 5 4 3 1 1 1 6 11 10 12 13 12 12 12 11
21 20 19 19 19 19 20 18 15 13 12 11 9 9 9 7 6 5 5 5 5 6 6 6 6 6 6 4 5 4 3 1 2 2 7 9 9 10 12 12 12 13 11
22 21 19 18 18 19 18 17 14 12 11 10 9 9 7 5 5 5 4 4 4 4 5 5 5 6 6 6 8 6 5 3 1 5 4 7 6 8 11 11 11 11 12
23 21 23 20 19 18 17 15 12 11 10 10 9 8 6 3 4 5 3 3 2 1 3 4 5 4 6 7 13 12 9 9 12 14 8 6 8 9 8 9 7 9 12
20 21 21 21 18 19 17 13 11 10 9 9 8 7 6 7 7 6 2 7 4 2 2 6 7 5 2 4 10 12 12 12 12 7 11 9 7 6 8 8 8 8 10
23 19 21 23 24 21 17 14 11 10 8 7 7 5 6 9 5 3 3 7 7 1 2 5 7 7 9 5 10 15 10 11 9 4 5 7 6 6 6 6 9 10 11
23 19 25 22 18 16 19 16 15 13 14 10 9 6 4 3 4 7 6 11 5 3 1 4 3 5 8 8 9 11 12 14 8 6 4 3 3 2 5 6 10 9 10
26 25 24 23 19 12 16 15 18 18 15 16 14 12 8 3 5 2 2 3 5 4 2 2 7 7 5 8 8 10 8 13 13 8 5 4 7 4 5 9 11 9 12
23 27 26 23 21 17 17 15 15 13 11 14 14 12 7 8 4 7 1 1 3 4 7 4 4 5 7 6 8 5 8 9 8 9 7 6 7 6 3 7 12 11 13
25 23 26 27 22 16 16 10 8 11 8 7 7 13 9 6 1 4 4 4 5 3 4 5 8 8 11 12 3 6 7 6 8 4 8 6 5 4 2 6 10 10 11
22 22 25 23 21 22 14 12 9 10 11 10 10 8 7 6 6 5 6 5 3 3 5 6 7 7 11 14 7 7 4 7 3 6 4 9 6 4 1 5 7 9 10
24 23 23 22 24 20 19 16 16 12 12 10 12 11 11 11 9 6 8 8 12 1 2 6 5 4 11 7 10 4 4 4 8 3 2 3 5 3 6 4 5 7 9
22 24 23 21 23 25 22 17 16 19 15 13 13 8 10 9 10 7 9 4 3 1 5 5 5 8 10 8 9 2 2 4 5 7 4 8 3 4 2 4 1 3 7
28 25 25 23 19 26 24 21 20 15 15 14 13 12 10 9 11 8 10 8 5 6 4 3 2 7 6 6 6 7 2 3 1 3 3 7 5 7 11 6 5 7 2
27 27 29 27 24 19 21 19 15 12 13 16 19 16 15 11 10 10 11 7 7 4 4 0 2 5 11 2 5 11 10 7 6 5 7 8 7 7 6 9 10 8 4
28 31 29 30 26 26 19 19 18 19 21 22 20 20 16 12 11 12 9 8 11 4 5 5 1 3 9 4 2 9 2 4 6 5 8 7 7 8 6 7 7 7 5
31 32 32 30 29 27 24 22 21 16 18 15 18 15 16 12 11 13 8 6 3 3 4 6 3 1 6 2 1 2 3 1 3 4 8 7 7 6 6 2 2 4 4
30 32 31 31 30 28 31 24 22 19 13 14 14 20 19 16 14 13 10 10 10 6 3 4 3 3 4 7 6 5 1 1 2 1 5 9 8 10 6 2 4 1 3
29 33 34 33 33 31 30 27 25 18 18 18 20 13 19 15 15 14 12 12 9 4 9 9 5 7 4 4 8 2 5 5 2 1 3 5 8 7 8 4 4 3 4
32 33 35 34 34 33 33 35 24 26 24 22 19 21 19 18 18 15 14 13 11 7 7 8 7 6 5 3 3 3 5 2 2 1 1 4 5 3 7 10 7 8 6

GFSSE_925_spd_009.txt.gz
Wind_Speed
16 18 21 23 24 24 25 26 26 26 24 24 23 23 22 22 22 20 20 20 19 17 15 15 13 13 12 12 11 12 11 13 14 14 12 11 11 12 12 12 13 13 14
21 20 24 25 25 26 26 26 25 25 23 23 21 21 21 21 19 19 18 18 17 15 15 13 12 13 10 9 8 9 9 11 10 11 11 10 10 12 10 13 14 14 14
22 23 24 23 23 25 26 26 25 24 23 23 22 20 19 18 18 17 16 16 15 14 13 12 11 11 9 8 6 6 7 7 7 6 8 8 12 12 13 16 14 15 14
25 22 25 23 24 24 24 25 24 23 22 23 21 19 17 16 16 16 15 14 13 12 10 10 9 9 8 7 5 5 6 4 4 4 7 10 12 11 13 15 14 15 15
23 24 25 24 24 23 23 23 22 21 19 18 18 16 15 14 14 14 13 12 11 10 8 8 8 7 6 5 5 5 3 2 5 6 10 12 13 12 13 13 15 15 15
28 24 25 25 24 23 23 21 20 18 17 15 14 13 12 12 12 12 11 10 9 8 7 7 6 6 5 5 6 5 3 5 7 9 13 12 11 16 13 12 13 14 13
25 27 26 24 24 23 22 19 18 16 15 14 12 11 10 10 10 9 9 8 7 6 6 6 6 7 7 7 7 5 3 4 6 12 9 10 12 14 14 12 10 11 13
23 27 24 23 23 24 22 18 17 15 14 13 11 10 9 9 8 7 7 6 5 5 5 6 7 8 9 9 9 8 9 11 14 22 8 6 12 12 12 10 10 8 10
26 25 24 23 22 22 21 18 16 14 14 13 11 10 8 6 6 4 4 4 4 6 6 5 6 8 9 13 12 10 10 9 14 10 11 7 6 11 11 10 8 9 9
24 23 24 23 23 23 21 18 15 14 13 12 11 10 6 4 3 4 1 2 5 5 6 5 4 4 7 8 9 10 10 8 6 8 6 12 8 11 10 10 7 7 8
26 25 23 24 23 22 21 17 15 13 13 12 11 9 7 4 5 3 0 3 5 4 5 7 5 4 7 9 10 12 10 6 6 7 9 11 10 11 10 9 7 6 8
27 30 25 25 25 22 21 19 15 14 13 12 11 9 7 4 5 2 1 3 2 3 4 5 4 6 11 11 12 11 11 14 3 6 11 9 8 10 10 11 9 10 10
31 28 29 28 27 26 21 19 15 15 13 13 9 7 4 5 8 4 7 8 7 3 5 3 2 4 4 7 7 7 8 10 8 6 8 8 5 5 8 14 15 10 13
28 33 32 28 27 26 26 20 18 18 17 16 15 11 9 5 6 4 2 2 3 1 4 2 2 3 5 6 7 6 4 6 7 5 1 2 2 5 11 13 12 13 13
27 36 32 31 27 25 25 21 19 19 21 20 21 15 9 5 5 1 5 6 4 3 3 2 2 4 5 5 8 3 7 3 2 3 2 3 1 2 13 14 16 10 15
34 36 36 32 30 25 23 21 20 21 18 19 19 19 14 12 4 6 4 1 2 5 3 2 5 3 6 8 8 2 7 4 3 4 1 1 3 1 8 13 14 15 12
38 39 35 34 32 25 25 17 15 10 11 11 11 10 16 13 9 8 5 1 2 3 3 2 2 5 4 9 4 6 4 6 3 8 6 2 6 2 4 8 10 10 12
35 41 39 34 32 28 25 20 18 12 7 10 6 11 13 11 9 7 3 5 8 8 4 1 2 1 5 6 5 3 3 2 7 4 4 4 5 1 4 5 7 8 8
37 40 37 35 36 32 27 22 19 18 12 10 12 7 15 13 10 10 7 5 5 5 3 2 1 0 6 6 4 6 5 5 6 7 9 5 5 3 4 5 3 3 6
36 39 40 35 34 30 27 24 20 19 16 14 13 11 14 14 12 12 10 7 6 7 4 2 3 3 2 6 3 4 4 3 7 5 7 10 12 14 12 7 1 5 5
34 37 37 32 29 33 32 29 24 22 17 21 16 15 15 16 15 15 12 8 8 6 6 5 2 3 3 4 2 4 5 3 7 8 13 10 10 7 10 7 8 7 5
37 39 39 37 28 35 34 30 25 22 19 20 18 19 21 20 16 14 11 9 9 11 10 10 3 3 3 4 1 1 2 1 5 8 7 8 10 8 8 5 7 8 5
36 40 42 41 38 29 29 26 23 22 21 20 21 21 23 25 19 14 12 10 7 8 14 10 7 4 1 0 2 4 2 2 2 10 12 10 6 4 5 4 4 7 6
36 42 42 42 42 36 30 29 28 23 22 24 22 25 23 25 19 17 15 14 12 9 13 10 10 7 4 1 3 4 4 3 2 1 8 12 8 7 7 6 7 4 4
40 42 44 44 43 39 36 31 29 28 29 22 26 25 29 25 21 18 17 15 17 13 10 13 12 9 8 4 2 7 6 6 3 3 2 4 10 10 7 8 7 6 6
37 40 41 41 41 38 40 36 33 32 29 30 25 20 27 28 22 21 19 19 20 17 15 16 12 13 11 8 5 4 4 2 3 2 3 2 5 12 14 10 10 7 8

GFSSE_925_spd_012.txt.gz
Wind_Speed
18 17 20 21 23 22 22 24 25 27 26 25 24 23 22 22 21 20 19 16 16 15 14 14 12 10 9 11 12 12 12 13 12 11 11 11 12 13 12 12 13 15 15
21 20 21 22 23 24 24 22 25 25 24 23 22 22 21 21 20 18 17 14 14 13 13 13 12 10 10 11 11 9 9 10 10 11 10 10 11 11 10 12 11 13 14
23 24 23 23 24 24 24 24 24 22 23 21 20 19 19 18 17 16 14 13 13 12 12 11 10 9 9 9 9 7 6 8 8 9 8 8 10 9 14 13 13 11 13
28 25 26 24 24 24 24 24 23 23 23 19 19 18 17 16 15 13 12 12 12 11 10 10 8 7 7 7 7 6 5 6 7 6 6 11 8 11 13 12 13 12 12
28 27 25 24 25 24 25 24 22 22 22 18 17 16 15 15 12 11 11 11 10 10 9 8 6 5 5 6 5 5 5 6 8 6 8 9 10 12 13 12 13 14 14
27 28 25 25 24 24 23 22 21 21 19 17 15 14 13 12 11 10 10 10 9 8 7 6 5 4 5 7 6 9 11 10 14 11 7 7 11 14 12 13 12 13 12
29 28 25 26 25 24 23 21 19 18 16 14 13 12 11 10 9 9 8 8 7 7 5 5 6 6 7 6 10 12 8 19 14 4 10 6 12 13 12 12 11 12 11
29 28 27 24 24 23 21 20 18 16 15 13 11 10 9 9 8 8 8 7 6 5 5 6 7 7 7 7 10 8 9 14 15 14 11 11 12 13 12 12 12 12 12
29 28 26 24 23 21 20 19 18 16 14 13 11 10 8 7 6 6 7 6 5 5 5 5 7 8 9 10 10 7 6 8 12 10 15 15 13 12 13 14 14 11 13
30 28 26 25 24 23 21 17 17 16 15 14 11 10 8 6 5 3 3 4 4 4 5 5 7 7 7 9 10 8 7 1 8 11 14 14 11 13 15 14 15 14 13
28 27 27 26 26 25 22 18 17 16 15 14 12 11 8 6 5 4 2 0 3 4 4 4 6 8 8 6 7 5 4 4 8 9 12 13 13 12 13 13 13 14 15
27 28 29 28 27 25 23 20 18 17 16 15 14 12 9 6 5 7 4 0 4 6 4 2 4 6 8 6 9 10 14 9 9 10 12 10 11 13 12 13 13 14 14
32 31 30 29 28 27 26 22 19 18 16 15 14 13 12 7 7 8 2 3 6 5 5 2 2 3 4 4 8 6 8 10 7 8 9 7 7 8 9 13 14 15 14
29 31 31 32 31 28 26 23 19 19 19 18 17 15 11 11 10 5 4 6 5 6 5 4 2 1 1 3 3 3 6 8 8 5 6 6 4 7 11 12 15 14 13
31 31 32 32 33 30 27 25 23 23 22 21 18 17 16 12 9 5 5 4 3 6 5 5 5 1 1 3 4 1 3 3 1 3 7 6 5 5 11 10 13 12 14
32 32 36 35 34 32 26 26 25 23 22 21 20 18 19 15 11 10 6 4 6 7 6 6 4 1 2 5 2 0 4 2 2 5 5 5 5 3 6 9 10 11 12
35 38 40 38 36 34 28 27 24 21 22 22 23 20 19 17 11 10 7 5 4 6 6 5 1 1 1 3 2 2 2 4 4 6 4 2 8 4 4 6 10 11 12
35 36 41 37 38 35 31 27 21 16 20 22 21 21 22 18 13 10 7 7 6 7 6 5 4 3 0 2 3 6 4 4 2 2 2 5 4 8 6 6 6 8 8
38 39 39 37 40 36 32 30 23 20 14 15 16 16 24 20 16 11 9 7 5 8 8 6 5 3 3 3 2 4 9 6 7 6 6 4 3 6 8 6 6 6 8
40 42 44 41 40 40 34 31 27 25 19 14 15 17 22 20 18 12 11 10 8 10 10 7 5 2 2 2 1 2 5 7 8 8 8 10 8 7 6 7 5 7 7
38 41 41 38 42 41 36 31 29 29 28 22 18 19 18 21 20 16 13 13 12 12 10 8 6 2 5 1 3 2 5 6 7 12 9 12 8 5 4 3 3 6 7
39 41 40 42 44 42 38 35 31 30 28 28 22 23 20 19 18 17 15 14 15 14 12 12 7 5 5 6 4 3 1 3 7 11 11 10 10 5 5 6 5 7 6
38 42 43 47 47 43 40 35 30 26 26 24 24 26 21 20 21 19 17 16 16 15 14 13 9 11 8 7 3 4 2 3 2 7 11 9 6 7 6 5 5 5 4
41 44 44 43 46 45 42 39 34 28 24 31 29 25 22 20 25 21 19 18 15 13 16 15 13 11 11 7 5 3 3 5 3 0 7 10 8 6 6 7 7 5 4
42 42 46 47 46 43 43 41 39 34 35 30 30 25 22 25 26 24 23 20 18 17 17 16 14 13 11 6 4 6 4 3 4 3 2 5 9 9 6 8 10 8 6
40 40 41 44 44 44 43 42 41 39 36 31 27 26 25 29 29 27 26 24 21 20 19 17 14 12 12 10 6 8 7 4 5 3 2 3 7 9 12 11 13 11 10

GFSSE_925_spd_015.txt.gz
Wind_Speed
22 21 21 22 22 23 22 26 26 28 27 26 24 23 21 20 18 17 16 15 14 13 12 12 13 13 11 11 11 12 12 12 10 9 9 11 12 13 12 11 11 12 12
23 22 20 21 21 22 23 23 24 24 24 24 22 21 20 18 16 15 14 14 13 12 11 11 13 13 10 11 10 11 11 10 11 9 7 8 11 12 11 11 10 11 12
22 21 22 21 21 22 22 21 23 22 22 22 21 19 17 15 14 13 13 12 12 10 10 10 11 10 10 9 10 10 10 7 8 8 8 8 8 10 9 11 10 10 12
24 22 22 22 22 22 21 21 22 21 20 19 19 17 16 14 12 12 10 10 9 8 8 9 8 8 8 9 9 9 9 7 5 4 11 9 9 12 11 12 11 12 12
25 24 22 23 23 22 20 21 21 19 19 18 17 15 14 12 12 10 9 8 7 7 7 8 7 7 9 10 9 9 7 7 10 9 8 8 10 10 11 12 13 12 12
27 25 22 22 21 21 20 20 20 19 17 16 15 14 13 11 10 9 8 7 7 6 7 7 7 7 11 11 9 7 6 7 11 14 10 8 12 12 12 12 12 13 12
27 25 23 23 22 22 20 19 19 17 16 14 13 12 11 10 8 8 7 6 7 7 6 6 7 9 11 9 10 5 1 4 12 11 11 9 14 12 14 13 13 13 13
29 25 24 23 23 23 19 18 17 15 13 12 11 10 10 8 7 6 5 6 6 5 5 7 8 12 11 9 8 6 6 7 10 10 10 11 12 13 13 13 14 13 13
28 26 25 23 22 21 20 18 16 15 13 11 9 9 8 7 6 5 4 5 5 5 5 7 9 12 12 10 6 5 4 4 6 6 11 11 12 11 11 11 13 14 13
29 28 26 25 23 23 21 19 16 15 13 11 10 9 7 6 5 4 2 3 3 4 6 7 7 8 8 8 5 2 3 1 6 4 10 11 10 11 11 12 11 12 13
27 30 28 28 26 24 22 19 17 16 15 13 11 10 8 7 6 4 2 1 3 3 5 6 7 10 7 6 5 3 1 4 8 4 11 11 11 11 11 11 11 11 12
25 30 30 30 28 26 23 20 19 18 17 16 14 12 9 6 5 5 3 1 3 5 5 4 4 5 6 6 7 7 5 3 6 8 8 8 9 10 11 12 11 11 11
31 30 31 30 29 28 26 22 20 20 18 17 15 13 11 7 5 7 2 3 4 4 6 4 2 2 6 3 6 2 6 4 6 9 7 5 6 10 9 12 11 12 11
27 32 32 31 30 29 27 24 22 21 19 18 17 16 14 11 8 6 6 6 6 6 5 4 1 2 0 2 1 2 5 6 4 4 6 6 4 5 9 10 13 13 13
28 30 34 33 31 30 28 25 23 22 21 20 19 17 15 12 12 9 6 6 6 5 5 5 3 4 1 1 1 4 2 2 3 4 7 7 5 5 9 10 13 11 13
30 33 35 34 33 32 31 28 25 23 22 21 21 19 17 13 12 11 9 7 6 5 6 3 2 3 1 2 7 2 3 4 1 5 6 7 6 5 4 7 12 12 11
32 34 35 35 35 34 32 29 26 24 23 22 22 19 19 18 15 12 10 8 7 6 5 5 3 2 1 3 4 1 1 2 1 2 5 5 7 4 3 5 9 11 9
33 33 37 36 36 35 34 30 26 25 23 22 23 22 22 20 16 14 12 9 7 7 8 7 5 3 2 0 2 1 4 3 0 1 3 2 2 5 3 2 4 7 8
34 37 37 37 37 37 35 30 27 24 23 24 25 26 27 23 19 13 11 9 7 8 9 6 4 3 2 1 3 2 7 4 5 5 3 2 2 6 4 3 3 3 5
36 38 38 39 39 38 35 32 28 24 20 17 20 21 23 26 21 17 13 11 8 7 8 7 6 5 3 2 4 8 6 6 7 4 4 5 5 5 2 3 3 4 4
32 35 40 37 38 39 35 34 33 29 27 21 19 18 19 24 22 20 16 14 12 11 10 9 7 5 5 2 5 5 5 5 7 7 6 5 3 3 2 0 1 4 4
38 39 39 42 40 42 39 38 31 35 31 29 22 18 20 22 23 22 19 16 15 14 14 12 11 5 6 4 2 4 2 2 6 8 9 6 2 3 3 3 2 3 3
35 39 43 46 44 45 40 39 34 32 33 30 29 24 22 23 25 24 21 17 16 17 17 15 13 8 10 5 4 3 2 3 1 4 9 9 4 2 3 3 4 3 3
41 43 43 42 43 46 44 37 36 29 25 29 32 30 25 24 25 24 22 19 18 19 18 17 15 10 9 8 5 3 3 4 3 0 5 8 7 6 5 3 3 2 2
40 41 43 43 43 45 46 41 39 29 32 29 31 29 25 24 24 26 25 22 21 19 17 17 16 13 13 12 11 6 4 3 4 3 2 4 8 7 7 8 8 7 6
36 37 40 42 44 44 48 47 42 35 33 31 30 31 29 26 26 28 28 25 23 22 19 19 17 14 13 13 12 11 9 4 5 4 2 3 5 7 12 10 11 12 10

GFSSE_925_spd_018.txt.gz
Wind_Speed
25 21 21 22 20 21 22 22 23 25 25 23 21 19 18 17 17 16 15 13 13 13 13 13 12 12 12 12 13 12 11 10 10 10 10 10 12 12 11 11 11 13 13
28 24 20 21 22 22 23 24 25 25 23 21 21 19 17 17 16 15 13 13 13 13 13 12 11 11 11 11 11 11 11 11 10 10 11 12 10 11 10 10 11 11 13
25 22 21 22 21 22 24 25 22 23 21 20 20 18 16 15 14 13 12 12 11 11 11 10 9 9 9 9 9 9 8 9 10 12 12 12 11 11 10 11 11 12 11
25 22 23 21 23 23 24 22 21 20 19 18 17 16 15 13 13 11 11 10 10 10 9 9 9 8 7 7 6 7 7 7 7 9 14 11 13 11 11 10 12 11 12
23 23 22 23 23 22 22 20 19 18 17 17 16 14 13 12 11 10 10 9 10 9 8 8 7 8 5 5 5 5 4 5 7 8 11 12 13 13 12 11 12 12 11
24 23 22 23 22 21 20 19 18 17 17 15 14 13 11 10 10 9 8 8 8 8 8 7 7 9 5 3 2 3 4 6 9 8 7 11 12 11 12 13 12 11 11
26 24 23 22 22 20 19 18 17 16 15 14 13 12 10 9 8 7 6 7 8 7 8 8 9 8 6 6 4 5 2 6 9 10 8 10 11 10 11 11 12 12 11
28 24 24 21 21 20 18 18 17 15 13 12 11 10 9 8 8 7 6 6 6 7 8 10 10 9 7 8 7 7 6 9 6 8 8 10 10 10 11 11 10 10 10
27 25 24 22 20 19 18 17 15 13 11 10 9 9 7 6 6 6 5 6 6 7 9 10 11 9 9 8 9 8 9 5 3 6 7 9 10 9 10 9 10 10 10
26 25 25 24 22 21 18 16 15 13 11 9 9 7 6 5 4 4 4 5 5 6 7 8 9 6 6 6 7 9 6 4 2 3 7 8 9 9 9 8 9 10 10
25 25 24 24 23 22 21 17 15 13 12 10 8 7 5 4 4 3 2 2 4 6 6 7 9 7 4 5 4 3 4 3 1 3 5 6 6 7 9 9 10 10 9
24 27 26 26 25 24 22 20 17 15 14 12 10 9 8 5 3 3 2 2 3 4 5 5 5 6 4 3 6 6 9 3 2 3 4 5 5 6 9 10 10 10 10
27 29 30 28 26 25 24 22 19 18 16 15 13 12 9 6 5 5 2 2 4 4 4 3 2 2 3 3 4 4 8 2 1 3 2 3 3 4 6 9 10 10 11
26 31 32 30 30 28 26 24 21 20 18 16 15 13 11 7 5 3 4 4 5 6 5 4 2 2 1 2 2 3 7 4 3 1 4 2 2 3 4 6 10 10 11
28 31 32 32 33 31 29 25 23 21 19 17 17 15 13 10 7 5 2 6 6 6 6 4 4 2 2 2 2 4 4 2 4 3 5 3 3 2 3 7 9 10 11
30 32 33 33 32 31 31 28 25 22 20 18 18 16 14 11 8 9 8 7 6 6 5 4 1 3 2 2 7 5 3 3 4 4 3 4 3 3 3 6 7 10 9
31 32 34 34 33 32 31 29 26 23 21 20 18 17 15 13 9 9 10 8 7 7 6 3 2 2 2 2 4 4 1 4 2 4 3 4 5 2 1 3 6 8 8
32 32 34 34 34 33 32 30 28 25 22 20 19 19 19 16 14 12 13 11 8 7 7 5 3 3 2 1 1 2 2 2 1 1 0 2 1 3 1 2 2 5 7
34 33 33 33 34 35 33 31 29 26 23 21 20 20 19 19 17 16 14 12 11 10 9 8 4 1 0 3 2 2 5 2 5 5 3 1 1 2 2 2 2 1 2
35 35 33 33 34 34 34 32 29 26 23 21 21 24 22 23 21 17 14 13 11 8 8 7 3 2 1 2 4 7 6 4 4 4 2 6 7 4 2 2 2 2 2
31 35 38 37 37 34 34 31 31 29 26 24 19 17 17 19 21 22 18 15 12 9 8 6 4 3 2 2 5 5 5 2 2 4 5 4 4 4 2 3 2 1 1
34 38 39 42 41 40 37 36 29 31 29 27 21 18 18 18 20 24 22 18 13 13 10 9 6 4 4 4 3 4 2 1 1 3 3 4 4 4 4 5 4 3 3
35 38 41 46 45 44 41 35 29 25 28 28 27 24 22 21 20 24 23 19 15 14 13 11 9 7 6 6 5 4 2 3 1 2 4 3 3 2 2 4 5 4 3
39 40 42 39 40 42 41 35 34 28 25 29 32 31 26 22 21 23 23 21 19 15 14 13 11 11 7 9 7 7 5 4 2 0 5 8 5 3 2 1 1 2 2
37 39 42 43 44 42 44 41 39 33 30 31 33 33 31 28 24 24 23 23 22 17 15 15 15 14 11 12 9 6 4 4 4 2 2 5 10 9 7 5 5 4 3
33 32 34 38 44 44 44 45 41 35 30 32 31 30 31 29 28 27 24 24 23 19 16 15 15 15 12 13 13 11 8 4 5 3 1 3 5 7 10 10 9 8 8

GFSSE_925_spd_021.txt.gz
Wind_Speed
17 28 25 26 26 24 23 21 20 19 21 20 17 16 15 14 13 13 13 12 11 9 11 9 10 10 9 9 10 10 9 8 8 9 10 12 12 11 11 12 13 11 12
22 25 25 25 22 24 23 22 20 21 21 19 17 16 15 13 13 13 12 11 10 10 10 9 8 8 7 8 10 10 9 8 7 8 10 11 12 10 10 11 13 12 13
24 22 21 22 23 22 23 22 22 21 19 18 17 15 13 13 13 12 11 10 10 10 8 8 7 5 6 7 6 6 8 8 7 7 9 9 9 11 11 11 11 11 13
23 21 21 22 23 23 24 23 20 18 18 17 15 14 12 12 11 10 10 10 10 8 8 8 5 5 4 5 4 4 4 6 8 6 6 7 8 10 10 11 12 13 12
22 20 21 21 23 23 23 21 19 18 17 16 14 13 12 11 10 10 10 10 8 7 7 6 6 5 5 3 2 3 3 5 7 7 5 8 8 9 10 12 11 12 11
22 21 23 22 22 22 22 19 18 17 16 14 13 12 11 10 9 9 9 8 8 8 6 6 6 7 5 4 5 3 4 5 7 6 6 6 7 10 10 10 12 11 11
23 21 23 23 22 22 20 18 17 16 14 13 12 11 10 10 8 8 7 8 8 8 7 8 9 9 9 9 7 5 4 7 7 6 6 7 6 11 10 10 11 11 11
24 23 22 23 21 22 19 17 16 15 13 12 11 9 9 9 8 7 7 7 7 7 9 10 9 9 10 10 10 10 7 8 5 5 6 7 7 9 9 9 10 10 10
22 23 22 21 19 19 18 17 15 14 12 10 9 8 7 7 7 6 6 6 6 8 10 9 9 9 9 10 11 10 9 5 5 5 5 6 8 8 9 8 7 8 9
21 22 21 21 20 18 16 16 14 12 10 8 8 7 6 5 4 4 4 4 6 8 8 7 7 7 8 8 9 10 7 5 5 4 5 5 7 6 7 7 8 8 6
21 21 21 21 20 18 16 15 12 10 9 7 5 5 5 3 2 1 1 3 5 5 7 7 7 6 6 7 8 7 7 2 4 4 4 5 5 6 5 7 7 8 7
24 23 22 21 20 19 16 14 12 10 8 7 6 5 3 3 3 1 1 1 4 5 6 5 4 4 4 4 4 8 8 1 3 4 4 6 4 4 6 6 9 7 7
25 23 23 22 20 19 17 15 12 11 9 9 8 6 5 3 3 3 1 1 2 3 2 2 1 2 2 1 2 6 8 6 5 3 2 4 3 2 3 7 7 8 8
25 24 23 22 20 19 16 15 14 13 11 10 9 10 8 5 3 2 3 4 3 3 2 2 1 4 2 3 2 4 4 4 4 3 1 3 2 1 1 4 9 8 8
25 25 24 23 21 19 18 15 15 13 12 10 10 11 10 6 5 3 2 1 2 4 4 4 5 3 3 3 1 4 3 3 2 2 2 2 2 1 1 3 7 7 9
24 25 24 23 22 20 19 18 16 13 12 11 11 11 12 8 7 5 5 4 3 4 5 5 3 5 6 5 4 3 2 5 4 3 3 2 2 1 2 4 5 8 8
25 24 24 23 23 22 21 20 17 15 13 12 12 14 13 11 9 6 6 7 6 7 6 3 1 4 5 3 2 1 2 4 4 4 2 1 1 1 2 2 5 8 7
24 25 24 23 23 22 21 19 18 15 14 13 13 14 15 13 10 9 8 8 7 7 4 4 3 3 3 3 2 1 2 2 3 3 2 2 2 3 3 4 3 5 7
25 25 25 24 23 23 21 20 19 16 16 14 13 14 16 15 14 13 12 9 9 7 5 5 2 2 2 2 2 3 4 5 5 5 4 3 2 4 3 2 4 3 2
26 24 24 24 24 23 21 20 17 17 17 15 15 15 16 16 17 14 14 12 9 7 6 4 2 1 1 2 4 6 5 5 4 5 5 7 9 4 3 2 3 0 1
27 26 26 26 27 25 25 23 21 20 18 17 17 20 18 20 20 19 14 14 10 8 6 5 3 3 2 3 4 5 4 4 3 5 5 5 7 6 5 4 2 3 2
31 30 29 29 29 30 26 25 21 21 19 19 18 19 18 18 17 16 18 14 12 8 9 7 6 4 2 4 3 3 2 3 3 3 3 4 5 6 6 6 6 5 5
32 33 33 34 33 30 27 23 18 14 14 16 18 17 18 17 16 16 18 17 14 11 9 8 8 7 3 4 4 1 2 3 2 3 3 2 3 4 5 6 6 5 5
35 33 34 33 33 30 30 26 27 24 22 23 21 20 18 20 19 18 18 19 18 11 10 9 10 9 6 7 5 3 2 1 3 3 5 4 3 2 2 2 4 4 4
33 33 33 33 34 33 34 33 30 28 25 20 21 21 25 23 23 21 20 19 18 15 13 11 11 11 9 6 7 5 3 3 3 3 2 6 7 6 5 4 4 3 3
32 31 30 31 34 34 34 35 33 30 27 22 21 20 21 22 22 25 23 21 18 17 16 12 11 11 11 8 8 8 7 4 5 5 4 3 7 6 7 8 6 6 6

GFSSE_925_spd_024.txt.gz
Wind_Speed
30 31 25 24 20 19 16 16 15 16 17 15 14 13 12 12 12 11 9 10 9 11 10 10 9 9 9 9 9 9 9 9 8 7 9 10 10 9 9 12 11 10 12
26 27 21 22 21 19 16 15 16 17 16 14 13 12 13 12 10 10 11 11 11 11 10 9 8 8 8 8 8 8 9 9 8 6 9 10 9 9 11 10 11 11 13
26 27 24 24 21 19 17 16 16 16 15 14 13 12 12 11 10 9 10 10 11 10 9 8 7 7 6 5 5 7 8 8 8 8 8 8 8 8 9 9 11 13 13
28 24 24 23 22 20 19 18 18 16 15 14 13 11 11 10 10 9 10 11 10 10 9 8 7 6 4 4 5 5 5 6 6 8 2 7 9 8 9 9 10 11 12
26 25 23 23 22 21 20 19 17 16 15 13 12 11 10 10 9 10 11 10 8 9 8 8 8 6 5 4 4 3 3 5 6 6 5 3 9 7 9 9 10 11 8
26 25 25 23 22 21 19 18 17 16 14 13 11 10 10 9 8 10 9 8 8 8 8 8 8 8 7 6 5 4 5 6 7 5 6 5 8 7 9 9 9 9 9
26 25 24 23 23 21 18 17 16 15 13 12 11 10 9 8 8 8 9 8 8 8 9 10 10 10 10 8 5 3 5 8 6 6 6 9 9 10 8 10 9 9 9
25 26 24 22 22 20 17 17 16 14 13 12 10 9 9 8 8 7 8 8 8 8 9 11 11 10 10 10 9 7 8 7 6 6 7 7 9 9 9 10 10 9 9
25 26 24 22 20 18 17 16 15 13 12 11 10 9 8 8 7 7 7 7 7 8 9 9 10 10 10 11 11 10 7 6 5 6 7 6 7 8 8 8 8 9 9
24 25 24 23 21 17 15 15 14 12 11 10 8 7 7 6 6 6 7 6 7 8 7 8 8 8 8 9 8 8 7 9 7 5 6 6 6 7 6 7 8 7 7
24 25 25 23 21 18 16 15 12 11 9 8 6 6 5 4 3 3 3 6 6 6 7 8 8 8 8 10 9 5 3 4 4 5 8 6 6 5 6 5 7 6 6
27 26 25 23 22 19 17 15 12 10 8 7 5 5 4 3 1 2 2 4 6 6 5 4 4 3 1 4 6 4 8 4 3 4 9 6 6 6 4 4 6 5 4
27 26 25 23 21 20 17 15 13 11 9 8 7 5 4 2 2 1 3 3 3 4 7 3 2 4 4 8 5 7 8 4 5 3 7 6 6 4 5 6 6 6 6
27 25 24 23 22 20 17 16 13 11 10 9 8 7 5 3 2 1 2 0 3 2 2 0 6 3 3 2 2 6 6 3 3 2 7 4 5 4 2 5 6 7 6
26 25 24 23 21 20 17 15 13 11 11 9 8 7 6 4 2 1 1 1 2 2 2 2 2 2 1 0 1 4 6 5 3 1 5 3 4 3 1 3 8 7 8
26 25 24 23 22 20 18 15 13 12 10 10 9 8 8 5 3 2 2 1 1 1 3 3 2 2 3 3 6 4 4 7 6 2 5 6 3 2 2 3 5 8 8
27 25 25 24 22 21 19 17 14 13 11 11 10 9 9 7 5 3 3 2 2 1 2 2 2 3 4 3 4 3 3 4 6 6 3 4 6 5 4 4 5 7 6
24 25 25 24 23 22 20 18 16 14 13 12 12 11 11 9 8 6 2 3 3 1 2 1 2 5 2 1 2 1 4 6 4 4 6 1 2 8 8 6 5 7 6
25 24 25 24 23 23 21 19 18 16 14 13 13 13 12 12 10 8 6 5 4 3 1 2 1 2 3 3 1 3 4 6 5 9 6 3 4 1 7 6 6 5 5
25 24 24 24 23 23 20 19 18 17 16 15 14 14 13 12 11 10 9 5 5 3 1 2 1 2 2 3 5 7 6 6 6 6 7 8 6 4 3 2 3 5 3
26 26 26 26 26 25 24 23 21 21 18 17 16 15 14 12 11 11 11 6 6 5 1 4 3 3 3 3 7 6 6 5 5 5 5 7 5 3 2 3 4 4 3
29 28 27 27 27 28 25 23 21 20 19 18 17 16 16 14 13 13 12 9 9 4 4 4 4 3 2 5 1 1 5 8 6 4 3 4 5 6 6 4 4 3 4
32 31 30 29 28 27 24 22 19 18 17 19 19 18 17 15 13 13 11 10 9 7 6 5 5 4 2 4 4 4 3 1 7 7 5 4 4 4 5 5 5 5 4
35 32 30 30 29 26 27 25 25 23 21 20 20 19 18 16 15 13 11 10 11 8 6 4 5 5 5 4 6 6 3 5 3 5 8 6 5 5 4 3 4 5 5
32 32 31 30 30 28 28 27 27 24 22 18 19 18 19 17 17 15 13 11 11 10 8 6 6 7 6 5 7 7 6 6 5 5 3 10 9 8 7 6 4 4 4
32 31 31 32 32 32 32 32 28 26 24 21 20 20 20 20 19 19 17 14 13 12 11 9 9 9 9 8 7 8 7 6 6 6 5 4 6 10 9 8 6 6 6

GFSSE_925_spd_027.txt.gz
Wind_Speed
26 18 15 12 14 15 17 16 17 15 14 14 13 12 12 13 13 13 14 12 12 11 12 12 11 11 11 11 11 10 9 9 10 10 10 10 8 8 8 6 7 11 12
29 19 15 11 16 15 15 16 16 15 13 13 12 12 14 12 13 14 13 12 12 11 11 11 10 9 10 9 9 9 9 8 8 8 10 10 10 8 7 10 15 15 12
31 20 15 16 15 14 14 16 16 14 13 12 12 13 12 13 13 13 12 12 11 11 11 9 8 8 7 7 7 9 8 7 8 9 9 7 8 8 8 10 13 13 12
28 21 21 19 17 15 15 16 14 13 13 12 12 12 11 12 12 12 11 10 11 10 10 8 7 6 5 5 6 6 6 6 9 5 4 5 10 9 7 8 11 12 12
26 25 23 20 16 16 15 15 14 13 12 11 12 10 11 11 11 11 10 10 10 9 9 8 7 6 5 5 5 5 5 6 7 6 10 11 13 8 9 9 11 10 8
26 26 23 20 18 17 16 15 13 13 12 11 11 11 11 10 10 10 9 9 9 9 9 9 9 8 7 6 5 5 6 7 3 6 10 10 13 11 10 9 10 8 8
26 24 23 21 21 19 16 15 13 12 12 11 10 10 10 9 9 9 9 9 9 10 10 10 10 11 10 7 5 4 7 6 6 7 8 10 11 10 10 8 9 9 10
25 26 22 21 20 18 16 14 13 12 12 11 10 9 9 8 8 8 9 9 9 11 11 11 10 10 11 12 9 7 6 4 7 7 12 12 12 10 9 10 9 9 9
27 28 24 22 18 17 15 14 13 12 11 10 8 8 9 8 8 8 8 9 9 9 9 9 9 9 10 10 11 8 7 8 7 9 7 12 10 9 9 9 9 10 9
26 26 25 22 19 17 14 14 12 11 10 9 8 8 8 9 10 10 10 7 7 7 7 7 7 7 8 11 9 6 8 10 11 5 11 11 10 10 7 8 8 9 8
23 26 26 24 20 19 16 14 12 11 9 8 6 7 7 8 5 9 6 6 7 7 8 7 4 3 4 5 9 3 2 5 7 13 8 9 8 8 7 7 7 7 8
21 28 27 24 22 20 18 15 12 10 8 8 7 6 4 8 3 7 6 6 6 6 4 6 2 4 4 4 2 6 4 3 11 16 12 9 8 6 5 6 6 6 7
27 28 25 25 22 20 19 15 13 11 11 7 4 5 1 3 3 2 8 6 7 8 9 5 2 3 6 9 6 11 5 7 6 17 13 10 7 7 7 6 7 7 7
27 26 26 24 22 20 16 16 14 12 9 9 8 5 1 1 3 2 5 4 2 4 5 4 3 4 5 2 5 7 4 9 4 15 13 9 7 6 5 7 6 7 8
27 25 26 25 22 20 15 16 13 11 10 9 7 7 6 5 3 2 1 1 2 2 4 4 3 3 1 1 4 5 4 3 6 12 11 9 7 6 6 8 9 9 8
26 26 25 25 23 20 18 14 13 12 10 9 9 8 7 4 4 4 4 5 4 4 3 4 2 3 3 7 5 4 7 6 2 3 12 10 8 6 6 8 11 10 10
27 26 25 24 23 22 20 16 15 14 12 12 9 8 8 6 4 3 1 2 6 1 1 2 4 3 1 5 3 2 2 5 6 2 9 11 9 8 8 10 10 12 11
27 27 26 26 25 23 21 19 17 14 14 12 11 10 10 8 5 4 1 1 3 1 2 1 3 4 1 3 4 3 4 6 5 4 3 2 11 8 9 8 8 9 7
27 27 27 25 25 24 22 19 18 16 14 13 12 11 12 10 8 6 3 0 3 2 1 0 2 5 4 3 2 4 3 5 3 8 4 3 4 10 9 9 7 7 7
28 27 27 27 24 25 23 21 19 18 16 14 14 13 13 12 11 9 8 5 4 4 2 1 3 4 3 1 7 7 6 5 2 8 7 7 4 7 6 6 7 4 5
30 29 28 27 25 25 25 24 22 21 18 17 15 14 14 14 12 11 6 5 5 3 3 4 5 3 4 3 9 9 6 6 3 3 5 7 3 3 4 4 6 6 5
31 30 28 28 26 27 26 23 21 19 19 18 16 16 16 15 13 12 9 8 7 5 6 6 5 5 4 6 7 7 4 7 7 6 4 5 3 5 5 1 6 4 10
33 31 31 30 28 29 25 23 19 18 16 18 18 18 18 17 15 14 11 10 9 8 8 8 6 6 7 6 7 6 2 3 11 7 4 4 2 4 3 4 5 3 3
35 33 31 31 31 30 29 25 25 23 22 20 19 19 19 19 16 15 14 12 13 11 12 8 8 8 5 8 7 7 4 7 3 2 8 6 3 3 3 3 5 5 3
34 34 33 32 31 30 31 27 27 24 22 20 19 19 20 20 18 17 16 14 14 12 10 10 8 8 7 8 8 8 5 5 4 2 5 8 8 7 5 3 3 6 4
34 34 33 32 32 32 32 35 26 28 24 21 22 20 19 20 19 20 19 17 16 15 11 10 11 10 10 8 7 7 9 9 10 8 5 12 8 11 8 7 6 6 6

GFSSE_925_spd_030.txt.gz
Wind_Speed
16 14 14 13 14 16 16 16 17 17 18 20 16 18 18 17 16 16 16 17 15 15 14 13 13 13 13 12 13 11 10 11 11 11 12 11 12 11 9 9 13 14 14
23 17 16 13 13 15 16 16 17 16 20 16 18 17 16 16 16 17 17 17 15 13 12 12 12 12 11 10 11 11 10 9 9 11 12 13 11 11 12 13 14 15 14
21 18 15 16 14 14 16 16 16 17 16 17 17 15 14 15 15 16 16 15 13 12 11 11 11 10 9 9 10 8 8 9 10 9 7 9 10 12 13 14 14 15 14
22 20 16 18 14 14 15 16 15 16 16 16 15 14 14 14 14 14 14 13 12 12 11 10 9 8 8 7 7 6 8 9 10 9 7 8 12 11 12 13 14 14 15
21 22 20 18 14 15 14 15 15 15 14 14 13 13 13 13 14 13 13 13 12 11 11 10 9 7 6 6 6 7 8 9 8 7 11 17 13 12 13 13 13 12 13
20 24 22 19 14 15 15 14 15 14 13 13 12 12 12 12 12 12 12 13 12 12 11 11 9 9 7 7 6 9 7 7 8 11 13 15 14 13 12 11 11 12 12
22 21 23 18 16 15 15 14 14 12 11 12 11 11 11 11 12 11 12 13 13 13 12 12 11 11 9 7 7 10 7 7 8 15 15 13 14 14 11 11 11 12 11
24 22 19 19 18 16 14 14 13 11 11 10 10 9 9 9 10 11 12 13 13 13 12 11 10 10 11 12 11 10 9 10 14 13 12 13 15 13 12 11 11 11 11
25 24 21 18 17 15 14 13 12 10 10 9 8 8 8 8 8 9 12 13 12 11 10 10 8 7 8 9 10 10 12 11 11 10 11 13 13 13 12 11 11 10 11
27 25 23 20 17 15 13 13 11 9 9 8 7 7 8 7 9 8 8 11 10 9 9 7 6 4 4 2 4 10 11 11 9 15 14 12 13 11 10 9 10 10 10
27 26 23 21 19 18 15 13 11 9 8 8 6 5 3 6 4 6 6 8 9 7 5 5 5 6 4 5 3 5 12 9 18 13 11 13 12 11 10 10 8 9 9
23 28 26 24 21 18 15 14 11 10 9 8 8 6 9 9 5 6 6 7 8 5 3 2 2 2 7 2 5 7 6 16 18 15 14 12 11 11 9 10 8 9 9
25 31 30 27 24 19 20 16 14 13 15 9 15 7 4 10 11 9 7 9 8 9 5 5 1 2 2 8 9 9 5 20 18 14 14 12 10 10 9 9 8 8 8
28 29 32 30 23 21 23 17 18 18 13 17 11 2 9 1 6 10 4 7 8 4 4 2 3 6 7 7 8 11 10 15 18 13 13 10 10 9 9 8 8 8 7
30 28 31 31 26 19 19 16 19 16 10 13 13 7 5 5 2 6 7 6 15 8 10 7 1 3 4 7 7 8 7 8 12 12 11 8 8 8 8 10 8 8 8
32 32 30 31 28 16 14 12 12 12 11 7 11 12 10 3 4 5 5 5 6 7 5 3 2 4 8 9 2 5 8 6 9 9 9 10 7 6 6 7 9 7 7
27 25 33 29 27 21 19 9 9 8 9 9 4 9 7 5 5 4 3 10 6 5 8 5 5 6 1 8 6 1 5 6 6 7 10 10 9 6 6 7 8 7 7
28 28 32 27 26 27 20 15 12 12 12 10 11 8 8 7 3 3 1 7 6 1 3 3 4 3 8 8 4 3 11 7 3 7 9 13 9 6 6 8 8 9 6
27 28 26 25 30 28 21 18 18 16 13 13 9 11 11 10 7 5 2 2 4 1 3 4 3 7 3 3 10 4 9 5 8 5 7 15 14 7 9 10 8 8 6
30 30 27 27 27 30 25 22 20 18 16 14 11 11 14 13 10 8 5 2 1 2 3 3 2 3 5 2 13 11 12 3 10 5 6 17 9 13 9 10 10 7 7
31 32 32 29 25 31 26 24 20 20 18 17 13 12 14 12 13 11 5 7 6 3 3 5 3 1 4 2 10 10 5 7 0 3 12 10 6 11 12 8 11 6 6
34 34 34 31 30 30 27 25 23 21 19 18 17 15 15 13 14 14 13 7 9 9 5 6 4 5 7 4 2 5 3 6 6 10 10 5 6 10 8 8 8 6 8
35 35 36 35 31 31 27 25 23 19 19 22 20 17 20 17 18 15 13 11 6 7 8 7 6 5 1 5 4 2 2 2 5 6 6 10 6 8 5 9 10 7 9
34 36 37 36 33 32 30 26 24 21 20 18 22 20 21 21 20 18 18 12 11 11 13 11 10 7 6 10 4 2 2 4 2 1 8 11 6 4 9 12 12 10 11
34 35 36 36 34 31 35 26 29 26 22 24 20 21 24 25 23 21 18 17 15 14 13 11 12 11 7 7 9 7 3 4 4 2 2 6 6 10 8 4 14 11 10
33 35 34 35 34 33 33 38 27 29 25 23 24 23 23 22 25 22 18 19 18 15 12 14 13 10 11 6 6 7 9 5 8 7 3 8 14 12 12 10 10 9 12

GFSSE_925_spd_033.txt.gz
Wind_Speed
18 19 18 19 19 19 19 21 19 21 19 22 23 21 20 19 20 19 18 17 16 16 16 14 15 14 14 14 13 12 13 13 14 14 15 15 16 14 14 15 15 16 17
25 22 19 20 19 20 19 20 20 19 20 21 19 20 20 20 19 18 17 16 15 15 14 13 13 12 12 13 12 13 13 12 14 15 15 15 15 14 13 12 16 17 17
29 24 21 20 21 19 20 19 19 18 19 20 18 19 19 19 18 17 15 15 14 13 13 12 12 11 11 11 12 13 14 14 12 13 12 11 15 16 16 16 15 16 17
32 24 22 20 22 19 19 18 17 18 17 18 19 17 19 16 15 15 14 14 13 12 12 11 10 9 9 10 12 13 12 12 12 10 10 14 14 15 16 16 16 16 16
28 22 22 20 21 20 19 17 18 16 16 17 16 16 16 15 14 13 13 12 13 12 11 10 9 8 8 9 11 14 10 10 12 9 20 14 15 15 15 15 15 15 15
27 23 23 20 19 19 17 17 17 16 16 16 15 15 14 13 12 12 12 12 12 12 12 12 11 9 9 11 13 13 11 9 13 19 16 15 19 15 15 14 14 14 14
24 26 23 20 20 18 17 16 16 15 15 15 14 14 13 13 12 11 12 12 12 12 12 12 11 9 8 12 12 12 11 11 14 17 13 17 17 14 14 14 14 14 14
29 28 24 21 20 17 17 15 15 15 14 13 13 11 11 12 12 12 11 11 10 11 11 11 11 10 9 8 9 11 11 15 17 15 16 17 16 16 14 13 14 13 14
29 28 24 22 19 16 16 14 14 14 13 12 11 10 9 9 11 12 12 11 9 10 10 10 9 8 8 8 9 9 12 16 12 12 16 15 15 15 14 13 12 12 13
28 26 26 23 20 18 16 13 13 13 12 12 11 10 8 5 8 11 10 9 9 9 10 9 7 7 6 5 7 9 12 13 13 13 14 15 14 14 13 13 12 11 12
29 27 24 22 19 17 16 14 13 12 12 12 11 8 9 5 4 7 7 7 8 8 8 8 5 5 5 2 4 8 8 10 15 12 12 15 13 14 13 12 13 11 11
31 29 26 22 22 18 15 15 13 12 14 12 11 6 8 8 7 7 6 7 7 6 5 5 7 4 3 5 3 5 7 12 11 8 11 14 14 14 12 11 12 12 11
33 31 29 25 24 20 18 16 14 13 13 14 10 3 7 8 7 5 6 8 4 6 4 3 1 4 5 7 8 3 11 12 10 8 11 13 13 13 12 10 10 11 11
33 34 34 29 27 27 20 16 15 14 15 16 15 6 12 5 9 7 9 9 6 6 7 2 5 3 3 4 10 12 18 19 14 9 11 11 11 11 11 11 10 10 10
31 35 40 34 30 29 25 17 15 16 18 17 17 10 7 6 6 9 10 8 11 8 5 2 5 3 3 5 15 17 21 22 16 9 12 10 9 9 10 10 9 9 8
31 34 40 37 34 28 26 18 17 15 19 25 20 12 10 7 7 7 11 7 5 6 7 4 4 4 7 6 11 11 17 14 13 11 13 10 8 7 9 10 10 9 9
34 30 43 40 36 29 23 16 14 6 13 20 17 18 13 10 5 7 7 10 7 3 3 5 3 3 7 6 4 5 8 14 10 15 11 10 8 7 8 9 10 8 9
32 34 44 39 37 31 27 16 13 10 11 7 17 19 14 13 9 8 9 10 9 4 6 5 2 2 3 7 6 9 8 11 12 15 12 12 10 7 8 9 10 9 9
32 42 40 36 39 32 29 23 17 15 12 11 20 17 12 16 14 10 8 7 7 6 7 5 3 3 4 10 6 12 10 7 11 15 14 11 10 8 8 9 9 10 8
39 46 42 39 37 34 30 24 20 20 15 12 10 18 13 12 15 12 8 9 7 9 7 6 4 4 9 6 11 16 10 4 9 14 16 15 11 9 9 9 9 8 6
39 43 42 40 39 36 31 27 23 25 20 17 15 14 17 16 15 14 10 9 6 7 7 5 7 4 8 9 9 9 7 7 3 6 17 13 15 10 10 8 8 7 7
37 42 43 37 41 38 35 33 29 26 23 20 18 13 17 19 17 16 12 8 9 8 8 9 7 3 5 6 4 3 2 1 8 16 17 13 14 14 11 8 8 8 7
36 41 43 42 39 40 35 33 29 24 23 23 23 19 23 20 18 15 15 13 9 14 10 10 9 8 6 7 4 4 2 3 3 7 8 11 18 15 13 12 10 8 6
38 42 43 43 39 39 38 34 31 27 22 24 29 24 24 22 19 17 17 14 14 14 12 10 10 9 7 8 7 6 4 4 3 1 8 9 10 9 12 12 12 12 10
36 38 41 43 41 39 39 36 34 28 28 23 27 27 26 25 23 20 21 17 17 15 13 11 13 13 9 5 8 12 7 6 4 4 2 7 10 10 14 16 13 14 14
38 37 37 40 40 42 42 38 36 32 31 23 24 30 27 29 28 25 22 22 19 18 17 15 14 13 13 9 10 8 12 7 10 4 2 6 13 12 16 15 17 17 17

GFSSE_925_spd_036.txt.gz
Wind_Speed
19 19 23 21 20 20 21 21 20 23 22 20 21 22 22 22 20 19 18 16 15 14 14 14 13 13 13 13 14 15 14 15 15 16 16 15 15 18 15 16 16 17 16
25 21 23 22 21 22 21 21 22 21 20 20 21 21 20 20 19 19 17 15 15 13 13 13 11 12 13 13 14 15 16 16 16 15 15 16 16 17 16 15 16 16 16
27 25 23 23 22 22 21 20 21 19 19 19 19 19 19 18 18 16 15 14 13 12 12 11 11 11 12 13 14 15 16 15 15 14 16 17 17 17 16 16 16 17 16
29 26 25 24 25 22 20 19 19 18 18 18 19 19 18 17 17 15 14 13 12 10 10 9 9 9 11 12 13 14 15 15 12 12 15 16 15 16 17 16 16 16 15
29 26 25 25 25 23 18 19 18 17 16 17 18 17 17 16 16 14 13 12 11 10 9 8 7 8 10 11 13 13 12 11 8 12 13 15 17 16 16 17 16 15 15
30 26 24 24 23 21 20 18 17 16 15 15 16 15 15 15 14 13 13 13 12 11 10 9 8 8 9 12 12 12 11 12 20 18 15 18 17 15 15 16 14 13 14
30 26 24 23 22 20 19 17 18 16 16 15 15 15 14 14 13 14 13 13 12 12 12 11 9 9 10 9 11 11 10 15 15 14 18 18 17 15 15 14 14 14 14
30 26 24 23 21 19 18 17 17 16 15 14 13 14 15 13 14 13 13 12 11 11 12 12 12 12 10 10 10 7 10 13 14 16 17 16 16 16 15 14 14 14 14
29 26 25 23 20 19 17 16 16 15 15 14 14 14 14 13 13 13 13 12 10 10 10 12 11 11 10 10 9 9 13 14 15 17 17 18 16 15 15 15 14 13 13
30 27 26 24 21 20 17 15 16 16 15 14 13 13 14 13 11 11 11 11 10 9 8 9 9 9 8 9 8 9 8 11 13 14 16 17 17 15 14 14 14 13 12
30 28 27 25 22 21 18 16 15 16 15 13 12 13 14 15 13 10 9 10 9 8 7 6 6 6 5 6 6 8 8 9 10 12 13 14 15 16 14 13 13 12 12
29 30 28 25 23 21 19 17 16 16 15 13 11 10 12 12 10 9 8 7 7 6 4 4 4 4 2 2 2 5 6 9 7 9 12 12 13 14 13 14 13 11 11
33 30 28 26 24 22 20 18 17 16 16 14 10 7 11 11 9 7 8 7 6 5 2 2 3 4 4 4 2 11 12 9 6 10 12 11 11 12 12 12 13 12 11
31 32 29 27 25 21 20 19 19 19 16 13 13 9 11 10 10 8 8 8 4 5 3 1 1 3 6 8 5 11 16 12 9 10 11 12 11 11 10 11 11 11 10
30 33 31 29 26 24 22 21 20 20 18 14 14 10 9 11 11 9 9 7 4 5 5 3 1 1 3 10 12 14 15 13 11 9 11 11 10 10 10 9 10 10 10
32 35 33 31 29 27 25 22 20 17 16 15 15 14 11 10 10 11 8 7 7 4 7 4 2 0 5 11 15 15 14 16 12 10 11 10 10 11 10 11 10 9 7
32 36 38 35 32 30 27 23 19 15 18 21 19 18 13 13 10 8 10 10 7 7 6 6 4 2 3 6 8 15 14 14 11 12 12 9 9 9 11 11 9 9 10
32 35 40 37 37 33 30 24 18 17 13 18 26 20 15 15 11 10 9 9 9 6 5 5 3 4 4 3 2 14 14 12 12 11 10 8 7 7 8 9 9 8 8
33 37 41 38 39 37 32 25 20 17 12 17 21 23 19 14 12 10 7 8 9 4 6 3 3 2 7 10 6 12 12 14 13 11 11 7 8 7 6 6 6 5 4
33 36 43 40 41 39 34 29 23 19 13 9 14 25 20 17 15 13 9 8 8 8 7 5 2 6 6 8 8 12 7 11 12 13 11 9 8 7 7 7 6 6 5
32 40 43 41 43 41 36 32 27 25 21 14 9 24 22 17 17 15 11 11 9 9 7 4 6 6 9 17 16 9 7 11 11 13 13 11 10 8 6 7 7 6 5
36 40 41 43 45 44 39 37 33 29 26 21 13 15 24 21 16 19 16 12 11 11 9 8 7 5 7 6 6 5 3 5 9 13 17 16 14 10 7 8 6 6 5
38 41 43 45 48 46 42 36 32 29 27 24 20 20 18 24 20 18 17 13 12 12 10 9 10 6 6 8 6 4 2 1 1 5 17 15 17 14 11 9 8 7 6
40 43 43 45 48 46 44 38 34 28 23 31 27 23 20 25 24 18 16 17 14 13 13 11 12 11 7 10 8 6 4 9 3 1 7 12 19 17 16 14 11 9 8
40 41 42 46 46 46 45 41 38 30 31 25 28 27 23 25 26 22 18 18 18 17 15 13 14 15 11 10 11 12 7 6 5 3 2 5 13 15 16 15 15 12 12
39 40 39 41 44 45 46 42 39 36 34 33 25 28 29 28 30 27 22 20 18 21 19 17 16 16 14 12 13 14 12 8 8 4 2 6 11 11 16 17 18 16 14

GFSSE_925_spd_039.txt.gz
Wind_Speed
18 23 22 21 22 22 21 22 22 21 20 20 19 19 18 18 18 17 16 14 14 13 13 13 13 13 12 13 13 13 14 14 13 12 12 13 15 14 16 16 16 16 15
26 24 23 22 22 21 21 23 22 20 20 20 19 18 18 18 17 16 15 15 13 13 11 11 12 12 13 13 14 15 14 14 13 13 12 12 14 15 15 15 15 15 15
29 25 23 23 22 21 21 21 21 20 20 19 19 18 18 17 16 16 15 14 12 11 11 11 11 12 12 13 14 16 16 14 12 14 15 15 12 14 15 15 15 14 15
30 26 25 24 22 20 21 20 19 18 18 18 18 17 15 16 16 15 14 13 11 10 9 11 11 10 11 12 13 13 14 12 13 14 16 16 15 14 14 15 14 15 15
29 27 25 24 22 20 20 19 18 17 18 17 15 15 15 15 15 14 13 12 11 9 8 9 10 9 9 11 12 11 10 10 11 13 15 16 17 15 14 15 14 15 14
30 28 25 23 20 20 20 18 17 16 17 15 15 14 15 14 14 14 13 12 11 10 9 10 11 10 11 11 11 10 8 11 12 12 14 15 16 14 15 13 13 13 14
29 26 24 22 20 20 18 18 17 15 16 16 14 14 13 14 14 13 13 13 12 12 11 12 12 12 12 11 10 10 13 14 12 14 15 15 15 14 13 13 13 13 14
30 26 24 21 20 19 17 18 16 15 15 15 14 14 13 13 14 12 12 12 12 11 12 14 13 12 11 10 9 7 11 11 13 15 15 15 13 13 13 13 13 12 13
28 26 24 21 19 18 16 17 16 15 14 13 13 13 13 14 13 12 11 12 11 12 11 13 13 11 11 10 10 12 9 11 12 14 14 15 13 14 12 13 13 12 12
26 25 25 22 20 19 17 15 15 14 13 13 13 12 12 12 12 11 10 11 11 11 12 11 11 12 10 9 10 11 9 9 11 13 14 14 13 13 13 12 12 11 11
25 25 25 22 21 19 17 15 14 13 12 13 12 11 12 12 12 9 8 8 10 10 9 8 9 8 8 8 7 8 8 9 10 11 12 12 11 11 11 11 11 10 10
23 27 26 23 22 20 18 17 16 14 14 14 12 11 12 10 9 8 7 6 7 7 7 7 6 4 3 4 6 7 7 8 8 10 11 12 10 9 10 10 10 10 9
29 26 27 24 22 21 20 18 17 15 14 13 11 10 10 8 7 8 7 5 4 5 6 6 5 4 2 1 5 9 9 8 7 9 10 10 11 9 10 10 10 10 9
29 30 29 26 24 22 19 19 18 16 15 13 9 12 10 9 8 8 7 6 3 4 4 4 5 5 4 2 3 14 11 8 6 9 11 10 9 9 9 10 10 9 9
29 31 31 28 25 23 20 19 19 17 15 11 10 10 11 9 9 8 7 6 4 4 2 3 4 5 6 6 7 12 14 9 7 8 10 10 9 10 9 9 9 8 8
31 33 32 29 27 24 23 22 20 18 15 12 11 10 9 10 9 7 7 6 3 3 5 1 1 5 8 6 11 11 12 9 6 7 9 9 8 7 8 8 8 8 7
33 35 34 31 28 26 25 24 21 18 15 14 12 12 11 10 8 6 7 6 5 3 4 2 2 5 7 6 9 9 9 9 7 7 7 7 8 8 7 8 7 7 7
33 34 35 33 31 28 27 24 21 18 16 17 18 14 16 14 11 8 8 8 6 4 4 2 1 2 6 6 8 10 10 10 8 7 6 6 6 5 7 7 7 7 7
35 35 36 35 33 31 29 25 20 17 18 15 17 20 18 16 12 10 8 8 8 5 5 4 2 2 6 3 5 9 12 9 9 8 6 4 3 3 4 5 6 6 6
35 36 37 37 35 34 31 26 20 16 13 13 16 20 20 16 14 11 7 7 7 6 6 5 2 2 5 6 5 9 8 10 10 8 7 5 4 3 3 6 6 6 4
33 38 39 39 39 36 34 29 26 23 19 14 12 17 22 19 16 13 9 8 6 5 5 5 5 4 6 8 13 9 6 7 11 10 8 7 5 4 4 4 4 5 4
33 38 40 42 41 40 38 34 33 29 24 18 11 10 21 19 18 15 13 11 8 6 7 5 7 6 10 9 6 4 2 3 5 9 11 10 8 7 5 5 4 3 3
33 38 41 44 42 45 41 36 30 30 25 22 17 14 17 21 19 18 16 13 12 10 8 7 7 6 8 5 8 4 2 1 1 1 8 11 12 11 8 6 5 3 4
36 36 41 43 42 45 42 40 34 29 27 29 26 19 17 18 22 20 18 15 13 11 10 8 10 8 8 9 5 3 3 5 3 1 6 12 15 15 12 11 8 7 7
36 35 40 43 41 41 44 41 39 32 31 30 28 24 18 19 22 23 20 17 17 14 12 10 10 11 9 11 9 6 4 5 5 3 2 5 13 17 16 17 13 10 10
37 36 37 40 43 42 44 43 41 36 33 30 26 27 22 21 23 25 23 20 18 16 14 13 12 13 11 9 10 9 10 5 8 4 2 6 10 12 17 18 19 16 14

GFSSE_925_spd_042.txt.gz
Wind_Speed
19 20 19 20 18 18 18 19 17 17 17 16 16 16 16 16 15 15 13 13 13 14 13 12 11 10 11 10 10 10 11 12 12 11 13 14 14 15 16 16 16 16 16
26 23 21 20 19 18 20 18 18 18 16 16 16 16 15 15 14 14 13 13 14 13 12 12 12 11 11 11 11 12 12 12 11 12 12 12 13 14 15 15 15 15 16
27 24 22 22 19 19 19 19 18 17 17 17 16 15 14 14 14 13 13 13 13 12 11 12 12 11 11 11 12 13 13 11 13 13 14 14 14 13 15 15 14 15 15
28 25 24 22 20 20 18 18 18 17 17 17 16 15 14 13 14 13 12 12 13 11 11 12 11 11 11 11 11 12 13 14 13 15 14 14 14 14 14 14 14 14 14
27 25 25 21 20 19 19 17 17 16 16 16 15 13 13 13 13 12 11 11 11 10 10 10 10 10 11 9 10 9 11 11 12 13 15 15 15 14 14 14 13 13 14
28 26 23 22 19 19 18 17 17 17 15 15 14 13 12 13 13 12 11 11 11 10 11 10 10 10 12 10 9 8 9 11 11 13 14 14 15 14 14 13 13 13 13
29 25 23 20 19 18 17 16 16 16 15 14 14 13 13 13 13 13 12 12 11 11 11 11 11 11 10 9 9 11 13 11 11 13 13 13 12 13 12 12 12 12 13
29 26 23 20 19 17 17 16 15 16 15 15 14 14 14 14 14 13 12 11 11 12 11 11 11 10 10 9 9 10 10 10 12 12 12 12 11 11 11 12 12 12 12
27 25 23 20 17 17 16 16 15 15 14 14 14 13 13 12 12 12 11 10 10 11 12 12 10 9 9 9 10 9 7 9 10 11 11 11 11 11 10 11 11 11 11
26 24 23 20 18 17 16 15 15 14 14 13 13 13 12 11 11 11 12 9 9 10 11 11 11 10 8 10 10 10 8 9 10 11 12 10 9 11 10 10 11 10 10
26 24 22 21 20 18 17 14 14 13 13 12 12 12 12 12 10 10 10 8 7 8 9 10 9 8 7 8 8 7 7 8 8 9 10 9 9 9 9 10 9 10 10
22 26 23 21 21 19 17 16 16 14 13 13 13 11 11 10 9 8 8 7 6 6 7 7 6 5 5 6 6 4 4 6 7 9 10 9 10 9 8 8 7 8 9
23 23 25 23 21 20 19 17 17 15 14 13 11 11 10 9 7 7 8 6 5 5 6 5 5 4 3 4 7 5 6 6 6 8 8 9 9 9 8 7 7 7 7
25 23 27 24 22 20 18 17 17 16 14 12 10 10 10 9 6 6 6 6 4 5 4 5 5 4 3 2 8 10 8 6 5 7 7 7 7 6 7 7 6 7 6
26 24 29 26 24 21 19 17 17 15 14 11 9 10 9 7 6 6 6 4 3 3 3 6 4 4 4 6 8 11 8 4 4 6 7 6 6 6 6 6 7 5 5
29 30 30 28 25 23 20 18 17 15 13 11 9 8 8 7 6 6 6 4 2 2 2 3 4 5 6 8 9 10 6 4 3 4 5 5 5 5 6 5 6 5 5
32 32 32 30 26 24 22 19 18 16 14 12 9 8 8 7 6 6 6 5 2 3 5 6 7 6 5 4 5 7 6 5 3 3 3 4 4 5 4 6 4 3 5
32 33 33 31 28 26 23 21 19 17 14 11 10 10 10 8 7 6 6 6 5 4 4 3 4 6 6 4 6 5 5 4 2 3 3 3 3 4 5 5 6 7 6
36 35 34 32 30 28 25 23 20 17 15 13 12 15 12 11 10 7 4 6 6 4 2 1 3 4 7 6 6 5 4 4 4 4 3 3 2 1 3 4 4 4 4
34 35 35 34 31 29 27 24 20 17 15 15 13 12 15 13 12 8 6 7 7 4 4 1 0 3 7 6 6 5 6 5 5 4 3 2 1 1 1 3 3 4 4
33 35 36 36 34 31 29 26 23 21 16 13 12 11 16 15 13 11 8 6 6 6 6 4 2 3 7 9 10 6 3 4 7 6 5 4 3 2 1 1 2 3 4
34 38 37 38 36 34 32 30 25 23 19 15 11 10 16 18 14 12 10 8 5 5 6 4 4 3 6 8 5 4 2 1 2 5 7 7 5 5 3 2 2 2 3
31 37 39 40 38 37 33 31 24 20 20 18 15 12 15 19 15 14 13 10 7 4 6 5 5 4 6 5 7 3 2 2 1 2 5 8 8 8 7 5 4 3 4
31 37 39 41 40 39 36 33 31 26 22 24 22 16 14 16 16 15 14 12 9 7 8 6 6 5 6 6 7 4 3 3 2 1 3 7 8 11 11 9 8 6 6
32 33 38 41 40 40 40 38 36 32 28 24 24 20 17 16 15 17 16 13 11 9 9 7 6 8 7 9 8 5 4 3 2 2 1 3 9 13 13 13 12 11 9
33 32 35 39 42 40 41 41 40 36 35 29 25 25 24 21 18 18 18 16 13 13 11 10 8 8 11 10 11 9 6 3 5 3 2 4 5 5 14 15 15 14 12

GFSSE_925_spd_045.txt.gz
Wind_Speed
18 16 17 15 17 16 15 15 15 16 16 16 16 14 13 13 14 13 11 11 11 12 11 11 10 11 10 10 11 11 11 12 10 13 13 14 14 15 15 16 16 15 16
23 18 20 17 16 17 16 15 15 14 14 15 14 14 13 14 14 11 11 11 10 10 11 10 10 11 10 11 11 11 12 11 11 12 12 13 14 14 14 15 15 15 16
23 19 18 18 17 17 16 15 16 14 14 15 14 14 14 13 13 13 12 11 10 10 11 11 11 11 10 11 12 11 10 11 11 13 14 12 12 13 14 14 16 15 16
24 20 18 18 18 17 17 16 16 15 15 15 14 14 14 13 13 12 12 11 10 10 10 11 11 11 11 11 11 11 11 11 12 13 10 11 12 12 14 14 15 15 16
22 20 19 19 19 17 17 15 16 16 16 15 15 14 13 13 13 12 12 11 10 9 10 10 10 11 10 10 10 10 10 10 12 11 10 11 11 13 14 14 14 15 14
22 20 19 19 17 17 17 15 15 16 15 14 14 13 14 13 13 13 12 11 10 10 9 10 9 10 9 8 7 7 10 10 12 11 11 11 12 13 14 14 14 14 14
25 21 19 19 16 16 15 16 15 14 14 14 14 14 14 13 13 13 13 12 11 10 10 10 10 10 9 7 10 11 10 10 9 10 11 10 12 13 13 13 13 14 13
25 22 20 19 17 16 15 15 14 15 14 14 15 15 15 14 13 13 13 13 12 11 10 10 9 10 10 9 11 11 11 12 11 10 10 11 12 11 12 13 13 13 12
23 22 20 18 16 16 15 15 14 14 15 15 14 15 14 13 12 11 12 12 12 11 10 9 10 11 10 9 10 10 10 12 10 10 9 9 11 11 11 12 12 11 12
22 20 19 18 17 14 14 15 14 13 14 15 14 13 13 13 11 11 12 11 10 10 10 11 10 10 12 11 10 10 10 12 9 9 9 8 11 10 9 10 10 11 10
21 20 18 17 16 15 14 13 14 13 13 13 13 13 12 11 10 10 9 8 7 8 9 8 9 9 9 10 9 10 10 8 8 8 8 8 9 9 9 9 9 8 9
23 21 19 18 17 16 14 13 12 12 11 11 10 11 11 11 10 8 7 7 6 9 7 7 6 6 6 7 7 6 7 7 6 7 7 8 8 7 7 8 8 8 7
24 21 19 18 17 16 14 14 12 11 10 10 12 12 11 10 8 7 5 5 4 5 5 4 5 4 3 4 5 5 6 6 5 6 5 7 6 6 6 6 6 6 5
23 22 20 18 17 15 14 14 13 11 10 9 10 11 10 7 7 6 4 4 4 4 4 4 4 4 4 3 5 5 6 5 5 5 5 5 4 4 5 5 5 5 5
24 22 21 19 18 16 15 13 13 11 10 9 9 9 9 7 6 5 5 4 3 3 4 4 3 5 7 6 8 8 6 5 5 4 4 4 3 2 4 4 4 4 3
24 23 22 20 19 17 15 16 13 11 9 8 7 8 8 6 6 6 4 3 2 2 2 3 4 7 9 9 9 8 6 5 5 4 3 2 3 3 3 2 2 3 3
26 23 23 22 19 20 17 17 14 12 10 8 7 7 5 4 4 2 2 2 2 5 6 6 5 6 8 8 8 7 6 5 4 4 3 2 0 1 2 3 2 1 2
24 24 22 22 21 20 17 18 14 12 10 9 7 6 5 4 3 3 3 3 4 6 6 6 4 4 6 6 7 7 6 5 3 3 2 2 1 1 1 3 4 4 3
25 24 23 23 21 21 20 17 16 14 12 9 8 7 7 6 4 4 4 4 5 4 4 5 4 4 4 6 5 6 5 3 3 2 1 1 1 2 1 2 2 3 2
26 24 24 23 21 21 18 17 14 14 13 11 10 10 10 9 7 6 4 5 6 4 5 4 4 6 5 6 6 5 3 2 2 2 1 0 2 2 1 0 0 2 3
26 25 25 25 24 21 19 18 15 15 12 11 10 8 11 11 8 7 6 5 6 5 4 5 5 6 6 8 7 5 2 1 3 3 2 1 0 1 1 1 1 1 2
29 29 26 26 26 27 21 20 14 15 12 9 8 9 10 13 11 9 8 6 7 6 8 5 4 5 4 6 3 3 3 3 2 3 4 4 3 2 2 1 1 1 1
31 30 28 28 28 29 24 19 18 13 13 11 9 9 10 15 14 11 9 8 6 5 7 5 4 4 5 4 6 1 2 1 2 3 3 5 5 4 4 3 2 3 3
33 31 31 30 29 30 30 22 23 20 17 16 14 11 10 14 16 14 12 10 7 8 6 6 5 5 6 6 4 2 1 1 1 1 3 4 5 6 6 5 4 5 5
33 32 30 31 33 31 30 29 27 22 20 15 15 15 14 15 16 15 14 12 10 7 8 8 6 8 6 6 4 3 2 2 1 2 1 1 4 8 8 8 8 8 7
33 31 32 33 35 36 33 33 32 27 23 19 18 17 16 14 16 16 14 14 11 8 9 7 8 7 8 6 6 5 4 2 2 3 3 3 3 4 6 9 10 10 9

GFSSE_925_spd_048.txt.gz
Wind_Speed
19 13 14 14 14 14 13 13 12 13 14 16 16 14 12 12 12 11 10 11 12 12 12 11 11 9 9 9 9 9 10 10 11 12 13 13 14 15 16 16 15 15 16
21 15 16 16 15 13 13 13 13 13 14 14 12 12 12 11 11 11 11 11 10 11 11 11 11 10 10 10 10 9 9 9 11 11 12 14 13 15 14 15 16 15 16
21 20 17 16 16 14 14 13 12 12 13 13 13 12 13 12 10 11 11 10 10 12 11 10 11 10 11 11 10 10 10 10 10 11 10 12 12 14 14 14 15 16 16
23 21 18 17 16 15 14 14 14 13 13 12 13 12 12 12 12 11 10 10 10 11 11 11 10 11 11 11 11 11 11 10 12 10 10 10 12 13 15 14 15 15 16
23 21 18 18 15 16 15 14 14 14 13 13 13 13 13 12 12 11 10 10 10 11 11 11 10 9 9 10 10 11 11 12 13 9 10 10 12 12 14 15 15 14 15
22 21 18 18 17 15 14 15 15 14 13 13 14 13 13 12 12 11 10 10 11 10 10 10 9 10 9 8 8 10 10 14 9 10 11 10 12 13 13 13 14 14 14
23 20 18 18 18 15 15 15 14 14 14 13 14 14 13 14 13 12 11 11 11 11 11 10 9 10 10 11 11 11 10 12 10 11 11 11 11 12 12 12 13 13 13
23 21 19 17 17 16 16 15 14 14 13 15 15 14 14 15 14 13 12 12 12 11 11 10 10 11 11 12 12 12 13 10 10 10 9 11 11 11 12 11 12 13 13
22 21 19 16 16 16 15 15 14 13 13 14 15 15 15 14 14 12 12 12 12 11 11 11 11 10 11 12 11 12 14 11 10 10 10 10 10 11 11 11 11 12 12
21 20 19 17 15 14 14 13 13 13 13 14 14 14 14 13 14 14 14 11 11 11 10 10 11 12 12 11 10 12 15 13 10 9 10 9 10 10 10 10 10 11 10
21 20 19 18 16 15 14 13 12 13 13 13 13 14 11 11 12 12 11 9 11 11 10 9 9 10 12 12 12 12 11 8 8 8 11 9 9 10 10 9 9 10 9
23 22 20 18 16 15 16 14 13 12 12 12 11 10 9 10 10 11 8 8 10 9 8 7 7 8 6 13 8 8 8 8 8 8 9 10 8 8 8 7 8 8 7
25 22 20 18 17 15 14 14 13 13 12 11 10 9 9 9 9 8 7 5 6 6 6 6 4 4 5 4 7 10 8 7 7 9 8 9 7 7 7 7 7 7 6
26 22 20 18 17 15 15 14 13 12 12 11 10 9 7 7 8 7 6 6 5 4 4 3 6 5 4 5 6 7 7 7 6 8 7 7 6 6 6 6 7 6 5
25 23 21 19 18 16 15 13 13 11 11 10 10 8 6 6 6 6 6 4 4 3 3 4 4 5 5 7 8 7 7 7 6 6 10 5 5 4 5 4 6 4 4
25 23 21 19 18 17 15 13 12 11 9 9 9 8 6 5 6 6 5 3 4 3 3 4 5 7 8 7 8 7 7 7 7 5 7 5 3 4 4 3 2 3 2
25 24 23 20 18 17 15 14 12 11 10 9 8 7 6 4 6 5 5 4 4 4 5 7 7 7 7 8 7 7 7 6 7 6 6 5 2 3 1 3 1 1 1
25 25 23 21 20 17 15 14 12 11 11 10 8 7 6 3 4 6 5 5 5 7 6 7 6 9 4 9 9 8 6 6 6 5 6 4 4 3 2 1 3 3 2
26 25 24 22 21 19 15 13 12 12 11 10 8 7 6 5 3 3 4 5 6 5 4 7 6 9 5 9 10 6 5 6 4 6 5 4 4 3 2 2 1 3 2
26 24 23 22 21 19 16 14 13 13 11 10 8 7 6 6 5 4 3 4 6 5 5 5 5 5 4 3 9 4 5 5 3 3 5 3 4 2 2 1 1 4 1
27 25 25 23 21 21 19 19 17 16 13 10 9 8 8 8 6 5 4 4 6 6 5 5 6 7 6 6 9 7 5 3 3 1 1 1 4 3 3 1 1 1 3
30 29 27 26 23 22 20 19 17 15 14 11 9 8 9 10 8 6 5 4 3 5 7 6 5 7 7 7 1 4 5 7 4 2 1 1 0 1 1 0 0 1 1
32 31 29 28 26 24 21 19 15 14 11 12 10 10 10 11 10 8 7 5 3 4 7 6 7 7 8 7 4 5 1 1 3 3 4 3 3 4 2 2 1 2 2
34 32 30 28 28 26 24 23 21 19 17 16 14 12 9 12 12 10 8 7 6 5 5 5 5 5 4 8 5 3 3 5 2 5 4 4 5 5 4 4 3 3 3
34 33 32 29 28 28 27 25 25 22 18 16 15 13 11 10 12 11 9 8 6 6 7 6 4 5 5 4 4 5 3 2 1 6 3 6 4 4 4 5 5 5 5
34 35 33 33 31 30 29 29 25 24 21 19 18 16 15 14 13 12 11 10 9 7 7 7 6 6 6 6 5 4 4 2 3 2 2 2 3 1 3 4 6 7 7

GFSSE_925_spd_051.txt.gz
Wind_Speed
16 18 15 13 13 13 12 14 13 12 14 14 12 12 11 12 11 11 11 11 11 11 11 11 10 9 9 10 10 11 11 11 12 13 14 14 14 15 14 12 15 15 16
22 17 15 15 14 13 13 12 13 13 13 13 11 11 11 11 10 11 10 9 11 11 12 11 11 11 11 10 10 10 9 10 11 12 14 14 13 15 16 16 16 16 16
21 19 17 16 14 13 12 12 12 12 11 11 10 11 10 10 10 10 10 10 11 11 11 12 11 12 11 12 10 10 10 10 10 11 11 15 12 14 14 15 16 16 15
24 22 18 17 15 14 13 12 12 12 11 11 11 11 10 10 10 10 11 10 11 11 11 12 13 13 12 11 11 10 11 13 12 10 8 12 13 13 15 15 15 15 17
24 23 19 18 16 14 13 13 13 12 12 12 11 11 11 10 10 9 9 10 11 10 11 12 11 11 10 11 10 10 13 13 9 11 11 12 14 12 13 13 15 15 16
24 22 19 16 16 15 14 13 12 13 12 12 11 12 10 10 10 10 9 10 10 10 11 10 10 10 9 9 10 10 14 12 11 12 13 12 14 13 14 15 16 16 16
26 21 18 17 15 14 14 14 14 13 13 12 13 12 12 11 11 11 10 11 10 10 11 10 10 9 10 10 10 11 13 12 12 13 13 13 12 14 14 15 15 15 14
25 23 18 17 14 14 14 13 13 13 13 13 13 12 12 13 13 12 12 11 10 10 10 11 10 11 12 13 12 15 11 7 14 15 14 13 12 13 14 14 14 14 14
24 23 19 16 14 14 13 13 13 13 14 14 14 13 13 13 12 13 13 12 9 9 10 10 10 11 11 12 14 14 13 14 11 12 15 12 12 13 14 14 13 13 13
24 21 19 17 15 14 11 13 12 13 14 14 14 13 13 12 13 14 15 11 9 9 9 10 10 13 13 12 16 19 17 13 12 16 16 12 12 12 12 12 13 12 12
23 22 21 19 16 16 13 12 13 13 14 14 13 14 16 12 12 12 10 9 9 10 10 8 9 12 13 17 16 11 4 3 20 16 12 11 11 11 11 12 11 11 11
23 23 21 21 16 15 17 12 13 13 12 13 13 6 6 10 11 11 8 9 10 10 10 6 6 8 10 6 9 7 7 7 17 16 12 11 10 10 10 9 9 9 9
23 22 20 19 17 19 18 13 15 14 14 12 9 6 9 8 9 11 7 7 6 1 6 5 2 6 13 6 7 8 10 7 15 15 11 11 10 9 9 8 9 8 7
23 21 23 18 20 12 16 18 15 16 12 10 10 7 6 9 6 8 1 6 4 2 3 5 8 7 9 9 11 7 6 9 10 13 11 9 10 8 8 7 8 7 6
23 23 19 19 17 15 13 13 13 12 12 13 9 8 6 5 6 6 3 3 3 4 3 4 6 5 4 7 9 8 9 8 11 11 10 8 8 8 7 7 6 5 6
24 24 21 19 15 13 10 9 11 10 9 10 11 8 4 3 5 5 3 2 2 6 6 5 7 3 4 6 8 7 6 10 8 11 10 9 7 7 6 5 4 4 4
24 23 23 20 18 15 10 10 11 8 10 9 10 8 6 3 4 2 4 2 1 5 6 6 6 4 5 11 7 7 7 10 9 6 5 9 8 7 6 5 4 4 3
23 23 23 22 20 18 13 13 11 12 10 12 9 9 7 5 5 5 5 4 5 6 8 4 10 3 0 11 9 11 8 10 6 5 5 4 8 7 8 4 4 4 3
26 25 23 21 21 20 15 14 11 10 11 10 12 11 9 7 5 5 6 6 4 5 4 4 10 8 3 12 15 7 7 7 6 9 6 2 4 6 8 6 1 3 3
26 25 24 22 21 20 18 14 13 13 10 10 10 11 8 7 5 3 7 6 5 4 5 1 4 11 3 6 8 8 7 6 3 5 4 7 5 3 10 1 3 6 2
27 26 26 24 22 21 19 18 16 16 13 11 11 6 7 6 6 4 5 5 4 6 2 5 4 2 3 7 8 7 5 4 5 3 1 4 5 5 1 2 6 6 5
31 29 27 26 23 23 20 19 16 15 14 11 10 10 9 8 7 6 5 7 4 6 5 3 3 7 6 4 6 7 2 0 7 2 1 2 1 2 4 4 1 2 3
33 31 30 27 26 25 21 19 15 15 11 12 12 10 11 10 9 6 7 1 4 3 8 6 5 7 1 3 5 5 2 1 3 5 5 4 3 4 1 2 2 3 3
34 33 30 30 27 27 24 23 21 18 17 15 13 14 14 12 11 9 8 6 5 4 6 7 6 6 3 8 4 4 1 5 1 1 6 3 3 4 4 5 5 5 4
36 35 33 31 29 28 28 23 24 21 19 17 15 14 9 12 12 11 10 9 7 7 6 4 4 7 6 5 10 7 4 5 4 2 5 10 6 3 4 3 3 3 5
37 36 35 34 32 30 30 30 24 25 20 18 17 15 14 14 14 13 11 10 9 6 6 8 6 7 7 5 3 3 8 4 9 4 1 3 3 4 2 4 5 5 5

GFSSE_925_spd_054.txt.gz
Wind_Speed
17 15 14 11 11 12 12 12 12 13 13 13 12 13 14 13 12 13 13 13 13 12 12 11 11 11 11 12 13 14 15 15 15 17 17 17 16 16 14 17 19 17 18
22 18 14 14 13 13 13 13 13 14 14 12 11 12 12 12 13 12 12 12 12 12 12 12 12 12 11 11 11 12 14 14 13 15 17 16 16 17 18 17 19 18 18
24 18 15 14 13 14 13 14 14 14 12 11 12 11 11 12 12 12 12 12 12 12 13 11 13 12 12 11 11 12 13 13 13 14 16 14 14 16 18 19 18 18 17
24 20 16 16 13 13 13 13 13 12 11 11 13 11 11 11 11 12 11 12 12 13 13 13 13 13 11 12 12 12 14 14 13 9 10 18 15 16 17 17 18 17 17
25 25 19 17 15 14 14 13 13 12 11 11 12 11 11 10 11 10 10 12 12 12 12 11 11 11 11 11 13 15 14 12 11 18 19 19 16 15 16 16 17 17 17
29 23 20 17 15 13 14 13 13 13 13 12 12 11 11 10 11 10 11 11 12 11 12 11 10 9 10 11 15 17 15 12 14 17 19 16 16 17 17 16 17 17 17
27 24 19 18 16 14 14 13 13 14 13 12 13 11 11 11 11 11 12 11 12 13 12 10 10 10 9 11 16 15 15 13 16 18 18 16 17 17 16 17 16 16 15
28 25 19 17 16 15 14 14 13 13 13 14 14 13 12 13 12 13 12 12 11 11 11 11 11 12 11 12 15 14 16 18 17 21 17 16 16 16 16 15 15 15 14
29 24 19 16 15 15 13 13 14 14 14 14 14 14 14 13 13 12 12 12 11 10 11 11 12 11 12 12 15 15 15 11 15 18 16 16 15 16 15 14 13 13 13
28 22 22 17 15 14 13 13 13 14 14 15 14 13 15 15 14 13 14 12 11 10 11 11 11 11 14 15 15 13 12 14 19 17 16 17 15 14 14 13 14 12 11
27 25 21 20 17 17 14 13 14 15 15 14 12 14 16 12 13 10 10 12 11 11 13 12 10 7 6 7 10 7 6 14 20 18 18 15 15 14 13 12 11 11 11
25 27 26 25 22 21 18 15 14 15 14 13 12 10 10 12 11 9 9 10 7 8 11 15 15 11 2 6 5 0 8 23 19 16 17 15 13 12 11 10 9 9 9
26 24 27 30 21 17 19 18 17 18 15 12 8 9 9 11 8 9 6 6 3 5 8 4 9 14 17 4 5 4 11 22 22 19 16 14 12 11 10 9 9 7 6
26 26 27 24 19 17 16 18 12 18 21 14 10 5 5 9 5 7 3 10 2 3 11 8 16 15 16 3 6 12 11 23 16 16 15 13 11 10 10 9 8 7 7
25 25 28 27 21 22 14 15 18 17 18 17 13 7 12 4 5 4 4 4 6 10 4 8 9 8 17 10 10 10 17 16 16 12 13 10 11 10 9 8 7 7 6
26 28 24 26 27 19 13 2 13 10 16 12 11 11 7 8 5 4 4 4 4 6 8 7 7 2 9 15 9 12 10 11 11 10 12 11 8 8 8 8 6 6 6
24 24 24 20 13 12 11 9 9 6 7 13 15 8 5 5 4 2 4 8 5 4 7 6 4 6 14 10 13 6 12 12 11 9 8 7 9 7 6 6 6 6 5
25 26 24 20 21 15 11 6 9 16 7 14 10 9 5 5 5 4 4 6 7 8 7 6 6 4 10 12 12 11 15 10 8 11 8 8 6 6 6 5 4 4 4
24 29 25 19 21 18 13 14 14 8 8 10 12 10 9 4 4 2 2 5 7 3 7 7 4 4 6 9 12 11 10 10 10 9 6 10 8 4 5 4 4 2 2
25 26 26 20 22 21 19 14 10 8 7 11 12 11 11 7 10 5 3 4 7 9 5 5 7 2 5 6 10 10 7 9 10 3 8 11 6 9 10 2 3 4 2
28 25 24 22 26 24 20 15 14 15 9 14 14 11 9 9 8 5 8 5 5 3 6 4 3 1 4 6 10 7 4 6 8 9 8 10 5 12 10 3 1 3 3
31 30 25 24 29 26 21 20 16 19 18 16 16 15 9 7 8 8 6 8 6 11 7 4 4 4 6 3 5 1 2 2 9 6 5 2 6 5 10 7 4 3 4
32 33 30 26 28 27 20 21 16 13 13 17 19 14 12 10 6 5 6 8 7 4 6 7 3 2 4 7 2 3 3 1 6 7 3 8 4 4 6 1 7 4 4
33 34 33 29 28 30 25 22 18 14 13 18 20 16 19 14 11 9 7 6 7 4 9 5 5 1 2 3 4 4 4 2 1 2 9 9 4 6 5 6 10 8 6
36 36 36 34 28 29 31 24 24 19 17 13 15 21 22 17 14 13 11 8 5 8 7 7 6 8 6 2 6 8 7 7 5 4 2 5 7 7 6 3 3 9 7
34 37 36 37 34 30 36 28 27 26 18 15 17 23 20 20 17 12 12 11 9 5 10 8 7 6 5 1 2 1 2 3 4 6 4 8 11 9 7 6 7 5 9

GFSSE_925_spd_057.txt.gz
Wind_Speed
18 18 15 14 12 12 13 13 14 14 16 16 17 17 15 16 17 17 16 15 15 15 13 12 12 13 14 15 16 17 18 18 19 20 21 19 18 19 20 20 20 21 20
25 21 16 14 13 14 13 15 16 15 15 15 16 15 14 15 14 15 15 15 15 14 14 14 13 13 13 13 15 16 17 18 19 19 19 19 19 21 18 20 20 20 20
25 22 18 15 15 14 14 15 16 15 15 15 14 13 14 14 14 14 15 14 15 14 15 15 14 14 14 14 14 15 17 17 16 17 18 19 19 19 19 19 19 20 19
27 21 20 17 16 15 15 14 14 14 13 14 13 14 13 13 14 14 14 14 15 15 15 15 14 13 14 14 16 17 16 14 14 11 19 19 17 17 18 19 18 19 18
23 22 21 18 16 15 15 14 14 14 13 14 13 13 13 13 13 13 14 14 14 14 14 13 13 13 13 15 19 17 15 17 18 22 19 18 18 16 18 18 17 17 17
28 22 21 19 17 16 16 14 14 14 14 14 13 13 13 13 12 13 13 14 13 13 13 12 11 12 13 17 17 15 16 15 20 20 17 17 19 17 18 16 16 16 16
31 26 22 19 17 17 16 15 15 15 14 14 13 14 14 12 13 13 14 13 13 12 11 11 11 12 16 17 16 17 20 18 19 18 19 20 18 17 17 16 15 15 16
30 27 23 20 17 17 16 15 15 14 15 14 15 14 13 13 14 14 14 13 13 12 11 12 13 14 17 17 18 20 16 17 18 19 19 19 18 16 15 15 15 14 14
31 29 23 21 18 17 17 15 15 14 15 15 16 15 14 14 14 13 13 12 12 12 11 12 12 14 15 13 11 12 13 15 16 19 18 18 17 14 14 13 13 14 14
29 27 25 22 19 18 18 16 15 15 15 15 16 14 15 15 14 13 14 12 12 12 13 12 11 10 11 11 11 10 11 21 19 17 19 18 15 14 13 13 12 13 12
28 29 23 22 19 18 19 16 16 15 15 14 15 16 16 15 14 11 14 13 11 10 12 12 11 9 11 12 11 7 17 15 12 18 19 17 14 13 12 12 12 12 11
31 31 29 24 22 18 17 18 18 16 15 16 15 14 7 12 11 12 13 12 14 11 11 10 10 7 7 6 5 5 7 11 14 18 19 16 14 13 12 10 11 10 10
35 33 34 28 23 23 20 19 17 18 15 12 11 9 12 11 13 12 11 11 14 12 10 9 6 7 8 9 10 8 14 15 16 17 17 15 13 12 11 10 10 9 8
33 32 36 31 28 22 21 21 19 17 15 14 11 10 8 11 13 8 10 12 8 9 7 11 14 12 13 14 18 20 21 15 15 16 15 12 12 12 11 9 8 7 7
37 39 34 33 27 23 19 18 17 19 18 15 13 11 12 8 9 9 12 8 8 7 6 9 6 4 5 11 7 18 16 14 12 13 12 10 10 10 10 9 8 7 6
36 38 36 33 28 25 14 17 16 18 16 21 13 10 8 9 7 7 11 8 8 3 9 9 13 8 8 9 18 17 14 13 13 12 11 10 9 8 8 7 7 7 6
37 40 33 29 26 19 10 16 12 15 20 18 16 10 9 8 6 10 6 7 11 10 7 7 7 17 9 10 17 12 13 12 9 8 11 10 10 8 6 6 6 6 5
40 37 31 26 28 19 17 16 17 23 15 24 17 13 11 10 8 10 8 6 9 9 9 7 8 19 16 14 12 15 14 11 11 9 9 8 9 8 7 6 6 5 4
41 38 30 27 29 21 16 15 16 11 17 16 14 15 11 7 9 9 11 10 10 8 6 5 4 7 11 14 13 14 12 12 11 11 9 9 7 6 6 6 5 5 4
45 38 35 31 27 23 17 17 15 11 13 13 13 12 9 8 8 12 13 10 6 12 6 5 5 5 10 9 10 9 12 10 14 13 11 11 11 8 8 6 6 4 3
43 38 32 35 28 23 21 19 13 18 15 15 16 15 9 8 6 3 9 12 8 11 11 5 7 3 5 6 8 10 10 11 9 13 12 13 13 11 9 7 5 4 3
38 38 33 32 33 28 25 24 17 19 18 15 16 13 13 12 8 8 10 13 7 11 8 7 3 5 5 7 4 2 1 3 10 5 12 13 11 13 10 8 4 3 3
36 40 37 35 37 32 27 25 17 20 18 20 19 18 16 15 10 10 8 9 10 10 9 7 5 3 2 8 6 3 2 2 1 4 9 8 5 14 11 8 5 3 6
37 42 39 34 39 34 29 30 23 17 18 21 24 20 20 16 12 10 11 10 9 9 8 9 6 2 3 5 7 4 3 3 2 2 3 8 9 6 12 12 9 8 5
37 39 42 37 39 38 32 30 26 19 15 24 23 27 22 18 15 12 13 10 11 6 10 7 4 6 2 2 6 7 5 2 5 1 2 8 9 10 11 8 8 12 8
37 37 41 41 41 39 37 31 29 24 20 16 27 23 22 22 19 16 14 12 11 10 9 8 6 4 5 2 2 5 5 1 1 2 2 7 9 11 15 9 9 7 7

GFSSE_925_spd_060.txt.gz
Wind_Speed
23 21 20 18 16 16 16 15 16 17 17 17 17 17 18 17 17 16 14 14 13 12 12 13 14 14 15 16 17 17 18 19 21 20 19 20 19 18 19 18 19 20 20
30 23 21 19 16 16 16 16 16 16 16 16 16 17 16 15 15 14 14 14 12 13 13 13 13 14 15 15 16 16 19 20 19 19 19 20 18 18 18 18 19 19 19
30 24 22 20 18 16 17 18 16 15 15 15 14 16 14 14 15 14 13 14 14 14 14 15 14 13 14 15 15 16 17 17 17 18 20 20 18 17 17 18 18 17 17
30 25 23 20 19 17 17 17 16 15 15 15 14 14 14 14 13 13 14 14 14 15 15 14 15 14 14 15 16 16 15 16 16 18 20 19 16 16 17 17 16 17 17
28 25 22 20 19 18 18 16 15 14 15 14 15 14 13 13 13 13 14 14 13 13 14 14 14 14 14 15 16 14 17 14 17 17 17 18 19 16 16 16 16 16 16
28 24 22 20 18 17 16 16 15 14 15 14 14 13 13 13 13 13 14 13 13 12 12 12 14 15 17 17 16 16 18 21 17 16 17 17 18 15 14 15 16 15 15
28 25 22 20 18 18 17 16 16 15 14 14 14 13 12 13 13 13 13 12 11 11 11 12 13 15 16 16 16 17 16 16 15 17 18 17 16 15 14 14 14 15 14
30 26 22 19 19 17 16 17 17 15 14 14 14 13 12 14 13 13 12 11 10 11 12 13 13 15 16 15 17 16 14 14 16 16 17 17 14 14 14 13 14 13 13
30 27 23 21 18 17 17 17 16 16 15 14 14 13 14 14 13 12 11 10 9 10 12 13 14 15 15 16 15 13 11 12 15 16 17 17 14 14 13 12 12 13 12
31 28 25 22 21 19 17 17 17 16 15 14 13 13 13 13 13 13 13 11 9 9 9 10 14 15 15 15 14 12 11 12 14 15 17 15 13 12 12 12 11 11 11
27 28 26 23 22 20 18 18 18 16 15 14 13 14 15 15 14 13 12 10 11 11 11 10 14 16 14 12 11 13 13 11 11 15 15 14 13 12 12 11 10 10 9
28 27 25 23 21 21 19 19 20 18 17 18 17 14 14 13 12 14 13 9 10 11 12 13 12 12 12 9 11 15 9 9 12 14 14 13 12 10 10 10 9 8 9
34 30 27 24 22 21 21 21 21 20 19 17 15 12 11 12 12 14 13 11 11 9 9 9 10 12 12 11 11 14 9 10 12 14 13 12 10 10 8 8 7 6 7
31 31 30 25 23 21 22 23 24 24 19 16 14 11 10 11 14 10 12 9 7 5 7 10 10 11 10 13 14 13 13 11 12 13 12 10 9 9 9 8 7 5 6
28 30 31 29 25 22 24 23 21 20 17 15 16 13 14 11 11 6 11 7 7 8 6 6 9 11 13 15 19 14 13 12 12 12 11 9 9 9 8 7 6 6 5
31 36 33 31 25 22 24 22 20 16 15 16 18 16 14 9 13 7 12 7 9 6 6 7 6 6 8 12 16 14 12 12 13 12 10 10 8 7 7 6 6 6 5
35 37 35 34 28 24 20 19 18 19 18 16 17 16 12 11 12 8 10 8 10 6 9 9 7 10 11 15 16 16 11 11 11 9 9 9 8 6 6 6 5 5 5
35 41 38 34 31 23 18 19 18 17 22 21 18 16 16 13 9 10 10 9 11 11 11 8 8 11 7 15 14 14 11 9 9 7 7 7 7 6 5 5 5 5 5
44 40 38 35 28 22 16 15 17 17 22 23 17 14 14 13 11 10 8 12 11 9 10 9 8 13 13 12 11 13 13 11 10 8 8 6 8 6 5 6 5 5 5
42 42 39 37 29 23 17 14 16 19 20 22 18 15 13 11 14 11 13 12 9 8 10 10 9 9 14 12 11 13 12 12 14 10 10 9 7 8 7 6 7 6 3
42 39 38 39 31 28 23 20 19 21 20 18 18 15 12 11 12 17 14 11 7 12 8 7 6 4 8 10 9 8 10 14 14 14 13 13 11 10 10 8 8 6 5
38 41 39 37 37 31 27 23 18 19 16 19 18 15 13 12 10 13 16 13 11 11 9 8 6 4 8 9 6 4 1 3 11 15 17 17 16 12 13 11 9 8 7
35 40 42 39 37 32 28 24 17 17 19 18 20 18 16 15 12 12 15 13 9 14 11 9 6 8 10 7 5 2 2 3 2 2 8 18 16 16 14 11 10 6 6
35 41 43 41 37 32 29 27 24 21 19 22 23 20 18 17 14 13 11 13 13 12 12 10 7 5 7 6 5 3 0 3 2 2 3 10 9 13 14 14 12 10 8
38 38 43 41 39 34 31 31 29 21 24 22 23 23 21 19 17 13 13 14 15 12 11 11 8 6 6 3 4 3 2 2 2 2 2 4 10 12 13 15 14 13 12
36 36 40 42 41 38 35 32 34 29 21 22 27 28 24 23 21 16 15 15 15 11 14 11 9 8 6 4 3 5 3 0 1 1 2 6 6 6 14 16 14 12 11

GFSSE_925_spd_063.txt.gz
Wind_Speed
21 19 16 15 16 17 17 17 16 16 16 16 16 16 15 14 13 13 13 12 11 12 12 13 13 14 15 16 17 17 17 17 17 18 18 18 18 17 16 18 18 18 17
28 22 18 16 15 17 17 17 16 16 16 15 15 14 13 13 13 13 13 12 12 12 11 12 13 13 15 15 15 16 16 17 18 18 18 17 17 17 17 17 17 17 16
28 24 20 17 16 17 17 17 15 15 14 14 14 13 13 13 12 12 12 13 12 12 13 12 12 13 14 14 15 15 16 16 17 17 18 17 17 16 17 17 16 16 15
28 24 22 18 17 17 17 15 14 14 13 13 13 12 12 12 11 11 11 12 12 11 11 12 12 12 13 13 13 14 16 16 16 18 19 17 17 16 15 16 16 15 16
28 24 21 19 16 16 16 15 13 13 13 13 12 12 11 11 10 12 11 11 10 11 11 12 12 13 13 13 13 12 14 13 16 16 16 17 17 15 16 16 14 14 14
28 24 21 19 17 16 15 14 13 13 12 12 12 12 11 12 11 11 11 10 10 10 10 10 11 13 12 12 13 12 17 15 15 16 17 16 16 14 14 15 14 13 12
27 24 20 18 17 16 15 14 13 13 12 12 11 11 10 11 11 11 10 10 9 9 9 10 11 13 12 10 14 15 15 14 14 16 17 16 14 14 14 13 13 12 13
28 24 21 17 16 15 14 14 14 13 12 11 12 10 11 10 11 11 10 10 10 10 10 10 12 13 14 15 15 13 12 12 14 15 15 15 13 14 13 14 12 12 12
26 24 21 18 17 15 15 14 14 14 13 12 10 11 11 10 10 9 10 10 11 11 12 13 13 14 14 13 13 11 10 13 14 15 15 14 12 14 12 12 11 11 10
26 23 22 19 17 17 15 14 14 13 14 12 11 12 10 9 8 9 10 10 11 13 12 13 13 15 14 12 11 10 10 12 12 14 14 13 11 10 11 11 10 10 9
23 24 22 21 18 18 16 14 13 13 13 12 12 11 11 10 9 9 10 8 11 12 14 12 12 12 11 9 9 12 9 9 11 12 12 11 11 10 10 9 8 8 8
25 24 22 22 20 19 18 16 16 14 15 15 14 13 11 10 9 9 8 8 9 12 14 13 11 9 9 7 10 10 6 6 10 11 11 10 8 9 8 8 7 6 5
30 26 24 23 20 20 20 19 18 17 17 16 15 12 9 8 9 9 9 9 10 12 11 12 11 9 6 8 11 8 4 6 9 10 10 9 9 6 6 6 5 4 4
29 27 26 23 22 20 21 20 19 19 17 15 13 11 9 8 9 9 8 7 7 8 6 8 10 9 7 9 11 8 4 6 8 9 9 7 8 7 4 5 4 3 3
28 28 28 26 23 21 22 21 20 19 17 14 12 11 11 10 10 8 7 5 5 6 8 10 12 11 6 7 11 8 6 6 8 8 7 6 6 6 5 4 4 3 3
29 30 29 26 24 22 23 22 20 17 14 12 13 13 12 10 10 8 9 4 6 5 4 5 9 6 5 9 12 8 7 7 8 7 6 6 5 5 5 4 4 3 2
33 31 29 27 24 22 23 21 18 15 12 12 14 14 12 9 11 9 10 6 6 2 4 4 6 6 3 9 12 8 8 7 7 6 6 5 5 5 5 4 4 3 3
30 33 29 28 25 23 22 19 18 16 15 15 14 16 12 10 9 8 10 7 7 6 5 3 7 9 6 8 11 11 9 6 6 6 5 5 5 4 4 5 4 4 4
37 35 32 31 26 24 21 18 17 16 17 16 15 15 13 11 9 8 9 9 10 7 6 3 11 9 8 10 7 11 9 7 6 6 6 4 5 4 4 4 4 5 5
36 37 36 35 30 24 20 19 17 15 16 19 18 12 12 11 11 9 8 11 11 10 9 7 7 8 8 7 5 5 10 8 9 10 9 7 6 7 6 6 6 6 5
34 36 37 36 35 27 23 21 20 15 16 19 19 14 9 8 11 9 12 11 9 8 9 7 5 4 8 8 6 5 10 13 12 14 12 11 11 9 9 9 8 8 8
35 39 39 40 36 32 27 24 23 17 17 19 16 13 11 8 9 14 12 11 7 11 7 7 5 3 6 9 5 2 2 3 11 14 15 16 15 13 12 12 10 9 9
30 36 41 43 39 35 29 24 19 19 16 16 17 15 14 12 9 12 13 11 8 9 8 7 5 4 7 9 4 1 1 3 3 3 9 15 18 16 15 14 12 9 8
34 37 42 43 42 37 30 26 25 23 16 16 18 17 15 14 12 10 11 12 8 10 10 8 6 4 9 7 3 2 1 1 2 3 2 5 9 13 13 14 13 11 10
35 37 38 41 43 39 35 32 27 23 21 17 16 17 16 15 15 13 12 13 11 11 11 11 8 6 6 6 5 1 2 2 1 1 2 3 9 9 10 12 14 14 13
35 37 37 40 43 42 37 34 30 26 21 20 16 20 20 18 17 16 15 12 12 14 12 12 12 9 6 4 3 3 2 2 1 1 1 3 3 6 8 12 13 13 12

GFSSE_925_spd_066.txt.gz
Wind_Speed
19 18 14 13 12 13 13 14 14 12 12 13 14 14 13 12 12 11 9 9 11 12 12 12 13 14 15 15 16 16 16 16 16 18 17 17 18 18 19 19 18 17 17
25 19 16 14 15 13 13 12 14 12 12 13 13 12 12 12 12 11 10 10 10 10 12 12 11 13 14 14 14 16 15 16 17 18 17 16 17 18 17 17 17 18 16
26 20 17 14 15 13 13 12 13 12 11 12 12 12 11 11 11 11 12 11 9 11 11 11 12 11 13 14 14 14 15 15 16 17 17 18 18 16 16 17 17 16 16
27 22 18 15 16 14 13 12 12 11 11 11 10 10 11 10 10 11 12 12 11 10 12 10 10 11 13 12 13 15 15 16 17 18 16 17 16 16 16 16 16 16 16
27 23 19 15 15 16 13 12 11 11 10 10 10 9 9 9 11 11 11 11 12 11 14 11 10 11 11 11 12 15 15 15 16 16 16 14 17 16 15 16 15 15 16
26 23 20 16 15 15 13 11 11 10 10 10 9 8 8 8 9 10 10 11 11 12 12 12 12 11 9 10 9 11 13 14 16 17 17 15 15 14 15 15 14 14 15
25 22 19 16 15 15 12 10 11 10 10 10 9 8 8 7 8 9 9 9 10 12 12 12 12 11 11 14 14 14 12 14 16 16 15 14 15 15 13 14 13 13 13
25 22 19 16 14 13 12 11 10 11 10 10 8 8 9 7 8 9 10 11 12 12 12 12 12 12 13 12 13 12 11 13 15 15 15 13 14 13 13 12 13 12 13
22 21 17 15 14 13 12 11 11 11 11 9 10 8 8 8 8 10 10 11 12 12 12 12 10 12 13 13 12 9 10 12 13 14 14 13 13 12 12 11 10 10 12
21 20 19 16 15 14 13 11 11 11 10 10 10 9 9 7 8 9 10 11 11 11 12 12 12 11 12 11 11 10 10 11 12 13 12 13 10 11 11 10 10 11 10
19 19 18 17 15 15 14 12 11 11 10 10 10 9 8 8 8 10 10 11 10 10 11 11 10 10 8 8 8 9 8 8 10 11 10 10 10 8 9 8 8 9 9
18 20 20 18 18 16 16 14 14 12 12 11 11 10 10 9 9 10 10 10 10 9 10 9 8 6 5 5 7 6 5 7 9 9 10 7 8 7 7 7 6 7 7
20 22 21 20 19 18 17 16 15 14 13 12 11 10 9 9 9 9 11 10 10 9 8 9 7 5 2 5 5 4 4 6 7 8 8 6 5 5 5 4 5 4 4
20 21 22 20 19 18 17 17 16 15 14 12 10 8 7 7 6 7 8 9 9 6 5 3 4 3 1 4 4 2 2 4 6 6 7 5 5 2 2 3 2 2 2
25 24 24 21 20 18 18 18 18 17 14 12 9 6 4 4 4 5 4 5 5 6 5 5 4 5 2 3 3 2 2 3 4 5 5 4 3 2 1 1 1 1 1
26 26 25 22 21 19 19 18 18 16 13 10 8 7 6 5 6 6 3 3 5 4 4 5 4 2 3 3 4 3 2 2 3 3 3 2 1 1 0 1 1 2 2
30 27 26 24 22 20 21 19 18 15 11 9 7 8 8 7 7 3 3 3 5 2 3 4 3 0 1 2 3 2 1 1 1 2 1 0 0 1 2 2 2 3 4
29 28 27 25 24 21 22 20 16 14 11 8 8 9 9 6 7 6 6 4 3 3 4 3 5 3 2 1 4 3 1 1 1 1 1 2 3 3 3 3 4 5 6
32 30 29 27 25 24 22 20 16 13 12 9 10 9 10 5 6 5 6 6 6 5 2 2 5 4 2 2 1 4 4 3 3 4 4 4 4 5 5 5 5 6 7
33 32 31 29 26 24 22 20 17 14 13 12 13 9 9 8 7 5 6 8 7 6 4 2 3 4 2 2 3 2 5 5 7 8 8 8 6 6 6 6 7 7 7
30 32 30 31 27 25 24 22 20 18 15 13 13 12 7 8 8 7 8 9 9 6 5 4 3 4 3 2 2 4 6 9 11 11 11 12 10 9 10 9 9 9 8
35 36 34 32 31 29 27 25 22 19 13 13 15 13 10 8 7 9 8 9 8 7 7 6 4 2 3 3 1 2 3 4 5 9 12 13 14 13 13 12 12 10 9
30 38 39 37 35 33 28 23 20 17 12 12 14 14 12 9 4 9 9 8 6 11 7 6 3 1 3 4 2 1 2 2 5 3 4 8 11 13 14 13 13 11 10
33 37 40 40 37 36 31 27 26 23 19 17 16 15 12 11 7 5 10 10 8 7 8 6 4 1 4 3 1 1 2 2 1 3 3 3 5 8 9 9 9 10 11
28 36 40 42 40 39 35 32 27 24 21 17 16 15 12 10 8 8 8 9 8 8 8 7 4 1 2 2 2 2 3 2 2 1 2 6 6 6 8 9 9 10 9
30 31 34 38 41 41 38 34 31 27 24 19 17 15 15 12 11 11 9 9 9 10 8 9 8 6 3 3 2 4 2 2 2 2 1 2 4 5 7 7 8 8 9

GFSSE_925_spd_069.txt.gz
Wind_Speed
17 14 15 14 13 14 15 15 14 14 15 15 14 13 12 11 10 8 9 10 11 10 11 12 13 14 14 15 14 14 14 18 19 18 18 18 19 19 19 18 18 17 18
21 16 16 15 15 13 14 16 13 14 15 15 14 12 12 12 11 9 9 10 10 11 11 11 12 12 13 13 13 13 16 17 18 19 18 18 17 18 17 18 18 18 18
22 17 15 15 14 14 14 15 12 13 14 13 12 12 12 12 11 11 11 9 10 10 11 12 11 12 12 12 13 14 16 18 18 18 17 16 16 17 17 17 17 16 16
22 17 15 15 12 14 13 14 10 12 12 12 11 12 11 11 12 12 12 13 11 10 10 11 11 12 12 12 15 16 16 16 17 16 16 15 15 16 17 17 17 17 16
20 17 15 16 13 13 13 13 10 11 11 12 10 11 12 12 12 12 13 13 12 12 12 12 12 11 10 13 14 14 15 16 16 15 14 14 14 14 15 16 15 15 14
20 17 15 15 14 13 12 11 10 11 10 10 10 11 12 12 11 12 12 12 12 13 12 13 11 9 9 10 12 14 14 15 15 14 14 14 14 14 16 15 14 16 14
20 17 14 14 14 13 11 11 10 9 10 10 11 11 11 12 11 12 11 11 12 13 13 12 11 11 12 14 15 14 14 14 13 13 13 13 13 15 14 14 13 13 14
20 17 14 14 13 11 11 10 11 9 10 9 10 12 12 13 13 13 12 13 13 13 13 13 13 13 13 15 14 13 13 13 12 12 12 12 12 14 13 13 13 13 12
18 16 14 12 11 11 11 10 10 10 10 10 10 11 12 13 14 13 14 14 13 12 12 12 14 14 14 13 12 12 12 12 11 10 10 11 11 12 13 11 11 12 12
17 15 13 12 11 11 10 11 11 11 9 11 11 12 13 13 13 15 15 14 12 12 11 12 14 14 13 13 14 13 11 12 10 9 10 8 10 11 11 11 11 11 11
15 15 13 12 11 11 11 11 11 10 11 12 10 10 11 11 12 13 14 13 12 12 11 12 11 11 13 12 13 11 10 8 8 8 8 9 9 10 9 8 10 9 9
17 15 14 13 12 12 10 11 11 10 9 9 9 10 11 11 11 12 12 12 11 10 10 8 8 9 10 9 9 9 8 7 7 7 7 8 9 7 7 7 8 8 9
17 15 15 14 13 13 11 11 10 10 10 10 11 10 11 10 10 10 9 9 9 8 7 5 5 6 7 6 7 8 6 6 6 6 5 7 6 6 4 5 5 6 7
17 15 15 15 14 13 12 11 11 10 10 9 9 10 10 9 9 9 8 8 7 6 5 4 5 6 6 4 4 5 5 5 5 5 4 5 3 5 4 5 5 5 5
16 16 16 15 15 14 13 12 11 10 10 8 8 8 8 6 6 6 6 6 5 5 5 6 7 8 6 5 5 4 4 4 4 4 4 3 3 3 4 4 5 5 5
18 18 18 16 15 14 14 15 13 10 9 7 5 5 4 5 5 3 4 4 4 5 5 5 5 7 7 7 6 5 5 3 4 3 3 3 3 3 3 3 4 4 4
19 17 18 17 15 14 14 15 12 10 8 5 4 3 3 2 2 1 3 3 6 4 4 3 3 6 6 5 5 4 4 3 3 2 2 3 4 5 3 4 4 4 4
18 19 18 17 16 15 14 16 12 11 8 5 4 4 3 1 0 3 5 4 4 6 5 4 3 4 6 5 3 3 3 2 2 2 2 3 3 3 5 4 3 4 5
19 20 19 18 18 17 15 14 13 11 9 6 5 3 3 2 1 3 4 5 5 6 5 4 5 4 3 4 4 2 1 2 2 2 2 3 3 3 3 6 6 6 6
19 19 19 18 17 18 14 14 11 9 10 9 6 4 4 4 3 3 6 5 7 5 5 5 5 5 4 2 3 2 1 2 3 3 4 4 4 5 4 6 5 6 7
17 19 21 21 20 19 17 15 12 11 9 9 9 8 5 6 5 4 5 9 7 5 4 5 5 3 2 1 2 2 3 5 6 6 5 5 5 5 6 6 6 6 6
23 22 21 21 23 22 18 15 10 11 9 8 9 9 7 4 5 7 7 9 8 6 6 5 4 3 3 3 1 2 3 1 2 2 3 5 6 6 6 7 7 8 8
23 24 25 26 26 24 18 16 14 11 9 9 10 11 8 5 4 9 9 8 6 6 5 6 4 2 3 2 1 2 2 3 5 1 2 2 4 4 5 6 6 7 8
27 27 25 27 27 26 25 18 17 15 12 11 12 11 9 8 6 7 10 8 6 8 7 6 4 1 3 4 2 0 1 1 3 2 3 2 2 3 4 5 5 5 7
26 25 27 27 25 24 27 22 17 16 14 10 10 12 11 10 8 7 7 10 10 7 9 8 5 2 2 3 2 1 0 1 1 2 3 4 3 3 4 4 4 4 5
27 25 23 24 31 27 26 27 22 18 16 13 12 12 11 10 9 9 8 9 8 7 9 7 7 5 3 2 1 1 0 2 3 4 3 3 4 4 5 6 4 4 6

GFSSE_925_spd_072.txt.gz
Wind_Speed
16 15 16 15 15 15 15 14 14 14 13 12 12 11 10 10 9 9 11 12 11 11 13 13 14 14 15 14 15 16 18 18 19 19 20 19 19 17 16 15 19 18 18
21 17 17 16 15 15 15 13 14 14 14 13 13 12 13 12 10 10 11 11 12 11 11 13 13 14 13 14 14 17 17 19 19 18 20 19 17 17 18 19 19 17 17
21 18 17 16 15 15 16 13 15 14 14 12 13 13 13 12 12 12 10 10 11 11 12 12 13 13 14 14 15 16 16 16 20 19 15 17 16 16 16 16 17 17 17
22 19 17 16 14 14 15 13 14 13 14 13 13 12 13 12 13 13 13 12 11 11 12 12 13 13 13 15 17 15 15 16 14 8 15 17 15 16 16 16 17 17 17
20 19 17 16 15 13 14 12 13 12 14 12 13 13 13 13 13 13 13 13 13 12 12 12 12 13 15 14 15 15 15 15 16 16 16 15 15 14 14 14 15 15 16
20 17 18 16 14 13 13 12 13 12 12 13 13 13 13 13 13 13 13 13 13 12 12 12 13 13 13 15 15 14 15 14 13 15 14 14 14 13 14 15 15 15 15
19 17 15 15 13 12 11 11 11 12 11 13 13 12 13 13 13 12 14 13 14 14 13 12 12 14 15 15 14 14 15 13 14 14 15 14 13 14 14 13 14 14 14
19 18 14 14 12 11 11 11 10 11 11 12 14 13 14 14 14 14 14 14 14 14 13 14 15 16 17 16 15 15 15 11 14 13 14 13 13 13 13 13 13 14 14
17 16 14 12 10 10 10 11 10 11 12 13 13 14 14 14 15 15 15 15 14 14 16 18 16 15 15 15 14 14 16 15 13 11 15 12 11 12 12 12 13 13 12
15 15 14 12 11 10 9 10 11 11 12 13 12 13 15 16 16 15 16 15 14 16 16 18 17 15 15 15 15 15 17 14 12 11 12 10 11 11 12 12 11 11 11
15 13 12 13 11 9 10 11 11 11 13 14 12 13 11 13 13 14 14 14 13 14 15 15 15 14 15 15 14 14 11 10 10 10 11 9 10 10 10 11 10 11 11
16 14 13 12 12 11 11 11 10 10 10 11 11 11 12 11 12 13 12 12 12 13 14 13 13 13 10 9 9 11 10 10 10 10 9 10 9 8 9 9 9 9 10
17 14 13 12 12 11 11 11 10 11 11 12 12 11 11 12 11 11 11 10 10 10 10 9 9 10 9 10 10 10 10 9 9 10 8 9 8 7 8 7 7 7 8
17 14 13 12 12 10 10 9 11 11 12 12 12 11 11 12 12 10 10 9 8 9 8 8 8 8 8 9 9 9 9 8 9 9 7 6 5 6 6 5 5 6 6
16 14 14 13 12 10 10 10 10 11 11 12 11 10 10 10 10 9 8 7 6 7 8 9 9 8 9 10 10 9 9 9 8 7 7 5 4 5 5 4 4 4 5
16 16 15 14 12 11 9 10 10 10 11 10 9 8 7 8 8 7 8 7 6 7 8 8 9 8 9 10 10 9 8 8 8 6 7 5 5 4 3 3 3 3 3
17 16 16 15 13 13 11 10 10 9 9 9 8 7 6 5 5 6 6 6 6 5 5 6 7 7 8 8 8 7 7 6 7 7 5 5 3 6 4 3 3 3 3
17 17 16 15 15 14 12 11 9 8 8 7 6 6 5 3 5 5 6 7 5 6 6 5 6 7 7 7 7 7 8 7 6 6 5 4 4 4 2 6 3 4 4
18 18 17 15 15 14 13 12 9 8 7 6 6 5 3 2 6 6 6 5 5 6 5 6 6 5 7 7 9 6 6 5 4 5 3 3 4 4 3 4 7 5 6
17 17 17 16 15 15 13 11 10 9 8 6 5 4 3 3 5 6 8 6 7 6 7 7 6 5 5 4 5 6 3 3 2 2 2 2 3 2 2 3 3 3 7
17 18 18 18 17 17 16 15 12 11 8 7 6 4 3 4 2 7 7 8 6 6 6 6 7 5 6 4 4 4 3 3 2 0 0 1 2 1 1 2 2 2 2
19 20 19 19 18 18 17 15 12 9 8 7 7 7 5 5 5 5 6 8 7 7 6 6 3 6 4 2 4 2 2 8 5 3 2 1 1 1 1 1 1 1 1
20 20 20 19 18 18 16 15 11 9 6 7 8 8 7 6 5 8 8 8 7 6 8 5 4 1 6 2 2 7 1 5 4 4 4 4 3 2 2 2 1 0 1
22 20 19 19 18 18 17 15 13 12 10 9 9 9 8 7 6 8 9 8 6 7 6 6 4 1 3 7 2 3 4 4 4 7 7 6 4 3 3 2 3 2 0
23 21 20 18 19 18 18 16 15 13 11 8 8 8 8 8 6 7 10 9 7 8 7 6 5 2 4 2 1 1 2 2 3 5 5 8 7 5 4 3 2 2 1
25 23 21 21 21 20 19 19 17 13 12 10 11 9 9 10 9 9 8 10 10 7 8 7 6 4 3 2 2 1 2 3 6 3 6 4 5 6 5 4 3 2 3

GFSSE_925_spd_075.txt.gz
Wind_Speed
18 16 16 16 14 13 12 13 12 11 11 10 9 9 8 9 9 12 13 13 13 14 15 16 16 16 17 16 18 18 18 18 20 21 21 18 17 16 16 15 20 19 19
23 18 18 15 14 12 12 12 12 12 12 11 10 11 11 10 11 11 12 13 14 14 14 15 15 15 16 17 17 17 16 18 20 21 21 19 18 18 20 18 19 18 19
24 21 18 15 15 13 12 14 12 11 11 11 12 11 12 12 12 12 11 13 13 13 14 14 14 16 16 16 16 15 16 16 14 17 21 17 16 17 18 19 18 18 18
24 22 18 16 15 14 12 13 12 12 12 12 12 11 13 13 13 14 13 12 13 13 14 14 14 15 16 16 15 15 16 14 10 7 13 17 16 16 17 16 17 17 17
24 23 19 17 15 14 12 12 13 12 12 12 13 13 13 13 14 13 13 13 13 13 13 13 14 16 15 16 15 18 20 19 17 17 17 17 15 13 14 16 16 16 18
24 21 18 17 14 12 12 12 12 12 12 12 12 13 12 12 13 14 14 13 13 13 13 13 15 15 16 14 15 18 13 10 14 14 16 16 14 14 17 15 16 15 15
26 20 16 16 14 12 12 11 12 12 13 13 12 12 12 12 11 13 13 15 14 14 13 13 13 13 15 15 17 18 14 14 21 16 17 14 14 15 15 15 15 15 15
21 22 16 15 13 11 11 11 12 12 13 13 13 13 12 12 12 13 13 15 14 14 15 16 18 16 14 14 16 15 10 11 17 17 15 13 14 14 14 13 14 14 15
25 19 16 14 11 11 11 12 12 13 12 13 13 13 13 12 13 14 15 15 16 17 18 17 17 15 14 14 15 15 15 16 16 17 14 13 14 13 13 13 13 13 12
22 16 18 14 12 12 10 11 12 12 13 12 12 13 18 19 16 15 17 17 17 18 18 17 16 16 15 16 19 19 17 15 15 17 14 12 13 12 12 12 12 12 11
12 16 13 16 13 14 12 11 10 12 13 14 12 11 12 15 15 14 17 16 16 16 16 16 16 16 20 18 12 9 6 4 13 18 11 12 11 11 11 11 12 11 11
17 14 13 15 14 13 14 12 10 12 11 10 10 6 7 17 16 15 13 14 16 16 16 16 14 10 13 13 9 5 8 9 12 12 10 11 9 9 9 9 9 8 9
17 16 18 12 13 15 12 12 10 12 10 9 7 7 11 12 15 13 13 12 9 10 9 9 5 7 5 7 10 10 9 9 15 11 10 9 8 7 8 7 7 7 6
16 13 14 13 14 12 11 10 9 13 12 12 11 10 10 11 9 8 14 11 7 10 7 9 12 11 8 10 11 8 7 9 12 11 8 6 7 6 6 5 5 5 5
16 14 15 13 10 8 8 11 11 12 18 10 12 5 8 12 9 9 5 9 9 9 7 9 10 10 10 10 9 9 9 8 7 12 8 5 4 5 5 4 4 4 5
17 14 15 13 10 9 8 7 9 4 11 13 11 8 7 9 8 9 7 8 7 9 8 10 6 9 8 10 9 8 7 8 6 5 11 9 6 4 4 3 3 3 2
17 15 16 14 14 11 11 11 7 10 10 15 10 8 6 7 4 6 6 8 7 8 7 7 7 6 12 9 9 7 8 8 8 3 5 9 6 9 7 4 4 3 2
18 17 16 15 15 13 12 11 8 7 4 8 10 9 5 4 6 3 6 5 7 7 8 5 5 2 11 10 6 5 8 9 7 5 5 3 6 7 8 9 5 4 4
17 18 17 14 15 14 12 10 9 8 7 5 4 10 7 5 5 4 6 5 4 3 4 8 5 6 7 11 13 6 7 8 8 8 5 3 4 3 5 5 5 6 6
18 18 17 15 15 14 13 10 10 9 9 6 6 5 5 7 5 5 5 7 6 9 6 9 1 8 3 8 1 6 5 5 2 3 7 7 5 5 4 2 3 1 7
20 19 18 17 16 15 14 14 11 11 9 8 8 6 4 5 7 6 8 6 6 8 10 6 6 2 2 2 11 5 7 7 6 3 2 3 6 4 3 3 2 2 2
21 20 19 18 17 16 14 13 10 12 11 11 10 6 4 5 6 6 10 10 6 8 5 3 3 7 6 2 6 12 5 8 7 7 3 4 2 3 4 4 2 1 1
20 20 21 20 18 17 14 12 7 4 2 5 5 7 7 5 6 5 6 4 7 5 11 5 4 2 2 2 3 8 5 0 9 9 6 6 5 5 4 4 3 3 1
21 21 21 20 19 19 15 15 12 12 12 11 11 10 8 7 6 8 8 5 8 5 12 7 3 3 2 6 3 6 5 5 3 7 7 6 6 7 4 5 4 4 2
24 23 22 20 19 19 18 12 13 15 10 11 8 11 7 8 7 9 10 8 7 8 5 6 4 4 3 3 2 3 3 0 1 7 8 9 6 5 6 2 3 3 2
25 25 23 22 20 18 18 16 13 11 11 6 12 9 9 9 9 8 10 9 8 7 7 7 6 4 6 4 7 2 3 2 11 2 5 3 9 4 5 4 2 2 2

GFSSE_925_spd_078.txt.gz
Wind_Speed
18 16 17 15 13 13 13 13 12 11 11 11 11 10 10 11 13 13 13 14 16 17 18 19 18 18 19 19 19 20 21 24 26 23 22 21 20 20 18 20 20 18 18
23 18 19 16 13 12 12 13 13 13 13 12 13 12 11 12 12 13 13 14 15 16 17 17 18 18 18 18 19 20 18 21 23 24 23 21 21 18 17 19 19 18 18
24 21 18 17 14 13 15 14 13 12 12 12 13 13 13 12 12 11 12 13 14 15 16 17 17 17 17 16 18 18 16 17 19 23 22 19 20 20 20 19 17 18 18
24 21 19 19 15 14 14 13 13 12 11 12 12 13 13 13 13 13 11 13 14 15 16 16 17 17 16 16 18 16 16 13 9 8 19 20 17 16 17 16 16 18 19
27 23 20 19 15 14 13 13 13 12 12 12 13 13 13 13 13 13 12 13 14 15 16 16 16 17 15 16 18 16 14 15 11 24 25 20 15 16 15 16 17 17 18
27 22 20 20 16 14 12 13 12 12 12 12 13 12 13 13 14 13 13 14 15 15 15 16 16 15 14 19 19 16 15 22 23 19 17 16 17 16 16 16 17 17 17
26 22 19 18 16 14 13 13 12 12 12 12 12 12 12 12 13 14 14 16 15 14 13 14 16 14 17 18 17 14 18 19 22 22 17 15 16 16 15 16 16 16 17
25 22 18 16 15 14 14 13 12 12 12 13 13 12 12 14 14 14 15 15 14 15 15 15 15 14 16 17 15 14 16 18 19 17 16 16 15 14 14 14 15 15 15
26 22 17 15 15 14 13 12 12 11 12 11 12 13 14 14 15 15 15 15 16 16 16 16 14 14 16 16 16 18 20 18 18 19 15 15 13 14 13 14 13 14 14
25 23 24 17 15 15 13 13 12 12 11 11 13 13 17 17 16 17 18 16 16 16 15 16 15 18 21 20 17 16 14 20 18 16 14 15 12 12 12 12 11 11 12
18 26 22 22 21 18 13 12 12 12 12 13 13 13 16 18 15 13 15 15 15 15 15 16 15 18 19 17 12 10 12 12 19 17 16 13 11 11 10 11 11 10 10
17 21 30 24 22 18 13 16 13 11 7 6 8 9 12 19 16 14 15 15 14 13 14 13 15 16 11 9 12 7 8 24 18 14 13 11 9 9 8 9 7 9 9
21 28 24 17 20 21 12 20 12 19 17 9 7 7 17 16 15 17 18 15 14 13 3 6 7 7 2 10 4 7 9 19 17 13 11 9 7 7 6 6 6 6 6
29 27 25 23 16 13 9 12 13 15 13 10 9 10 10 12 13 8 13 10 8 10 5 9 5 5 9 14 8 5 6 21 14 12 9 7 7 7 4 5 5 5 4
29 29 28 20 13 7 11 11 12 14 16 10 8 4 11 11 8 14 8 11 8 7 10 9 9 8 10 11 9 10 10 13 13 10 10 7 6 6 5 4 3 3 3
16 29 25 21 15 9 14 12 14 13 10 12 11 8 6 10 6 6 10 8 14 13 12 11 7 10 9 8 9 8 7 4 10 7 9 10 7 6 5 4 2 2 1
17 24 22 18 16 6 11 14 16 3 13 17 10 7 3 12 5 3 8 11 6 8 9 5 5 9 14 8 8 8 9 6 5 7 6 5 10 8 6 5 4 3 2
17 16 18 23 20 12 12 9 7 9 14 13 9 10 3 8 5 12 3 12 9 6 10 7 3 8 11 11 8 9 8 9 6 5 9 8 5 7 9 6 6 5 4
23 14 15 22 21 17 14 10 7 7 9 3 10 9 10 9 8 7 6 7 5 5 11 6 5 5 6 4 4 7 8 8 7 8 4 7 7 6 5 4 4 7 6
23 16 15 17 22 16 15 9 10 12 7 8 9 11 7 6 5 4 9 12 5 4 12 3 3 4 6 4 8 7 10 11 9 11 8 12 6 10 5 3 4 3 7
24 20 16 14 22 16 15 12 14 14 9 10 7 7 9 8 6 9 7 10 2 9 11 5 4 1 5 4 2 7 9 7 6 7 12 14 5 8 3 3 4 4 1
26 24 20 15 20 18 16 16 20 15 12 10 11 6 8 8 8 3 8 6 8 10 11 3 3 5 6 5 5 7 3 10 11 6 5 6 1 6 8 3 1 3 4
20 26 24 19 22 21 17 14 9 10 11 7 11 13 12 8 9 7 8 4 7 3 7 6 3 4 4 2 1 3 3 1 5 6 9 6 8 4 4 4 6 1 2
28 24 26 21 23 23 15 14 12 13 17 16 13 14 15 12 11 6 9 5 6 2 10 8 2 1 5 8 5 3 3 1 0 1 10 4 5 7 5 8 7 6 3
27 25 27 25 22 21 19 12 12 8 6 5 9 15 11 11 9 11 10 7 6 7 11 5 5 4 5 8 10 3 2 1 6 2 3 7 12 9 4 2 4 7 4
28 27 28 26 23 21 22 14 15 9 9 12 8 16 11 13 10 11 10 10 5 6 9 10 4 0 5 6 9 11 8 3 8 11 4 10 9 10 8 4 3 2 0

GFSSE_925_spd_081.txt.gz
Wind_Speed
16 18 16 14 14 14 12 11 11 12 13 13 14 14 15 18 17 16 18 19 19 19 19 19 20 21 22 23 24 26 26 26 26 25 24 23 23 22 21 19 18 19 19
24 21 17 14 14 13 13 13 14 14 15 15 13 14 14 16 16 17 17 17 18 18 19 19 19 19 21 22 24 22 22 25 26 25 23 21 20 18 20 19 19 20 19
27 23 18 14 15 14 15 14 13 14 14 13 15 14 13 14 14 16 16 16 17 18 18 18 18 18 19 21 22 22 22 21 24 22 23 24 22 20 19 19 18 19 20
27 23 20 16 17 15 14 14 13 13 13 13 14 14 15 14 15 15 16 16 17 17 17 17 17 16 19 19 19 18 18 16 12 21 22 19 17 17 17 18 18 18 18
26 24 21 18 17 15 14 14 12 13 13 14 13 14 14 14 14 15 16 17 17 17 18 16 16 17 16 18 17 16 14 25 27 24 19 18 19 16 17 16 17 17 17
26 25 21 18 18 16 15 14 13 13 13 13 12 12 14 14 14 16 15 16 16 16 16 17 15 19 18 17 19 22 27 22 22 19 19 19 19 16 18 17 16 17 16
28 25 20 18 16 15 15 13 13 13 13 14 13 12 13 14 15 16 16 15 15 15 16 15 17 18 17 20 25 24 21 20 18 20 19 19 17 17 17 16 16 15 15
30 25 20 19 16 15 14 14 13 11 13 14 12 12 13 14 15 15 15 14 14 14 14 14 16 17 18 19 20 19 17 15 17 20 19 18 16 15 14 14 14 14 15
28 25 21 19 15 15 14 14 13 12 13 13 13 14 13 14 15 15 15 16 15 16 15 14 16 18 19 17 18 17 15 17 20 18 17 17 14 14 13 13 13 13 12
29 25 21 19 17 16 14 13 13 13 13 14 13 14 15 14 15 16 17 16 15 15 13 13 14 16 18 18 19 20 17 18 17 16 16 14 14 12 12 11 12 12 11
28 27 24 22 18 15 14 13 13 13 14 14 15 18 17 16 16 15 18 16 15 14 14 13 13 14 16 16 18 21 15 11 12 16 15 13 13 11 12 11 11 10 9
31 24 27 22 17 17 16 17 17 18 14 8 15 17 14 11 13 15 16 16 16 15 16 15 13 11 8 9 15 11 15 13 13 15 14 11 11 9 10 8 9 8 8
24 32 29 24 20 19 17 18 16 14 12 11 10 14 14 14 12 15 14 14 16 15 14 13 15 7 2 3 3 5 19 12 13 12 11 10 11 8 7 7 7 6 6
31 29 29 25 21 19 14 17 18 18 17 11 11 13 15 17 15 13 9 10 8 7 12 9 3 4 6 3 5 16 21 12 11 11 10 9 8 7 6 6 5 5 5
35 33 30 22 20 15 11 16 16 14 14 16 10 10 17 14 11 11 8 6 5 6 8 12 4 3 11 12 13 22 15 9 9 10 10 8 7 6 5 5 4 4 2
33 31 25 21 15 14 19 21 23 17 15 13 11 14 15 17 11 12 11 10 6 8 9 7 6 6 10 8 11 13 15 8 5 7 9 9 7 5 4 3 3 2 1
35 32 25 23 18 16 18 18 17 11 17 13 11 13 15 13 9 6 12 13 12 12 11 7 8 8 11 9 9 8 8 9 4 5 5 6 8 6 5 4 4 3 2
33 30 27 24 20 18 13 20 10 13 13 12 9 11 10 9 9 10 11 10 9 9 7 9 10 8 6 8 7 7 8 7 8 4 5 4 4 5 7 7 5 4 4
31 27 26 23 21 15 15 13 13 16 15 11 11 6 8 8 7 7 7 9 7 8 9 5 3 5 6 6 5 9 10 9 7 8 9 4 6 5 4 5 6 5 4
25 21 23 26 24 17 18 12 13 14 13 9 14 10 10 8 6 5 10 11 8 13 12 6 8 8 4 6 4 6 11 13 9 11 8 7 5 5 2 3 2 3 5
27 23 20 28 25 20 19 11 13 12 13 11 7 9 9 8 9 7 8 8 7 10 11 10 7 6 4 2 4 3 8 12 13 15 13 9 9 7 5 2 1 1 3
30 28 19 26 26 22 18 14 18 16 13 10 10 8 7 9 9 10 8 7 5 8 8 6 1 2 2 4 2 3 2 2 7 5 18 11 8 11 8 4 3 4 4
33 30 25 26 24 21 16 14 8 14 14 15 14 11 11 6 11 7 10 6 13 6 7 5 3 2 4 1 1 2 1 1 1 4 12 9 7 12 11 5 6 2 5
32 32 28 24 25 22 18 12 16 14 10 10 11 15 13 9 10 5 7 6 8 5 6 6 3 3 5 8 6 3 1 2 2 2 7 8 8 10 10 8 10 3 2
31 33 31 26 26 24 22 11 16 15 13 7 12 15 15 12 10 9 8 6 7 6 10 5 4 2 5 7 13 8 2 4 5 2 3 4 8 11 10 11 13 10 4
34 28 32 29 27 23 25 15 13 15 10 12 16 12 15 12 10 11 11 10 7 8 7 7 4 1 1 5 8 9 15 4 5 3 1 5 12 14 8 3 4 10 7

GFSSE_925_spd_084.txt.gz
Wind_Speed
16 16 14 15 14 14 13 13 14 15 16 15 15 17 17 17 17 18 19 19 19 19 19 20 21 21 22 23 23 23 23 23 24 22 21 20 20 20 18 19 19 18 18
23 19 16 15 14 13 14 15 15 16 16 15 17 17 17 16 16 17 18 18 17 18 19 19 20 21 21 21 21 22 22 23 23 21 20 19 19 19 19 19 18 18 19
25 20 16 15 14 15 15 14 14 15 16 17 16 15 15 17 17 17 17 17 17 17 18 18 19 19 20 21 21 21 21 20 20 20 21 22 19 18 17 18 19 19 18
25 20 16 17 17 14 13 14 14 14 15 16 16 17 15 16 17 17 16 17 16 17 16 17 18 18 18 18 18 18 19 16 19 19 21 19 16 17 18 17 18 18 18
25 20 17 18 15 15 15 14 14 14 15 16 16 15 15 16 16 16 17 17 17 17 16 17 16 16 17 14 13 15 13 14 18 19 20 18 19 16 16 16 17 16 17
25 21 18 17 15 14 14 14 14 14 14 14 14 16 15 15 16 15 16 16 16 15 16 16 16 17 16 15 17 21 22 19 19 20 20 18 18 16 16 16 16 15 15
27 22 18 17 15 14 14 14 14 13 14 14 14 15 15 14 15 15 15 15 15 15 15 16 18 17 17 21 21 19 17 16 18 18 19 18 17 15 15 15 15 14 15
28 23 19 17 15 13 13 13 13 14 13 12 13 14 15 15 15 13 13 14 14 14 15 17 19 18 17 19 18 14 14 17 18 18 18 18 15 15 14 15 14 14 14
27 23 20 17 15 14 13 13 14 14 12 12 13 14 14 14 13 12 13 13 13 13 15 16 17 17 15 16 15 12 13 16 17 18 17 16 14 13 12 12 12 12 11
25 22 20 17 16 15 15 13 14 14 12 13 13 13 14 14 13 13 14 13 12 11 12 15 17 15 16 16 15 12 12 13 15 16 15 15 11 12 10 11 11 10 9
22 22 19 18 17 16 17 15 15 15 14 14 14 14 15 15 14 15 13 12 11 11 12 15 16 15 15 15 13 11 10 9 13 14 14 13 9 10 9 9 8 8 8
23 22 21 19 17 18 19 19 18 15 12 15 17 16 13 13 14 14 12 12 13 12 12 14 14 12 12 14 11 8 5 6 9 12 12 11 9 9 7 7 7 6 6
26 24 22 20 19 19 21 22 17 14 13 14 14 13 12 13 13 13 14 13 12 11 12 9 9 7 7 8 8 6 7 3 8 10 9 9 8 7 7 5 4 4 4
29 24 23 22 21 19 19 20 17 15 14 10 10 12 14 14 15 11 9 9 8 7 8 5 5 6 3 1 8 8 11 7 8 8 8 7 6 6 5 5 4 3 2
30 28 26 24 20 17 18 19 16 13 12 13 8 12 13 13 12 9 6 4 4 4 6 3 3 10 12 14 11 16 14 9 9 8 8 7 6 5 4 3 2 2 1
30 30 27 24 21 14 15 16 14 12 14 11 8 13 12 11 11 10 6 6 5 6 5 3 4 5 9 16 17 15 11 10 8 7 7 7 5 4 3 2 2 2 2
31 31 26 23 19 16 17 18 15 14 14 12 14 10 11 13 7 11 6 6 7 6 5 3 3 6 8 12 14 13 9 9 7 4 5 5 5 3 3 2 2 1 1
36 32 28 22 23 22 22 21 18 13 13 10 11 12 11 8 8 8 11 9 5 4 5 2 5 4 3 4 6 6 6 7 5 2 4 3 3 5 5 3 2 2 1
37 33 27 25 23 19 19 13 16 16 15 12 10 10 10 7 9 7 7 8 7 5 7 4 8 4 0 4 3 4 5 6 7 6 6 4 3 2 2 3 4 3 2
35 34 30 27 23 20 16 12 12 16 14 12 12 9 8 8 8 5 10 8 8 8 9 4 6 6 3 6 5 7 9 12 9 8 7 6 4 3 2 1 2 3 3
34 34 32 27 21 24 18 17 15 14 12 10 14 10 9 10 9 5 8 8 4 9 9 3 5 2 3 3 4 4 8 10 12 13 12 9 8 4 3 2 1 3 4
36 33 31 29 25 24 20 15 14 12 10 10 8 7 10 10 11 8 10 10 10 8 7 6 3 1 1 4 3 0 2 2 4 9 17 15 12 9 8 7 5 3 3
33 32 32 32 28 23 22 14 11 11 10 11 10 9 11 9 11 9 10 9 10 7 7 5 2 1 1 4 5 3 2 2 3 1 10 18 13 13 8 8 6 6 6
31 30 30 32 28 23 19 18 9 16 15 14 13 11 10 10 13 10 10 8 9 6 5 5 3 3 4 9 4 5 2 2 2 2 3 12 11 7 12 12 9 8 9
33 31 30 31 27 22 17 16 15 17 14 9 14 14 11 11 12 11 13 9 10 7 7 5 5 3 5 7 12 9 5 4 6 2 2 4 10 10 14 15 13 11 8
32 32 32 32 29 24 21 15 13 15 14 9 12 17 14 12 13 11 13 11 8 9 10 8 4 2 2 4 8 9 11 5 6 3 1 5 7 8 14 14 14 9 10

GFSSE_925_spd_087.txt.gz
Wind_Speed
13 12 15 15 15 15 13 12 12 12 12 14 14 14 14 15 17 17 17 17 17 17 19 20 21 22 21 20 19 18 19 19 18 18 17 17 17 17 17 17 17 18 18
20 15 16 15 14 13 13 13 14 13 12 14 14 14 14 15 16 15 16 16 17 18 19 20 21 20 19 19 19 18 18 18 18 17 16 17 16 17 17 17 17 17 18
21 17 14 13 13 15 14 14 13 13 14 13 14 15 14 14 15 15 15 15 17 19 19 20 20 19 18 19 18 17 15 15 16 17 18 18 15 15 17 18 17 17 17
22 17 14 14 14 13 14 14 13 12 13 13 13 13 14 15 14 15 15 15 17 18 18 18 18 18 17 16 16 18 17 16 15 17 16 15 14 16 16 15 17 16 16
21 17 16 13 13 12 12 12 13 13 14 13 13 13 13 14 14 14 14 15 16 16 17 17 17 15 13 12 11 11 11 13 16 16 16 16 15 15 15 15 14 16 16
21 18 16 13 13 12 13 13 14 13 12 13 14 14 13 14 14 14 13 14 14 15 15 15 15 12 8 11 9 12 13 13 16 16 16 15 15 14 15 14 13 13 14
21 19 16 14 13 13 12 12 13 13 13 13 13 14 14 14 14 13 13 13 14 14 15 15 14 13 14 18 15 14 11 14 15 15 16 14 14 15 14 14 14 13 13
21 19 17 14 12 12 12 12 13 13 13 13 13 13 14 14 13 13 12 13 13 13 14 15 16 15 15 15 12 10 12 14 15 15 15 13 14 11 13 13 12 12 11
19 19 17 14 12 12 11 10 12 11 12 12 13 13 13 13 11 10 10 12 11 11 14 15 15 12 11 11 10 10 12 14 13 13 13 12 11 11 11 10 10 10 10
19 17 16 15 14 12 11 10 11 11 11 11 12 12 12 11 10 12 11 12 10 9 12 14 10 11 11 11 9 11 10 10 10 12 12 10 10 10 9 9 9 8 8
17 16 15 15 14 14 13 12 11 12 12 12 12 11 13 12 12 12 11 10 9 9 11 11 10 10 11 10 8 7 6 7 8 10 9 7 7 8 7 6 6 6 6
18 17 15 15 15 15 15 15 14 13 13 14 13 13 13 12 12 12 10 10 9 9 9 9 8 8 8 9 6 3 3 3 5 7 7 6 6 6 5 5 5 4 4
21 17 16 16 15 16 16 15 14 13 12 13 13 11 12 12 12 13 12 12 10 11 11 9 8 6 7 7 5 3 4 2 3 5 5 4 4 3 2 2 2 2 3
22 19 17 16 16 16 17 15 15 15 13 9 7 8 11 12 13 12 10 8 7 7 8 6 2 2 8 11 8 3 5 3 3 3 4 3 2 2 1 1 0 1 2
23 20 19 18 17 16 15 14 13 12 10 9 10 9 11 12 10 9 6 4 4 3 2 2 6 7 5 5 10 8 7 4 3 3 3 3 2 1 1 1 2 2 3
23 23 22 20 17 16 14 13 12 11 11 6 7 9 8 6 4 4 2 0 0 2 3 5 5 4 6 9 11 8 7 5 3 2 1 1 0 1 1 2 3 3 4
26 25 24 21 17 16 14 14 11 8 11 8 7 10 6 5 2 4 1 1 1 3 2 2 4 5 5 7 7 7 6 4 3 1 2 2 2 1 2 2 2 3 3
29 27 26 23 20 13 14 15 11 14 12 10 9 8 7 5 4 2 3 4 3 1 2 2 2 5 5 5 4 3 5 6 5 4 4 4 3 3 3 3 3 4 4
32 28 25 23 21 18 17 15 11 14 12 10 9 11 8 5 5 5 4 2 2 1 2 2 1 3 4 2 3 4 5 6 7 8 8 6 5 4 4 4 5 5 5
31 30 24 26 24 22 18 15 14 12 11 10 9 8 8 6 5 4 5 6 4 5 4 2 1 3 4 4 6 9 8 8 10 10 9 8 7 5 5 4 5 5 6
32 31 28 28 24 25 20 17 14 12 10 9 8 7 6 8 7 3 9 7 2 2 3 1 1 2 6 3 6 8 5 7 11 13 12 11 10 6 6 6 7 6 6
37 34 30 28 26 24 22 17 12 11 10 7 8 9 8 7 8 4 6 9 4 3 4 3 4 5 3 3 3 4 3 2 3 8 10 15 12 10 10 9 8 8 8
32 36 34 31 26 24 20 16 11 9 6 12 9 8 9 7 9 7 7 7 6 6 6 3 3 5 3 5 4 1 2 2 3 3 4 9 12 12 12 8 7 7 8
34 36 36 31 27 26 22 17 14 13 11 11 10 8 8 8 9 9 7 7 6 4 5 3 1 3 3 8 2 2 2 1 1 3 3 5 10 13 8 9 8 9 9
33 37 37 34 29 25 23 19 15 12 14 8 11 9 9 9 10 9 10 7 9 4 4 5 4 0 3 5 7 2 4 3 5 2 2 4 6 9 11 11 13 14 13
23 29 35 35 32 27 22 21 18 13 13 11 8 12 13 11 11 11 13 12 9 8 7 7 5 3 1 3 6 9 9 5 6 2 0 4 5 5 8 11 13 12 9

GFSSE_925_spd_090.txt.gz
Wind_Speed
10 10 12 11 12 11 9 9 10 10 11 10 11 13 14 14 14 15 15 16 18 19 20 20 20 19 18 18 17 17 18 18 18 18 17 17 17 17 17 17 18 17 18
18 15 11 12 10 9 9 10 10 10 12 10 11 12 13 13 13 14 15 17 19 20 20 20 19 18 17 17 17 18 18 17 17 17 17 16 17 16 17 17 18 17 17
20 17 14 10 10 10 11 9 9 10 12 11 12 12 12 12 13 13 15 17 18 19 18 17 16 17 17 17 16 16 15 15 16 16 17 17 17 17 16 17 16 17 17
21 18 14 13 11 11 9 10 10 10 10 10 11 12 13 13 13 13 15 16 18 17 18 16 16 17 17 17 17 16 16 14 13 14 15 16 15 15 16 16 16 16 17
20 17 16 12 11 10 10 9 10 10 11 11 10 12 12 13 13 13 15 16 16 17 16 15 14 12 11 11 12 12 11 12 13 15 15 15 14 14 13 15 16 16 17
18 17 14 13 11 11 9 10 9 10 10 12 11 11 12 13 13 13 15 15 16 16 15 13 10 8 9 7 7 8 10 11 13 13 15 14 14 13 13 13 14 14 14
18 16 13 13 11 11 10 10 9 10 10 12 11 11 12 12 13 14 15 16 14 15 13 11 11 10 12 13 14 10 9 11 12 13 13 13 12 13 12 13 13 12 13
18 15 12 11 11 11 10 10 10 11 11 12 11 12 12 12 12 13 14 15 14 13 12 12 13 14 13 11 10 9 10 10 11 12 12 13 11 11 12 11 11 11 12
17 16 12 11 11 10 10 10 11 11 11 12 12 12 11 11 11 12 13 14 13 12 11 11 12 11 10 9 9 9 9 9 10 10 11 11 9 10 9 9 10 10 9
16 14 13 12 11 11 11 11 10 11 11 11 12 12 11 10 12 12 11 13 13 11 11 10 10 9 9 9 9 9 8 8 7 8 8 8 9 7 7 8 8 8 8
14 13 12 10 11 12 12 11 12 11 12 12 12 11 12 12 12 14 13 12 11 11 10 8 8 9 10 7 7 7 6 6 6 6 5 5 5 5 5 6 6 6 7
15 13 12 10 11 13 12 13 12 13 13 13 12 13 12 13 13 14 12 10 11 10 9 8 6 5 5 6 5 5 6 4 4 4 4 4 4 4 5 5 5 6 6
16 14 12 11 11 12 11 11 12 14 14 14 14 12 13 13 13 14 13 12 11 10 9 6 4 2 2 2 4 4 4 3 2 1 2 3 2 2 3 4 5 5 5
16 15 13 12 12 12 12 11 11 12 13 12 10 12 12 13 12 12 12 11 9 7 7 4 2 5 7 8 7 5 4 3 2 1 1 1 2 2 3 3 4 5 5
17 16 16 15 14 13 12 12 12 12 10 10 11 11 12 10 10 9 8 7 7 4 4 5 5 5 3 5 8 5 2 3 3 2 2 2 2 2 3 4 5 5 5
19 18 17 17 15 14 13 11 9 9 9 8 9 10 9 6 4 4 6 6 6 4 5 5 7 6 6 5 4 3 1 3 4 4 4 4 3 3 3 4 5 5 5
22 21 20 19 16 14 12 10 10 8 7 6 8 8 5 3 3 3 4 5 5 4 5 7 7 6 4 4 3 2 2 4 5 6 6 6 6 5 5 5 5 6 6
22 22 21 19 18 16 13 11 9 7 7 5 7 8 5 3 3 2 5 5 6 5 4 4 4 6 5 4 2 3 4 5 6 6 7 7 7 6 7 7 6 6 7
22 23 23 20 18 16 14 15 10 11 8 8 5 7 6 4 3 3 3 2 4 4 5 5 3 5 5 4 5 5 6 7 7 7 8 7 7 7 7 7 7 8 8
24 22 22 19 16 13 17 18 13 13 10 8 8 7 5 4 2 3 1 1 1 1 3 5 4 5 5 6 8 9 8 7 7 8 8 8 7 7 7 7 8 9 9
25 24 23 21 18 19 19 19 15 15 12 9 8 6 4 6 5 2 3 4 1 2 4 4 5 6 7 7 9 9 4 4 6 8 9 10 8 7 7 8 9 9 9
30 27 24 23 25 23 20 18 16 13 10 8 8 7 7 7 8 3 4 5 1 2 1 2 5 6 6 6 5 4 4 4 4 4 6 6 6 7 7 8 7 7 9
31 32 28 29 26 26 20 17 12 10 7 9 7 7 8 8 8 7 5 5 3 4 3 2 3 6 6 6 4 1 2 1 5 4 4 2 4 5 7 6 4 6 9
33 33 30 30 27 24 22 19 15 14 9 8 9 6 8 7 9 10 7 6 5 4 5 2 3 6 5 9 3 4 1 1 1 4 3 4 5 4 5 6 6 8 11
28 33 35 31 28 25 23 20 15 13 10 6 7 8 7 8 8 10 7 6 7 4 4 3 1 2 5 7 11 5 5 2 5 0 2 5 5 5 8 9 8 10 10
21 25 32 32 31 28 26 22 18 12 10 10 7 11 8 8 8 11 8 8 7 5 3 4 3 2 2 5 7 9 10 5 5 3 1 2 4 5 7 7 7 9 9

GFSSE_925_spd_096.txt.gz
Wind_Speed
10 10 10 8 7 7 8 9 9 10 12 13 13 14 15 16 17 17 17 18 19 20 19 19 19 17 17 18 19 19 19 19 17 18 18 17 16 16 16 15 18 16 16
15 12 12 8 7 6 6 7 9 9 10 12 13 13 14 15 16 16 17 19 19 18 17 16 18 18 18 18 18 19 19 17 17 15 18 20 17 17 18 18 19 16 15
16 14 11 9 8 9 9 9 10 10 11 11 11 12 13 14 16 16 17 17 16 17 17 18 18 17 17 17 17 16 16 16 20 19 15 17 16 16 18 19 19 18 16
16 15 11 10 10 10 11 11 11 11 11 11 11 12 12 14 17 17 16 16 16 17 17 17 18 17 17 16 15 16 15 15 18 14 14 15 16 16 17 17 19 18 18
13 13 11 12 10 10 10 11 12 11 11 12 10 11 12 14 15 15 15 16 16 16 14 15 15 15 14 15 15 14 15 16 15 16 14 15 14 17 18 17 19 18 18
13 13 10 11 10 11 11 12 12 12 11 12 11 12 13 14 14 14 14 15 15 14 12 13 12 10 10 13 13 13 14 15 12 14 15 14 14 15 17 16 18 17 17
13 12 11 11 11 12 12 11 12 12 12 12 12 12 13 14 15 15 14 14 15 16 14 14 15 16 15 12 11 12 14 14 13 14 14 15 14 15 15 15 16 15 15
13 12 11 10 12 11 11 12 12 13 12 13 13 13 14 15 15 14 15 15 15 17 18 16 15 14 12 12 11 11 12 10 13 14 14 14 15 14 14 13 13 14 14
12 12 11 11 10 12 12 13 12 13 13 14 14 15 15 16 15 14 14 14 14 15 14 15 14 14 14 12 11 11 12 14 12 11 13 13 11 13 12 12 12 12 11
11 12 11 10 9 11 10 12 13 13 14 15 15 15 15 15 16 15 14 14 12 12 13 14 13 13 13 13 11 11 12 12 10 10 12 9 11 11 11 10 10 10 10
11 10 10 11 10 10 12 12 12 13 13 14 15 16 13 14 13 13 14 12 12 11 12 12 12 12 13 12 11 12 11 8 9 10 10 10 10 10 9 9 9 9 8
12 10 10 10 11 10 11 11 12 11 11 11 12 11 12 12 12 14 12 13 12 11 10 8 8 10 9 8 6 10 9 8 9 9 8 10 9 8 8 8 7 7 7
13 11 12 11 11 12 12 12 11 11 11 11 11 10 12 12 11 12 11 10 9 7 6 6 6 5 5 7 9 10 9 8 8 8 6 8 6 7 5 5 6 6 7
12 12 13 12 11 12 12 12 12 12 11 11 11 12 12 12 12 11 10 8 7 6 5 6 8 5 4 5 7 9 10 9 8 8 6 6 6 5 4 4 5 5 6
13 13 13 13 10 12 11 12 12 11 11 12 12 12 11 11 11 10 8 7 6 6 7 7 8 8 7 8 7 8 8 9 8 8 7 7 6 5 4 4 4 5 6
13 14 14 13 12 12 12 11 11 10 12 13 12 10 10 8 8 7 7 6 6 6 6 7 7 8 7 8 7 7 7 8 9 8 8 7 8 7 6 6 6 7 7
14 15 15 14 13 13 12 11 11 11 11 11 10 7 7 7 7 6 5 5 5 5 5 6 6 7 8 8 7 7 6 6 7 6 7 7 5 9 8 8 8 8 7
15 16 15 14 14 13 10 10 10 10 9 8 7 6 6 6 6 6 6 6 4 4 5 6 6 8 7 7 6 5 5 5 5 5 5 5 6 6 6 8 8 8 8
16 16 15 13 13 12 11 9 8 7 8 8 7 6 6 5 5 7 6 5 3 3 4 4 6 4 5 4 3 4 4 4 4 6 5 4 4 5 5 4 7 9 9
16 15 15 13 12 11 9 8 7 8 8 7 7 7 5 5 5 5 5 5 3 3 5 5 4 4 3 3 4 6 4 3 4 4 4 5 5 3 3 3 3 5 10
16 16 15 14 11 10 9 10 10 9 8 7 7 6 5 5 4 4 5 4 2 3 4 3 2 3 5 4 3 6 6 5 5 4 3 4 5 4 4 4 4 5 5
17 16 16 15 12 10 9 10 8 8 8 8 7 6 6 6 6 5 7 5 4 6 3 3 2 1 4 6 4 2 4 7 6 4 3 3 4 5 5 4 3 3 5
19 18 17 16 14 12 10 10 7 8 7 8 8 7 7 7 7 5 6 5 4 3 4 2 3 3 5 4 6 5 3 3 3 3 3 4 4 5 4 3 2 3 4
19 19 17 16 15 13 13 10 10 9 6 8 7 7 7 8 8 7 6 6 5 5 4 3 2 2 4 4 3 5 6 4 3 6 5 4 5 4 3 0 2 3 4
20 19 18 16 15 14 13 10 10 10 6 8 8 6 6 7 7 9 7 6 5 6 5 4 2 2 2 3 4 3 3 3 3 3 3 6 5 3 2 1 2 2 3
19 18 17 17 16 15 14 13 10 6 8 6 7 7 8 8 8 9 9 8 7 5 5 4 4 3 1 2 3 3 5 5 6 2 1 2 1 3 1 1 1 2 3

GFSSE_925_spd_099.txt.gz
Wind_Speed
11 11 13 10 9 9 9 9 9 11 10 11 14 15 17 16 17 17 19 20 20 20 19 17 16 15 17 17 18 18 17 17 18 18 18 19 18 17 15 15 18 16 16
16 13 12 10 9 9 8 9 10 11 12 12 13 15 15 16 17 17 19 19 20 18 17 18 18 16 17 17 18 17 16 17 17 18 20 21 20 20 19 19 19 17 17
18 13 11 8 8 9 10 10 11 12 11 13 13 14 15 16 16 18 17 19 18 18 18 17 17 17 16 15 16 16 17 16 13 14 21 18 18 19 20 20 19 18 18
16 15 12 11 10 10 11 11 11 11 12 12 13 13 15 16 16 17 16 17 18 18 17 17 18 16 15 15 15 16 18 20 16 9 19 21 18 18 19 19 19 19 19
16 14 12 12 11 11 11 11 10 11 12 12 12 13 14 15 16 15 17 17 17 16 15 14 14 16 16 15 14 16 15 13 17 19 18 20 19 19 20 18 19 18 18
20 16 12 11 11 12 13 12 11 11 12 12 13 14 14 14 14 15 16 16 14 12 12 12 12 12 14 14 14 15 16 14 14 18 17 17 16 16 17 17 17 17 16
23 15 12 12 13 12 12 12 12 12 12 13 13 13 13 14 15 15 15 15 15 14 14 15 16 15 14 13 13 17 18 16 15 21 18 16 15 15 15 16 15 15 14
23 16 13 12 12 12 12 13 12 12 14 13 14 14 14 15 15 16 16 16 17 16 15 14 15 15 14 14 14 14 13 12 16 18 15 15 14 13 13 13 14 14 13
20 15 16 13 12 13 13 13 13 13 14 14 15 15 16 15 16 15 15 15 14 14 13 14 15 16 14 14 16 17 17 20 14 14 15 13 12 12 12 12 12 12 11
15 11 15 18 13 14 12 13 13 14 15 14 15 16 15 15 15 14 15 14 13 13 13 13 15 16 17 15 16 13 11 10 12 13 12 9 9 10 10 10 10 10 10
14 12 18 14 12 13 13 12 14 14 14 16 14 13 12 14 13 12 12 12 11 12 13 14 13 12 16 18 15 11 9 9 12 12 9 11 9 8 8 9 9 9 8
12 14 16 13 13 14 15 14 13 13 11 11 14 11 12 11 10 12 9 10 11 10 11 11 10 9 3 5 8 8 9 9 10 9 8 9 6 7 7 7 7 7 6
12 14 15 13 12 12 13 15 12 14 12 11 9 13 14 13 14 13 10 10 5 6 5 4 2 6 7 9 9 9 9 9 9 8 7 7 6 5 5 5 6 6 6
13 13 15 14 9 13 13 12 13 13 13 15 11 11 10 11 11 8 9 9 2 11 5 10 9 6 8 8 8 10 9 8 9 9 6 5 5 4 4 4 5 5 5
15 14 16 14 7 10 10 12 13 13 13 12 12 8 10 11 10 9 5 8 6 6 6 8 7 7 8 8 9 8 9 8 8 10 7 6 5 4 4 5 5 5 5
15 15 15 14 13 7 11 11 10 11 13 14 12 10 6 10 9 9 6 7 6 6 7 7 5 2 9 10 6 7 8 9 7 8 9 9 7 6 6 6 6 6 6
15 16 14 14 13 14 13 14 9 14 13 13 12 7 6 6 1 6 6 6 8 6 7 5 7 5 8 8 7 4 8 6 8 6 7 8 8 10 7 7 7 7 7
17 16 15 16 15 14 12 9 9 9 13 11 10 8 6 6 5 2 7 6 5 1 5 2 6 6 6 8 5 6 6 7 5 5 5 4 8 8 8 6 7 7 8
17 16 13 14 15 12 12 10 7 6 4 8 8 9 7 6 3 6 4 5 3 2 3 6 5 3 3 4 11 7 4 6 6 7 5 5 5 4 6 7 8 10 10
17 16 14 14 14 10 11 8 9 9 6 7 7 12 7 6 4 3 5 3 6 5 5 8 8 4 3 3 5 7 5 5 4 5 5 7 5 4 5 2 3 5 11
18 17 15 12 13 8 10 11 11 10 9 7 8 7 5 5 5 4 5 4 3 5 9 3 5 2 3 2 9 8 6 7 5 5 4 6 4 5 5 4 4 4 1
18 17 15 15 13 12 10 5 5 4 7 7 9 7 6 6 4 5 1 4 2 7 2 1 5 6 7 3 7 1 5 7 5 7 4 4 2 5 6 5 4 4 5
20 18 16 14 13 11 7 7 3 3 4 6 6 9 8 6 6 2 4 2 2 4 9 3 2 5 3 4 4 7 4 3 8 7 5 5 5 5 5 4 3 3 2
22 18 17 15 13 11 9 11 7 4 4 7 7 8 11 7 7 6 5 4 5 6 6 3 1 6 7 4 2 6 5 6 4 4 6 6 5 7 2 5 3 6 2
21 20 17 15 14 11 11 6 8 9 6 5 4 8 4 8 8 9 6 6 5 6 5 2 2 6 5 10 4 4 2 3 2 10 4 10 5 4 6 5 2 1 3
22 21 20 17 15 13 11 9 5 2 4 3 3 3 9 12 10 10 9 7 6 4 3 4 4 3 6 7 8 7 5 7 7 2 2 3 2 5 7 6 6 2 2

GFSSE_925_spd_102.txt.gz
Wind_Speed
21 19 16 11 10 10 9 9 11 12 13 15 16 15 16 17 19 20 20 21 22 20 19 19 20 19 19 18 17 17 17 20 21 21 21 20 18 17 15 17 17 16 17
23 18 17 15 13 10 9 9 11 13 14 14 14 16 16 17 19 19 19 17 17 19 19 20 20 19 18 16 16 15 16 17 17 21 23 22 21 20 19 18 18 18 18
21 17 15 13 12 11 12 11 11 12 13 13 15 15 16 19 19 18 18 17 18 18 19 18 19 17 16 16 16 15 14 13 13 15 19 21 21 20 20 19 18 18 18
22 18 15 15 14 12 13 13 12 13 13 14 15 15 16 18 18 17 18 17 19 20 19 19 18 16 15 16 14 15 14 13 20 21 21 20 19 19 18 20 19 19 18
23 19 17 15 14 14 13 13 13 13 14 15 15 15 16 18 18 18 18 16 16 17 16 17 17 16 14 15 15 16 20 21 21 23 23 22 20 18 18 18 18 17 17
23 19 17 15 14 13 14 13 13 14 14 15 15 15 16 17 18 17 15 14 14 14 13 15 16 14 13 15 15 16 14 13 22 21 18 17 17 17 17 17 16 16 14
21 20 16 16 14 13 13 14 13 14 14 15 15 15 16 17 17 16 15 15 16 17 17 17 15 14 14 16 17 15 21 18 21 20 18 16 16 16 16 15 14 14 13
24 21 17 16 15 14 14 13 13 14 14 15 16 16 16 17 17 17 18 19 18 17 16 15 15 14 16 17 16 17 22 20 18 15 15 15 14 13 13 13 12 12 11
21 20 18 16 15 15 14 14 14 14 14 15 16 17 17 17 16 16 17 16 16 16 15 15 16 16 17 18 18 18 21 18 19 17 14 12 12 12 11 11 11 11 10
23 24 23 19 15 16 13 14 15 14 15 15 16 15 18 16 15 16 16 15 15 14 15 15 17 19 21 18 15 13 14 12 16 11 9 11 10 10 10 10 9 9 9
23 26 21 23 18 15 13 13 14 14 15 16 15 17 18 16 13 11 12 14 15 16 17 17 17 17 13 11 13 11 10 9 17 11 9 10 9 8 8 8 8 7 7
25 22 21 17 18 19 14 15 12 15 12 11 6 10 9 12 13 9 11 13 12 8 10 13 15 15 12 5 5 10 14 13 12 7 7 8 8 7 7 7 6 6 6
31 25 23 16 20 17 18 18 15 16 17 11 8 8 13 14 10 9 11 7 11 6 5 4 6 9 3 4 15 9 11 14 15 9 7 7 6 6 5 5 6 6 6
22 22 18 12 14 13 17 16 16 17 18 12 8 9 12 12 11 4 8 5 8 6 16 11 8 9 13 11 13 10 10 14 12 6 7 6 5 5 5 5 5 6 6
19 21 18 10 12 5 11 14 12 20 20 15 13 10 11 12 5 12 6 5 14 8 6 10 7 3 9 10 11 12 9 11 13 8 8 7 6 6 6 6 6 6 6
18 23 19 12 7 10 16 14 14 15 16 14 11 10 14 11 4 8 5 3 11 5 7 8 12 6 11 11 9 10 12 5 9 8 13 11 9 8 7 7 6 6 6
17 25 19 16 10 9 13 11 8 10 16 13 15 9 4 9 8 10 5 12 3 5 5 6 3 9 14 10 9 9 9 11 5 8 7 13 12 10 8 7 7 6 6
20 21 17 21 16 12 9 2 7 7 11 8 10 8 4 7 5 4 6 4 2 4 7 6 6 1 10 10 9 11 10 6 6 5 8 9 7 10 10 8 8 8 8
20 16 19 18 21 14 9 6 7 7 6 13 9 8 5 5 6 3 3 5 2 11 6 7 6 7 1 8 9 9 12 6 9 8 5 7 9 6 7 7 9 10 10
20 14 25 19 19 14 8 5 2 9 7 9 11 9 7 6 4 2 3 5 5 8 6 7 10 3 6 5 11 9 8 5 10 7 9 11 6 10 5 4 5 6 7
22 15 19 23 16 13 11 14 10 8 10 11 6 9 7 6 3 2 2 7 5 8 10 4 6 10 5 5 4 7 5 7 9 8 12 15 6 11 4 4 4 8 2
24 20 16 19 17 16 12 5 5 10 8 10 14 9 9 7 5 1 4 7 4 4 4 2 2 7 1 3 8 2 3 10 12 11 3 9 6 9 9 8 4 4 2
26 24 24 17 16 15 10 9 4 7 2 10 6 9 7 9 7 3 2 3 5 1 2 5 1 7 9 3 2 4 2 1 8 7 8 5 6 6 10 6 11 3 4
26 23 23 22 16 13 12 11 13 12 8 6 11 3 6 10 9 8 6 6 1 14 14 10 1 4 8 11 6 2 1 2 2 1 10 9 7 8 7 11 13 9 5
29 28 24 19 17 14 12 10 8 8 8 9 5 6 14 13 9 9 8 7 5 6 10 9 6 6 10 11 16 5 4 9 2 4 2 7 11 12 4 4 6 11 5
30 28 26 23 18 13 13 9 7 5 3 4 4 10 10 9 8 9 8 4 1 6 7 5 4 6 8 10 13 18 19 13 11 6 5 3 4 10 10 8 1 10 9

GFSSE_925_spd_105.txt.gz
Wind_Speed
19 18 14 13 13 12 11 11 11 11 12 14 17 18 19 20 23 25 24 21 21 21 21 19 19 19 19 20 20 20 19 23 23 22 21 20 19 18 16 17 17 16 17
25 19 15 14 13 13 12 12 11 12 13 14 17 17 17 18 19 21 20 19 20 19 20 19 18 18 18 18 21 21 20 19 21 22 21 21 19 19 18 18 18 17 17
25 20 16 13 12 12 12 12 12 12 14 14 17 18 18 17 18 19 20 19 19 17 18 17 15 17 18 18 18 18 14 16 16 21 22 22 19 18 18 18 18 17 16
26 19 17 15 13 13 13 12 12 12 13 15 16 17 16 17 18 19 19 19 19 17 17 15 14 17 17 18 18 15 19 20 20 18 21 19 18 18 18 18 17 17 16
27 20 19 17 16 15 14 13 13 13 14 15 16 16 17 16 18 18 17 18 18 16 16 14 13 16 18 17 19 17 19 21 21 22 22 19 18 17 17 17 16 15 14
24 23 19 16 17 15 15 14 14 14 14 15 16 17 16 16 16 15 15 15 14 13 13 13 13 17 18 15 20 16 20 18 18 17 18 18 18 15 16 15 15 13 13
24 24 21 18 17 16 15 15 15 15 15 16 17 16 17 16 14 14 15 15 15 15 13 12 14 18 17 18 19 21 25 20 16 17 18 17 16 16 15 13 13 13 12
24 24 21 19 17 17 16 16 16 15 15 16 17 17 17 16 16 16 16 15 13 13 12 12 16 17 17 17 18 19 17 16 15 15 16 14 13 14 13 12 11 10 10
23 23 22 20 18 17 16 17 17 16 16 17 16 16 17 16 16 17 15 14 13 12 11 13 16 17 18 17 17 20 20 13 15 14 14 13 13 12 12 11 10 10 9
25 24 21 20 18 17 17 15 16 16 16 16 15 16 16 17 16 16 16 14 14 13 13 13 14 16 16 14 13 18 18 14 13 8 12 12 11 11 10 10 9 9 8
26 22 23 21 17 15 17 15 15 15 16 16 16 16 16 18 16 14 14 14 12 11 15 16 14 14 13 11 10 10 10 10 8 9 11 11 10 9 9 8 8 8 6
25 23 25 21 16 16 16 17 17 17 16 15 16 16 11 13 12 11 12 13 9 6 8 7 8 6 7 11 11 15 18 15 6 8 10 10 9 8 8 7 7 7 6
25 24 25 20 21 18 20 20 18 13 14 13 16 15 11 12 11 10 13 10 7 5 11 10 7 4 4 7 11 13 19 10 7 8 9 9 8 7 6 6 6 6 5
29 24 24 20 20 16 17 16 18 17 14 15 14 14 13 16 12 11 6 7 9 10 9 9 9 8 3 3 5 2 18 9 7 7 9 8 8 7 6 6 6 5 3
28 24 23 18 15 15 16 18 21 11 13 13 9 9 11 12 9 14 10 12 9 3 4 3 4 6 2 11 10 10 14 9 9 9 9 9 8 8 7 6 5 4 3
28 22 21 14 14 15 16 13 18 13 14 13 12 12 12 14 15 12 7 5 10 4 9 6 10 8 7 8 13 12 9 7 7 12 12 12 9 8 7 7 5 4 4
28 22 21 14 13 16 18 14 10 14 11 14 14 9 10 10 8 12 7 5 7 7 10 7 5 8 9 10 10 13 11 8 5 7 12 12 10 9 8 7 6 5 5
28 24 21 16 12 14 15 7 16 21 17 9 10 9 6 8 10 3 5 0 4 8 3 13 14 9 13 11 12 13 12 8 9 7 6 9 9 8 8 6 5 4 4
27 25 21 19 17 12 12 9 10 10 14 13 14 9 8 5 4 1 3 3 3 6 2 3 4 10 16 14 12 15 10 10 10 10 6 8 4 4 7 7 4 4 4
25 22 27 21 14 12 10 10 10 13 12 13 10 10 8 6 5 5 7 1 1 3 5 9 10 7 6 5 5 11 13 9 10 10 11 10 6 5 6 2 5 1 2
25 25 23 25 19 14 14 9 10 11 11 8 10 8 6 6 2 1 2 2 3 4 7 7 10 15 5 5 6 3 8 9 13 12 10 12 10 8 8 3 5 7 3
25 28 25 24 22 16 10 5 6 6 4 10 9 8 6 4 2 3 5 4 2 6 5 6 9 15 7 5 4 3 2 4 10 13 16 13 12 10 13 9 3 4 2
27 31 28 23 20 19 13 8 9 8 6 9 8 7 6 5 4 3 1 3 1 1 3 4 9 11 14 13 7 1 1 3 3 7 7 10 9 10 11 11 7 5 6
33 30 27 24 18 15 16 13 12 14 8 9 9 8 7 7 6 3 1 2 3 3 3 5 9 11 13 18 13 6 3 4 2 3 3 7 6 3 13 5 9 13 8
34 34 32 25 19 18 17 12 10 10 8 9 9 10 13 8 5 6 3 3 4 4 1 6 7 11 10 14 16 12 5 15 29 17 3 10 13 24 18 16 12 11 13
31 32 32 28 23 19 17 13 12 12 15 11 8 8 4 7 8 8 8 8 7 6 4 1 7 6 8 10 13 13 11 4 15 10 3 2 8 13 17 14 14 19 17

GFSSE_925_spd_108.txt.gz
Wind_Speed
20 14 10 8 8 9 10 12 12 13 15 16 17 18 19 20 21 21 20 20 19 18 18 19 17 18 18 18 18 19 19 20 21 19 19 17 17 16 16 16 17 16 16
22 17 13 10 9 10 10 12 12 13 14 16 17 18 18 18 17 18 19 18 18 17 18 17 17 17 18 18 17 17 19 20 21 20 18 18 17 16 16 16 16 17 16
23 18 15 13 11 11 12 11 11 12 14 16 16 19 18 16 16 17 17 17 16 15 15 16 17 16 16 17 14 13 15 18 19 20 20 18 18 16 16 16 17 15 15
24 21 18 14 12 12 12 12 12 12 14 16 17 17 17 17 17 16 15 15 16 13 14 14 15 15 14 16 15 15 14 16 16 19 20 18 17 15 15 15 15 15 14
23 19 17 15 15 13 13 13 13 14 14 15 15 15 15 16 16 17 15 14 13 12 12 13 12 15 14 15 17 19 17 16 17 18 18 18 17 15 15 15 14 13 14
22 19 17 16 15 14 13 14 14 14 15 15 15 15 15 15 14 13 12 11 11 11 10 13 15 13 15 15 14 19 15 14 15 17 17 17 16 14 13 13 13 13 12
23 19 17 17 15 14 13 14 14 14 15 16 15 15 14 13 13 12 11 10 10 9 10 13 14 15 17 17 16 15 12 12 14 16 16 15 14 13 12 12 12 12 11
25 21 18 17 16 14 14 15 14 15 16 16 14 14 13 12 14 12 11 10 11 9 11 13 14 15 14 18 19 14 10 10 13 14 13 14 14 12 11 10 8 9 8
24 22 19 18 16 15 15 15 15 14 16 16 15 15 14 14 14 12 11 9 8 8 10 12 14 13 13 15 14 12 8 10 11 11 11 11 9 9 9 8 8 8 7
23 22 21 20 18 17 16 15 15 16 16 15 16 16 16 14 12 11 11 9 8 8 9 11 13 12 12 13 14 11 7 7 6 8 10 9 9 8 8 7 7 7 7
22 22 22 20 19 20 17 16 17 16 17 17 17 15 16 14 12 10 10 9 11 10 9 10 12 11 10 11 13 11 4 6 4 7 8 9 8 7 7 6 6 5 5
24 24 22 19 19 20 19 17 18 17 17 17 18 17 14 13 13 11 11 11 8 8 7 5 4 4 4 4 5 8 10 8 5 7 7 7 7 6 5 5 5 4 4
27 22 22 19 21 20 20 20 19 17 16 17 17 14 13 12 12 10 8 7 9 6 4 5 3 3 1 4 4 2 10 10 6 6 6 6 6 5 4 4 3 3 2
28 25 22 21 20 21 22 20 16 17 15 14 13 10 13 11 10 9 4 4 6 6 5 3 4 4 5 3 6 7 9 8 4 5 5 6 6 4 4 3 2 2 2
27 27 23 20 19 18 17 15 14 16 14 14 13 9 15 10 9 7 2 3 4 5 6 6 7 6 4 0 7 8 13 7 3 4 5 5 5 4 3 3 2 2 2
29 25 24 19 17 18 15 15 13 13 15 11 9 10 13 9 6 6 1 2 3 4 4 8 7 5 4 2 8 10 9 5 3 5 6 6 5 4 3 3 3 3 3
31 28 26 18 15 19 17 12 14 16 15 11 12 10 11 8 7 5 3 3 11 9 6 6 8 8 5 4 7 6 9 3 3 3 5 5 5 4 3 2 2 2 3
30 27 24 19 20 21 16 16 18 16 12 16 14 10 7 6 5 1 5 10 7 8 7 6 10 12 8 6 6 8 7 8 3 5 3 2 4 4 3 3 1 2 3
29 28 23 20 18 15 18 19 16 18 18 14 11 9 9 7 5 4 5 7 7 2 4 4 6 4 13 10 8 8 7 9 8 7 8 4 3 2 3 3 4 4 4
31 28 24 19 19 14 18 15 17 17 14 12 11 10 8 5 4 5 4 2 4 5 7 8 10 12 2 6 9 13 16 10 8 7 10 6 8 5 6 5 4 4 4
31 28 25 24 21 17 16 13 15 17 18 15 13 11 9 6 4 1 4 3 4 5 9 11 13 16 9 7 2 4 9 14 14 8 13 10 9 7 6 8 6 8 7
34 32 29 24 23 18 15 11 13 13 13 14 10 10 9 6 3 1 3 2 2 4 7 12 15 15 12 13 4 2 2 3 9 18 12 15 13 11 11 12 13 10 7
35 34 32 26 22 19 17 12 13 11 10 10 10 8 9 6 2 1 2 1 2 1 4 10 13 14 14 13 9 5 3 2 4 1 2 12 11 10 10 9 8 4 2
33 33 32 28 24 20 18 13 14 14 13 14 13 11 9 9 8 4 1 3 1 2 1 6 9 12 12 15 9 15 11 3 2 2 15 21 14 11 6 2 1 5 3
34 36 32 30 25 22 19 16 14 13 11 12 11 13 11 11 8 8 6 5 3 1 2 4 6 7 10 11 13 7 5 11 8 2 0 4 9 13 11 9 5 3 8
29 33 34 29 25 22 21 15 15 13 13 12 13 12 14 15 10 7 9 9 3 3 1 2 3 3 4 7 9 11 9 0 2 3 2 0 2 2 1 1 2 2 5

GFSSE_925_spd_111.txt.gz
Wind_Speed
16 13 10 9 10 12 12 13 14 14 14 16 15 15 16 16 16 15 16 15 15 15 16 16 17 17 16 17 17 16 15 16 16 15 14 14 15 15 15 15 15 15 14
18 12 10 9 9 12 13 13 14 14 14 15 16 16 15 14 13 15 14 14 15 15 15 16 17 17 17 16 17 17 16 17 16 16 15 14 14 14 15 14 14 14 13
17 13 9 9 9 11 11 13 13 15 13 15 15 15 13 13 13 13 13 13 14 13 14 16 15 14 14 13 14 14 16 16 16 15 16 16 15 14 14 14 14 13 13
17 14 11 8 10 10 12 12 13 15 15 15 15 14 13 13 13 12 11 12 11 12 13 14 13 13 12 10 13 14 14 14 14 16 17 16 15 14 14 13 13 12 12
17 14 13 11 10 11 11 12 13 14 14 13 14 13 14 12 12 12 12 11 11 11 12 12 11 12 12 13 14 15 12 14 15 15 16 15 15 13 13 12 12 11 11
17 14 12 13 11 11 12 12 13 14 14 13 13 13 13 11 11 11 10 10 9 10 11 11 11 10 11 11 13 14 12 14 14 15 15 14 13 11 12 10 10 10 9
18 15 14 13 12 12 13 13 13 14 15 14 14 12 11 10 9 8 7 7 8 9 10 11 12 11 11 11 13 10 10 10 11 12 13 12 11 12 10 11 9 8 8
19 16 15 13 12 13 13 13 13 14 14 14 12 11 10 10 9 8 9 9 7 8 9 10 12 10 12 12 8 7 9 9 10 11 12 12 9 8 9 6 6 6 6
18 17 15 14 12 13 14 14 14 14 14 12 12 11 11 11 9 8 7 7 7 8 9 10 9 9 11 10 7 7 7 7 7 7 8 9 6 7 6 5 5 4 3
17 16 17 15 14 15 14 13 13 13 13 13 12 12 11 11 9 8 8 8 8 8 8 9 9 9 9 8 7 3 3 4 3 5 6 6 6 6 5 4 4 4 4
16 16 16 16 16 15 14 12 13 12 12 12 11 12 11 11 10 9 9 9 8 8 7 6 6 5 5 5 4 3 2 2 1 4 4 5 6 5 4 3 3 3 3
17 17 16 16 17 16 15 14 14 13 14 14 12 11 10 10 9 10 9 9 8 7 8 7 5 3 1 2 4 6 8 4 3 2 4 5 5 4 3 3 3 3 3
22 19 18 18 18 18 16 16 16 14 14 14 12 10 9 9 8 7 5 4 5 4 3 2 1 1 5 8 6 6 6 8 4 4 4 4 4 4 2 1 2 2 2
23 21 19 18 18 17 18 17 16 14 14 14 13 9 9 8 8 6 2 1 2 3 1 2 4 6 7 8 6 4 2 4 3 4 4 3 3 3 1 1 2 3 3
23 21 20 20 17 18 18 16 14 13 13 12 10 7 10 8 7 5 6 3 3 4 4 3 7 7 7 6 3 6 8 6 2 3 3 4 3 2 0 1 2 2 3
23 24 23 20 19 18 15 14 14 14 13 11 10 7 10 7 4 4 4 4 4 4 5 4 5 6 8 8 3 5 3 2 3 2 3 3 3 2 0 0 0 1 2
28 26 24 21 18 17 16 12 13 13 14 12 8 9 9 6 3 4 3 3 5 7 5 5 3 6 8 4 2 4 4 2 1 2 2 3 3 2 1 1 2 3 5
28 25 24 21 21 19 16 14 14 14 11 13 11 9 8 7 6 3 3 3 11 9 7 4 4 5 2 1 1 2 5 6 3 2 1 1 2 1 1 1 3 4 5
31 29 23 20 22 19 14 14 17 16 10 12 10 7 8 9 7 6 4 5 5 4 8 5 8 3 5 4 4 4 7 5 7 6 5 4 4 3 2 3 4 5 6
33 30 25 24 23 19 14 15 16 15 14 14 10 10 7 6 7 6 5 4 6 5 7 6 9 8 3 4 9 11 10 8 7 7 8 10 9 9 9 9 9 10 8
31 30 28 26 22 22 19 16 13 15 15 13 11 9 8 7 5 5 3 5 6 6 9 11 11 10 10 4 2 1 5 14 12 10 9 12 15 15 14 14 12 12 7
34 32 29 26 24 22 18 18 14 18 15 11 7 7 9 7 5 3 5 7 5 6 8 10 11 10 9 8 3 3 3 3 5 8 13 11 14 14 14 13 11 8 6
32 33 31 29 28 23 18 16 16 14 13 13 11 10 7 6 5 2 2 2 2 4 7 9 10 10 10 13 7 3 1 2 2 9 2 9 14 15 14 10 8 6 7
31 31 32 31 28 24 21 16 18 16 15 12 13 12 10 8 7 4 1 2 1 3 5 7 7 9 10 7 8 8 4 1 2 1 7 8 4 2 3 4 6 11 9
29 34 33 28 26 25 23 20 18 16 15 12 13 13 11 10 10 8 6 7 4 5 6 5 6 5 7 9 6 1 2 6 6 2 1 3 2 1 2 1 4 6 9
26 31 33 29 27 25 23 20 17 16 15 13 16 15 15 14 10 12 11 9 6 5 5 6 4 2 3 6 7 7 5 1 2 3 2 3 5 5 4 8 10 8 9

GFSSE_925_spd_114.txt.gz
Wind_Speed
12 8 6 5 6 7 11 11 13 13 14 16 17 17 16 15 15 14 14 14 15 15 15 16 15 15 15 14 13 13 14 14 14 13 14 15 15 15 15 14 14 14 14
15 11 10 7 8 6 10 12 14 13 15 16 17 15 15 14 14 14 14 15 14 15 15 16 16 15 16 16 15 13 13 13 14 14 15 15 15 15 15 14 14 14 14
17 12 13 11 10 9 11 11 12 12 14 15 15 13 12 12 13 13 14 15 13 14 14 16 14 13 13 15 15 15 15 15 16 16 17 16 15 15 16 15 14 14 13
16 13 11 11 9 11 11 12 12 12 14 14 13 12 11 12 13 12 12 13 13 13 13 14 12 12 11 12 15 15 14 14 16 17 16 16 15 15 15 14 14 13 12
14 12 10 9 8 10 9 11 12 12 13 12 12 12 12 11 12 13 13 12 13 12 12 13 15 14 17 15 15 15 13 14 15 16 16 15 15 14 14 13 12 11 11
14 12 9 10 8 10 10 10 11 11 11 12 12 12 12 12 10 12 12 12 12 11 11 13 13 14 15 17 15 13 12 14 14 16 16 14 14 12 12 11 11 10 10
15 13 10 11 11 10 10 11 11 12 11 11 12 11 10 10 9 9 10 11 11 11 11 12 14 15 14 14 13 11 11 11 11 13 14 12 12 11 12 11 10 9 9
15 13 13 9 12 11 11 12 12 12 11 11 9 9 9 9 9 10 12 11 11 11 11 11 13 16 13 10 10 12 11 9 10 11 11 10 8 8 7 7 7 7 7
13 12 12 11 11 11 11 11 12 12 11 11 9 9 10 10 9 10 11 11 11 10 10 10 11 12 11 8 8 10 9 7 7 8 8 7 5 5 6 6 6 5 4
14 12 13 11 11 11 11 11 11 11 11 10 10 11 11 10 9 10 12 12 11 10 10 9 10 9 8 9 6 5 6 7 4 5 5 5 5 6 6 6 6 5 5
13 14 14 13 12 13 11 11 12 11 10 10 10 9 10 9 9 12 11 11 11 11 10 9 7 6 5 4 3 3 5 4 4 3 4 5 5 5 5 5 5 5 5
15 15 15 14 14 13 11 12 13 12 12 11 10 9 9 10 10 12 12 11 11 12 11 8 6 3 2 2 4 5 7 4 3 2 4 4 4 4 4 5 4 4 4
16 15 15 15 14 14 13 13 12 11 11 12 10 9 8 8 8 7 7 7 7 7 6 5 3 1 4 5 4 4 5 2 2 2 3 4 3 4 3 4 3 3 4
18 16 15 16 15 13 12 12 11 11 12 12 9 7 5 5 6 4 3 3 3 4 4 3 3 4 5 5 5 3 3 1 1 2 3 4 3 3 3 3 3 4 4
19 17 17 16 16 14 14 13 12 11 11 10 7 4 4 3 3 2 7 6 5 4 3 3 4 6 6 3 4 3 2 2 2 2 3 3 3 3 2 2 3 3 5
20 18 18 17 15 15 15 13 11 11 11 10 7 5 5 4 2 2 5 5 5 4 3 3 4 5 8 5 3 5 4 3 4 3 3 3 4 3 3 2 2 3 4
21 20 21 19 17 17 14 13 12 13 10 10 7 7 7 4 3 3 2 4 7 6 4 4 2 3 4 4 5 2 4 3 3 4 4 3 3 2 1 2 3 4 6
23 22 21 20 18 17 15 12 12 11 11 10 7 7 6 4 4 2 3 7 4 7 5 4 1 1 2 2 3 1 1 1 3 4 3 3 2 1 2 4 5 6 6
26 24 23 21 20 19 15 13 12 10 9 9 8 7 6 8 5 5 5 4 6 7 7 6 5 4 3 2 2 1 2 3 3 4 4 6 6 7 7 6 7 7 7
26 25 23 22 22 21 16 14 15 12 9 10 7 5 8 6 5 4 4 4 5 5 6 5 8 7 4 3 5 3 4 3 4 4 6 7 9 10 11 10 10 9 6
25 24 24 22 24 24 19 18 16 15 11 9 7 8 6 7 4 3 4 3 4 5 8 7 8 8 7 2 1 3 1 3 7 8 9 8 8 10 10 10 11 10 9
29 28 25 25 25 22 21 18 18 17 14 11 8 6 6 7 5 4 4 7 5 5 6 8 8 5 7 4 3 3 3 2 4 7 8 10 11 10 10 12 13 11 9
30 32 30 27 25 23 20 18 15 15 12 11 10 10 8 7 5 5 4 4 5 4 5 8 9 7 6 9 5 3 1 1 2 6 4 4 6 8 9 11 9 9 10
32 34 31 29 26 24 21 20 19 18 16 13 12 11 9 8 9 6 4 5 4 5 5 6 7 7 7 5 6 8 4 2 2 2 2 3 3 3 5 6 6 7 8
27 35 33 29 28 25 23 20 20 18 15 12 13 13 11 10 9 7 6 6 5 4 5 4 5 6 6 5 2 2 1 3 3 2 2 5 5 5 6 7 8 7 7
23 30 32 31 28 26 24 21 20 20 18 15 15 15 13 12 10 10 9 7 5 4 4 4 3 4 4 4 5 5 3 2 1 2 2 2 5 8 11 10 11 10 6

GFSSE_925_spd_117.txt.gz
Wind_Speed
7 8 8 7 7 6 5 10 13 15 15 17 17 18 17 16 16 16 16 15 16 15 15 14 15 15 15 14 14 13 14 14 15 15 16 16 15 16 15 15 15 14 14
15 8 7 7 8 5 7 10 12 15 14 15 16 18 16 17 17 15 15 15 16 16 15 15 15 17 17 17 15 14 13 14 16 16 17 16 16 15 14 15 15 14 14
16 12 9 8 9 6 7 10 11 14 14 15 14 14 14 16 16 16 15 14 15 15 15 13 14 15 16 17 17 17 16 17 17 16 16 15 15 15 15 14 14 13 13
18 14 8 7 7 5 9 10 11 13 14 13 13 12 14 16 15 14 15 14 15 14 14 13 12 12 15 17 16 16 15 16 17 15 15 15 14 14 14 14 14 13 12
18 13 10 9 8 8 9 10 11 13 13 12 13 14 14 15 15 14 14 14 15 14 16 17 17 16 15 16 16 15 15 16 15 14 14 14 13 12 14 13 12 12 12
15 13 11 9 8 9 9 12 11 11 11 12 14 13 14 13 14 14 14 13 13 14 15 15 16 16 16 15 14 13 14 14 13 13 12 13 12 12 12 12 11 11 10
14 11 10 9 8 8 10 10 12 11 11 12 12 12 12 12 12 12 13 13 13 14 15 15 15 16 15 13 13 12 12 11 11 11 12 11 11 12 11 11 10 9 8
12 11 9 10 9 8 9 10 10 11 11 11 11 11 11 12 13 12 13 14 13 13 13 16 15 12 11 12 14 12 10 10 9 9 9 9 9 8 7 8 8 8 6
11 11 9 9 9 8 9 9 10 10 10 10 10 10 12 13 13 14 14 14 13 12 11 12 13 11 9 10 11 11 10 7 7 6 6 7 5 6 6 6 6 5 5
11 11 10 10 9 9 8 9 9 10 9 10 12 11 13 14 14 13 14 13 12 11 10 10 9 8 9 8 9 9 10 9 4 5 5 5 6 6 6 7 7 7 6
10 11 10 10 9 10 9 9 10 10 10 10 10 10 11 11 12 12 13 13 12 10 9 8 6 5 5 6 5 6 6 4 3 4 5 5 6 5 5 6 6 6 6
11 11 11 10 9 10 9 9 9 9 8 8 9 10 11 11 11 11 11 12 11 11 9 6 4 2 4 3 4 4 2 1 3 4 4 5 5 4 5 6 6 6 6
12 10 11 10 10 10 9 9 9 9 8 9 9 9 10 10 9 8 8 8 9 7 5 3 1 2 4 3 2 1 2 3 4 4 3 5 5 4 5 6 6 5 5
14 12 11 11 10 11 10 9 9 9 8 8 8 6 6 6 7 5 4 4 5 5 3 2 2 4 6 6 4 2 4 5 4 4 3 5 5 5 4 4 4 5 5
14 14 12 12 11 10 12 9 10 10 9 8 7 4 4 3 4 7 7 6 5 4 3 2 3 6 8 7 8 6 6 5 5 4 3 5 5 6 5 4 5 5 6
14 14 13 12 12 11 11 12 10 9 8 7 4 3 4 3 2 3 5 4 4 3 2 3 3 6 7 6 8 9 7 6 7 6 4 3 4 4 4 4 4 4 5
14 14 14 13 12 13 12 11 10 9 7 6 5 3 3 2 1 1 2 3 4 3 2 2 2 4 3 6 8 7 7 7 6 6 5 3 3 4 4 3 3 3 4
14 14 14 14 14 13 12 11 10 9 7 5 3 3 3 2 3 3 2 3 2 2 2 2 1 2 3 5 6 5 4 4 4 5 4 3 3 2 3 4 4 5 5
15 14 15 14 14 14 13 10 9 8 6 4 5 3 4 5 3 3 5 1 3 4 3 3 3 4 4 4 4 3 3 2 1 0 3 4 4 4 5 7 7 7 7
16 15 15 15 14 15 11 12 10 6 7 7 6 6 6 5 4 2 3 3 4 4 3 4 5 4 3 3 3 2 1 1 0 1 2 3 3 5 6 8 8 8 9
16 17 17 16 16 15 12 9 8 11 8 8 8 7 7 6 4 3 3 3 3 4 5 3 4 4 4 2 3 2 1 1 2 2 4 3 4 4 6 8 10 8 7
19 19 18 18 18 20 16 15 11 12 8 8 8 8 8 7 4 2 3 5 3 2 3 3 2 1 3 2 1 1 0 2 1 1 4 5 7 8 7 9 9 7 8
20 20 18 19 19 21 18 15 14 13 11 9 10 9 8 8 5 3 3 4 4 3 1 2 2 2 2 4 2 0 2 1 1 1 2 3 4 4 4 6 7 6 8
22 20 20 18 19 21 20 14 16 15 13 12 11 11 10 9 7 5 5 4 5 5 4 2 1 1 2 2 2 3 3 1 1 1 2 2 3 3 4 3 5 5 7
22 22 22 21 20 19 21 17 15 16 13 12 12 12 11 10 10 8 7 7 6 5 6 4 2 1 1 2 1 2 0 2 2 3 4 3 4 5 5 5 5 6 6
21 22 23 23 24 22 21 20 18 17 15 12 13 11 11 9 10 11 9 8 7 6 7 6 5 3 1 2 3 1 0 2 2 1 2 3 6 4 6 5 5 5 4

GFSSE_925_spd_120.txt.gz
Wind_Speed
9 7 8 9 12 13 11 9 11 17 18 18 18 18 17 17 18 17 17 16 16 16 17 16 16 16 15 16 15 15 15 15 15 16 16 16 15 15 17 13 15 14 15
15 9 9 10 11 11 9 9 13 16 18 18 18 18 17 17 18 16 16 16 16 17 17 17 18 17 16 16 15 15 15 16 16 16 17 15 15 15 14 15 17 13 13
15 12 11 11 10 11 10 12 14 15 16 17 17 17 17 17 17 15 16 16 16 16 15 16 16 17 17 17 16 17 17 16 17 14 13 16 15 13 13 13 14 13 13
13 12 10 11 10 10 11 11 13 14 14 15 16 17 16 15 15 15 16 15 16 15 15 13 14 17 16 16 16 15 16 16 14 12 14 15 14 13 13 13 13 12 12
13 10 10 10 9 9 11 11 14 13 14 14 16 15 15 14 14 15 15 15 17 18 18 17 15 15 16 15 14 15 16 18 17 14 13 14 13 12 12 12 12 11 11
13 10 7 8 8 7 10 11 12 12 14 16 16 15 13 14 14 15 14 14 16 16 16 17 17 16 15 14 14 15 15 15 12 13 13 11 13 11 12 10 11 11 10
11 10 9 9 9 9 9 9 11 12 13 14 15 14 13 13 12 13 14 13 15 16 15 16 16 15 14 14 13 12 13 13 12 12 12 13 11 10 10 10 10 10 9
11 10 10 10 9 9 9 9 11 12 13 14 14 13 12 13 12 13 13 13 13 14 16 15 14 14 15 15 13 11 12 10 11 11 9 9 8 8 8 8 8 7 6
11 11 11 11 9 10 10 11 12 12 12 13 13 13 13 14 14 12 12 12 12 13 14 14 13 12 13 12 12 13 11 12 9 9 8 9 7 8 7 6 5 5 5
11 12 11 12 12 10 9 10 12 12 13 13 13 13 14 14 13 12 12 11 10 11 12 12 11 12 10 9 10 11 12 12 8 7 8 7 8 7 6 6 6 6 6
11 11 12 12 11 10 11 10 11 12 13 13 12 13 10 12 11 11 11 9 9 9 9 8 8 8 6 8 8 10 10 7 7 7 8 7 8 6 6 5 5 5 5
14 12 12 12 11 11 11 10 12 11 11 11 11 10 11 11 9 10 9 9 9 8 7 7 5 6 6 4 4 7 6 7 7 8 7 8 8 6 5 5 4 4 5
14 13 13 12 11 11 11 11 10 11 11 11 10 10 11 11 9 8 7 6 5 6 5 4 3 4 5 4 6 7 7 6 8 7 6 7 7 6 4 4 4 5 4
15 14 13 13 11 11 11 10 10 10 10 11 10 9 8 8 6 4 4 4 4 4 3 3 4 5 6 6 7 8 8 7 7 7 6 6 6 6 5 4 4 4 4
15 15 14 13 11 11 11 10 10 10 10 10 9 7 6 5 5 5 4 4 4 4 3 2 4 6 7 9 10 9 9 8 7 8 7 5 5 5 4 3 2 3 4
15 15 14 13 11 11 10 10 10 9 9 8 7 6 5 5 4 4 5 4 3 3 2 3 3 5 7 11 10 10 10 8 7 7 7 5 5 5 4 2 2 3 5
16 16 15 14 13 12 11 11 9 10 10 9 7 6 5 4 3 3 5 4 3 1 2 2 2 4 8 9 9 8 9 7 7 6 6 6 3 5 4 4 4 4 5
16 16 15 14 14 13 11 10 10 10 9 7 6 6 5 4 3 3 4 4 2 1 2 3 4 5 6 7 8 6 6 6 5 5 5 4 3 1 2 5 5 6 6
16 16 15 14 13 12 11 10 9 8 6 6 7 6 6 5 4 3 5 2 2 2 3 3 7 5 7 6 8 6 4 5 4 5 3 2 2 2 2 4 7 7 7
17 17 17 15 13 12 10 9 9 8 7 6 6 6 6 5 4 4 3 2 2 3 3 5 5 4 3 3 3 6 3 4 4 3 3 3 3 4 3 3 5 6 10
17 18 18 17 15 13 12 11 10 8 8 7 6 5 6 5 4 4 4 2 2 3 3 3 4 4 4 3 5 5 5 5 6 5 4 4 3 5 4 4 6 6 7
19 18 18 17 15 15 13 10 9 9 8 8 7 7 6 5 4 3 3 3 2 2 2 2 1 1 2 1 3 2 4 7 7 7 6 5 6 7 7 6 6 6 5
20 21 20 18 17 16 13 12 9 9 6 6 8 9 8 7 6 4 3 4 3 2 1 2 2 3 1 1 1 5 3 3 3 6 7 7 5 6 7 6 5 4 4
21 21 21 20 17 16 17 13 13 12 10 9 8 6 6 8 7 5 4 4 4 3 2 1 2 2 3 2 2 1 3 5 4 3 7 5 4 5 5 6 5 3 4
21 21 21 20 17 17 18 13 14 12 12 9 7 7 8 7 7 8 6 5 4 4 4 3 3 2 3 5 5 2 3 4 2 6 8 1 4 4 6 7 7 6 5
22 21 21 21 18 19 17 16 13 10 9 7 8 9 9 9 9 10 8 7 6 6 5 5 4 4 3 2 3 3 5 6 5 6 6 5 5 5 5 5 4 4 2

GFSSE_925_spd_123.txt.gz
Wind_Speed
17 17 15 15 15 14 13 16 13 15 13 14 15 15 16 15 16 16 17 16 16 16 16 15 14 15 14 14 14 15 15 15 16 17 16 15 15 13 10 12 18 15 15
20 17 17 14 14 13 13 13 13 15 15 15 16 16 17 16 16 17 18 17 16 17 17 16 16 16 15 14 14 14 15 16 16 17 17 16 14 13 15 17 18 13 15
18 17 16 14 13 13 13 13 13 16 15 15 16 16 17 16 16 17 17 16 15 14 15 16 17 17 16 15 15 16 15 16 14 13 14 14 13 13 12 14 15 14 14
18 17 15 16 14 13 12 13 14 15 14 15 16 15 16 16 16 16 16 15 14 12 14 16 16 17 17 16 16 15 17 15 18 15 11 16 13 13 14 14 14 13 13
20 19 16 15 15 14 13 14 14 14 14 15 15 14 14 16 16 17 16 16 15 16 15 15 16 17 17 16 15 17 15 11 9 6 16 15 14 11 12 12 13 12 11
22 20 17 15 14 14 13 14 13 15 14 15 15 15 15 15 15 15 15 14 15 16 16 17 17 17 16 15 14 16 10 8 4 17 16 14 13 11 11 9 10 10 10
17 16 13 13 13 13 12 14 14 13 15 14 14 14 13 14 14 13 14 14 15 15 17 17 16 15 14 13 14 13 12 12 14 13 13 12 10 12 11 11 10 9 7
12 18 12 12 12 13 12 13 14 14 14 13 13 12 12 13 13 13 13 14 15 16 16 15 15 15 14 13 12 13 9 9 11 11 12 10 9 9 9 9 8 6 6
13 15 13 12 11 12 13 13 14 14 14 13 13 13 14 13 12 12 12 13 14 15 14 13 12 13 14 13 12 11 10 13 10 8 12 9 9 8 7 6 6 5 4
10 16 16 15 14 15 13 13 14 14 14 13 12 13 13 12 11 11 13 12 12 12 12 12 11 10 11 11 12 13 12 8 9 9 9 9 9 8 7 7 6 5 4
15 12 16 17 13 17 14 13 14 15 15 15 14 11 13 10 10 11 11 10 9 9 9 9 8 6 7 13 12 8 3 2 8 11 8 9 9 6 6 6 5 4 3
14 24 18 17 15 14 17 12 13 14 12 13 10 8 10 10 12 10 8 10 8 8 8 7 7 4 4 8 5 5 4 7 8 10 8 9 8 6 6 5 3 3 3
14 23 17 15 15 15 15 14 13 13 11 11 9 9 10 10 9 10 7 6 5 4 6 0 4 3 4 3 3 8 8 8 8 10 8 8 7 6 4 3 3 3 4
15 14 17 15 13 13 15 13 15 14 13 12 11 10 9 10 7 5 7 5 5 6 5 3 8 5 4 2 7 7 7 8 9 10 8 7 6 6 5 3 2 3 4
16 17 16 16 11 8 10 8 12 11 14 12 12 8 7 8 6 6 5 3 3 5 6 4 6 4 6 7 7 7 7 8 8 11 8 7 6 5 4 2 1 2 4
17 16 17 16 14 13 6 7 10 10 12 12 11 10 4 6 4 6 6 8 6 3 5 5 1 2 9 7 7 7 8 8 8 7 8 6 5 3 3 2 2 3 4
17 17 17 16 14 13 12 12 11 10 11 9 12 8 5 5 4 6 5 4 6 3 3 3 3 3 7 7 7 7 7 7 8 7 5 7 4 6 3 3 3 3 4
17 17 17 17 16 14 14 12 11 10 9 7 8 10 7 4 6 4 8 6 5 5 5 5 6 4 6 7 7 7 6 6 6 6 4 3 3 6 2 3 4 4 4
17 17 17 15 16 14 13 10 9 10 6 10 6 10 8 6 4 2 5 5 5 6 8 6 5 6 4 6 8 5 5 7 6 8 4 4 4 3 1 3 5 5 5
18 18 16 16 15 13 13 8 8 10 8 9 9 9 9 6 5 5 5 3 8 6 6 8 5 2 4 5 5 8 6 6 6 7 10 8 6 4 6 3 7 11 6
18 19 18 17 15 14 14 12 13 10 9 8 11 8 7 6 5 5 6 4 2 3 7 5 5 6 5 2 3 6 7 8 10 9 9 8 8 7 3 6 6 6 8
20 20 19 17 16 14 13 9 5 10 9 11 8 9 7 7 5 5 2 5 5 5 3 2 5 11 3 2 14 6 7 11 17 15 11 7 6 6 6 6 3 7 7
21 21 21 19 18 15 10 11 4 3 5 6 10 9 9 8 6 4 5 5 1 5 10 1 5 7 7 6 7 10 6 4 13 13 10 9 3 8 6 5 7 5 6
23 21 22 20 20 17 14 15 11 9 12 11 11 7 9 8 8 7 5 5 5 6 3 2 3 9 12 12 4 8 6 3 8 4 12 37 10 10 7 5 7 1 2
23 22 23 22 20 18 18 12 14 14 10 11 8 10 5 8 7 8 7 5 5 5 5 5 3 5 6 9 11 10 6 13 11 11 5 18 30 10 4 2 6 7 3
24 22 22 23 21 19 18 16 17 14 8 5 10 8 11 11 11 10 8 7 6 6 5 6 5 5 6 6 9 7 12 13 14 14 10 12 8 8 8 2 3 6 4